Time,TemperatureF,DewpointF,PressureIn,WindDirection,WindDirectionDegrees,WindSpeedMPH,WindSpeedGustMPH,Humidity,HourlyPrecipIn,Conditions,Clouds,dailyrainin,SoftwareType,DateUTC
2013-02-25 00:00:00,27.2,21.6,30.16,NNW,338,2.0,4.0,79,0.00,,---,0.00,VWS V14.01,2013-02-25 05:00:00,
2013-02-25 00:01:00,27.2,21.6,30.16,NW,315,3.0,5.0,79,0.00,,---,0.00,VWS V14.01,2013-02-25 05:01:00,
2013-02-25 00:02:00,27.2,21.3,30.16,NW,315,1.0,3.0,78,0.00,,---,0.00,VWS V14.01,2013-02-25 05:02:00,
2013-02-25 00:03:00,27.2,21.3,30.16,NW,315,2.0,3.0,78,0.00,,---,0.00,VWS V14.01,2013-02-25 05:03:00,
2013-02-25 00:04:00,27.2,21.3,30.16,NW,315,2.0,4.0,78,0.00,,---,0.00,VWS V14.01,2013-02-25 05:04:00,
2013-02-25 00:05:00,27.2,21.6,30.16,NW,315,2.0,3.0,79,0.00,,---,0.00,VWS V14.01,2013-02-25 05:05:00,
2013-02-25 00:06:00,27.2,21.6,30.16,NW,315,2.0,3.0,79,0.00,,---,0.00,VWS V14.01,2013-02-25 05:06:00,
2013-02-25 00:07:00,27.2,21.3,30.16,NW,315,2.0,5.0,78,0.00,,---,0.00,VWS V14.01,2013-02-25 05:07:00,
2013-02-25 00:08:00,27.2,21.3,30.16,NW,315,2.0,4.0,78,0.00,,---,0.00,VWS V14.01,2013-02-25 05:08:00,
2013-02-25 00:09:00,27.2,21.3,30.16,NW,315,2.0,3.0,78,0.00,,---,0.00,VWS V14.01,2013-02-25 05:09:00,
2013-02-25 00:10:00,27.2,21.3,30.16,NW,315,2.0,3.0,78,0.00,,---,0.00,VWS V14.01,2013-02-25 05:10:00,
2013-02-25 00:11:00,27.2,21.3,30.16,NW,315,2.0,4.0,78,0.00,,---,0.00,VWS V14.01,2013-02-25 05:11:00,
2013-02-25 00:12:00,27.3,21.4,30.16,NW,315,2.0,4.0,78,0.00,,---,0.00,VWS V14.01,2013-02-25 05:12:00,
2013-02-25 00:13:00,27.2,21.3,30.16,NNW,338,3.0,4.0,78,0.00,,---,0.00,VWS V14.01,2013-02-25 05:13:00,
2013-02-25 00:15:00,27.2,21.6,30.16,NNW,331,2.0,3.0,79,0.00,,---,0.00,VWS V14.01,2013-02-25 05:15:00,
2013-02-25 00:16:00,27.2,21.3,30.16,NNW,338,3.0,4.0,78,0.00,,---,0.00,VWS V14.01,2013-02-25 05:16:00,
2013-02-25 00:17:00,27.3,21.7,30.16,NNW,331,1.0,2.0,79,0.00,,---,0.00,VWS V14.01,2013-02-25 05:17:00,
2013-02-25 00:18:00,27.3,21.7,30.16,NNW,331,2.0,2.0,79,0.00,,---,0.00,VWS V14.01,2013-02-25 05:18:00,
2013-02-25 00:19:00,27.3,21.7,30.16,WNW,296,3.0,5.0,79,0.00,,---,0.00,VWS V14.01,2013-02-25 05:19:00,
2013-02-25 00:20:00,27.2,21.6,30.16,WNW,300,3.0,5.0,79,0.00,,---,0.00,VWS V14.01,2013-02-25 05:20:00,
2013-02-25 00:21:00,27.3,21.7,30.16,WNW,300,3.0,3.0,79,0.00,,---,0.00,VWS V14.01,2013-02-25 05:21:00,
2013-02-25 00:22:00,27.2,21.6,30.16,WNW,300,2.0,4.0,79,0.00,,---,0.00,VWS V14.01,2013-02-25 05:22:00,
2013-02-25 00:23:00,27.2,21.3,30.16,WNW,296,3.0,5.0,78,0.00,,---,0.00,VWS V14.01,2013-02-25 05:23:00,
2013-02-25 00:24:00,27.2,21.3,30.16,WNW,296,2.0,3.0,78,0.00,,---,0.00,VWS V14.01,2013-02-25 05:24:00,
2013-02-25 00:25:00,27.2,21.3,30.16,WNW,296,4.0,4.0,78,0.00,,---,0.00,VWS V14.01,2013-02-25 05:25:00,
2013-02-25 00:26:00,27.2,21.3,30.16,WNW,296,3.0,4.0,78,0.00,,---,0.00,VWS V14.01,2013-02-25 05:26:00,
2013-02-25 00:27:00,27.2,21.3,30.16,WNW,296,4.0,4.0,78,0.00,,---,0.00,VWS V14.01,2013-02-25 05:27:00,
2013-02-25 00:28:00,27.2,21.3,30.16,NW,305,2.0,4.0,78,0.00,,---,0.00,VWS V14.01,2013-02-25 05:28:00,
2013-02-25 00:29:00,27.2,21.6,30.16,NW,322,3.0,4.0,79,0.00,,---,0.00,VWS V14.01,2013-02-25 05:29:00,
2013-02-25 00:30:00,27.2,21.6,30.16,NNW,327,3.0,4.0,79,0.00,,---,0.00,VWS V14.01,2013-02-25 05:30:00,
2013-02-25 00:31:00,27.2,21.6,30.16,NW,304,4.0,6.0,79,0.00,,---,0.00,VWS V14.01,2013-02-25 05:31:00,
2013-02-25 00:32:00,27.2,21.3,30.16,NW,309,2.0,4.0,78,0.00,,---,0.00,VWS V14.01,2013-02-25 05:32:00,
2013-02-25 00:33:00,27.1,21.2,30.16,NW,309,2.0,3.0,78,0.00,,---,0.00,VWS V14.01,2013-02-25 05:33:00,
2013-02-25 00:34:00,27.2,21.3,30.16,NW,309,3.0,4.0,78,0.00,,---,0.00,VWS V14.01,2013-02-25 05:34:00,
2013-02-25 00:35:00,27.1,21.2,30.16,NW,308,3.0,4.0,78,0.00,,---,0.00,VWS V14.01,2013-02-25 05:35:00,
2013-02-25 00:36:00,27.1,21.2,30.16,NW,305,3.0,4.0,78,0.00,,---,0.00,VWS V14.01,2013-02-25 05:36:00,
2013-02-25 00:37:00,27.1,21.2,30.16,NW,313,2.0,4.0,78,0.00,,---,0.00,VWS V14.01,2013-02-25 05:37:00,
2013-02-25 00:38:00,27.1,21.2,30.16,NW,313,2.0,3.0,78,0.00,,---,0.00,VWS V14.01,2013-02-25 05:38:00,
2013-02-25 00:39:00,27.0,21.1,30.16,NW,313,2.0,3.0,78,0.00,,---,0.00,VWS V14.01,2013-02-25 05:39:00,
2013-02-25 00:40:00,27.0,21.1,30.16,NW,313,2.0,3.0,78,0.00,,---,0.00,VWS V14.01,2013-02-25 05:40:00,
2013-02-25 00:41:00,27.0,21.1,30.16,North,349,3.0,5.0,78,0.00,,---,0.00,VWS V14.01,2013-02-25 05:41:00,
2013-02-25 00:42:00,26.9,21.3,30.16,NNW,335,3.0,4.0,79,0.00,,---,0.00,VWS V14.01,2013-02-25 05:42:00,
2013-02-25 00:43:00,26.8,20.9,30.16,NNW,335,3.0,3.0,78,0.00,,---,0.00,VWS V14.01,2013-02-25 05:43:00,
2013-02-25 00:44:00,26.8,21.2,30.16,NNW,335,2.0,3.0,79,0.00,,---,0.00,VWS V14.01,2013-02-25 05:44:00,
2013-02-25 00:45:00,26.7,21.1,30.16,NNW,333,3.0,3.0,79,0.00,,---,0.00,VWS V14.01,2013-02-25 05:45:00,
2013-02-25 00:46:00,26.7,21.1,30.16,NNW,333,3.0,3.0,79,0.00,,---,0.00,VWS V14.01,2013-02-25 05:46:00,
2013-02-25 00:47:00,26.6,21.0,30.16,NNW,333,2.0,3.0,79,0.00,,---,0.00,VWS V14.01,2013-02-25 05:47:00,
2013-02-25 00:48:00,26.6,21.0,30.16,NNW,333,2.0,2.0,79,0.00,,---,0.00,VWS V14.01,2013-02-25 05:48:00,
2013-02-25 00:49:00,26.5,20.9,30.16,NNW,333,1.0,2.0,79,0.00,,---,0.00,VWS V14.01,2013-02-25 05:49:00,
2013-02-25 00:50:00,26.5,20.9,30.16,NNW,333,2.0,3.0,79,0.00,,---,0.00,VWS V14.01,2013-02-25 05:50:00,
2013-02-25 00:51:00,26.5,20.9,30.16,NNW,333,2.0,3.0,79,0.00,,---,0.00,VWS V14.01,2013-02-25 05:51:00,
2013-02-25 00:52:00,26.5,20.9,30.16,NNW,333,1.0,4.0,79,0.00,,---,0.00,VWS V14.01,2013-02-25 05:52:00,
2013-02-25 00:55:00,26.3,20.7,30.16,NW,323,1.0,3.0,79,0.00,,---,0.00,VWS V14.01,2013-02-25 05:55:00,
2013-02-25 00:56:00,26.3,20.7,30.16,NW,323,1.0,2.0,79,0.00,,---,0.00,VWS V14.01,2013-02-25 05:56:00,
2013-02-25 00:57:00,26.2,20.9,30.16,NW,323,1.0,3.0,80,0.00,,---,0.00,VWS V14.01,2013-02-25 05:57:00,
2013-02-25 00:58:00,26.2,20.9,30.16,NW,323,0.0,1.0,80,0.00,,---,0.00,VWS V14.01,2013-02-25 05:58:00,
2013-02-25 00:59:00,26.1,20.8,30.16,NW,323,1.0,2.0,80,0.00,,---,0.00,VWS V14.01,2013-02-25 05:59:00,
2013-02-25 01:00:00,26.1,20.8,30.16,NW,323,1.0,2.0,80,0.00,,---,0.00,VWS V14.01,2013-02-25 06:00:00,
2013-02-25 01:01:00,26.1,20.8,30.16,NW,323,0.0,1.0,80,0.00,,---,0.00,VWS V14.01,2013-02-25 06:01:00,
2013-02-25 01:02:00,26.0,20.7,30.16,NW,323,0.0,2.0,80,0.00,,---,0.00,VWS V14.01,2013-02-25 06:02:00,
2013-02-25 01:03:00,26.0,20.7,30.16,NW,323,1.0,2.0,80,0.00,,---,0.00,VWS V14.01,2013-02-25 06:03:00,
2013-02-25 01:04:00,26.0,20.7,30.16,NNW,329,2.0,3.0,80,0.00,,---,0.00,VWS V14.01,2013-02-25 06:04:00,
2013-02-25 01:05:00,26.0,20.7,30.16,NNW,329,1.0,4.0,80,0.00,,---,0.00,VWS V14.01,2013-02-25 06:05:00,
2013-02-25 01:06:00,26.0,20.7,30.17,NNW,329,1.0,2.0,80,0.00,,---,0.00,VWS V14.01,2013-02-25 06:06:00,
2013-02-25 01:07:00,26.0,20.7,30.17,NNW,329,0.0,2.0,80,0.00,,---,0.00,VWS V14.01,2013-02-25 06:07:00,
2013-02-25 01:08:00,26.0,20.7,30.17,NNW,329,2.0,2.0,80,0.00,,---,0.00,VWS V14.01,2013-02-25 06:08:00,
2013-02-25 01:09:00,26.0,20.7,30.17,NNW,329,1.0,3.0,80,0.00,,---,0.00,VWS V14.01,2013-02-25 06:09:00,
2013-02-25 01:10:00,25.9,20.6,30.17,NNW,329,2.0,3.0,80,0.00,,---,0.00,VWS V14.01,2013-02-25 06:10:00,
2013-02-25 01:11:00,26.0,20.7,30.17,NNW,329,1.0,2.0,80,0.00,,---,0.00,VWS V14.01,2013-02-25 06:11:00,
2013-02-25 01:12:00,25.9,20.6,30.17,NNW,329,1.0,2.0,80,0.00,,---,0.00,VWS V14.01,2013-02-25 06:12:00,
2013-02-25 01:13:00,26.0,20.7,30.17,NNW,329,1.0,1.0,80,0.00,,---,0.00,VWS V14.01,2013-02-25 06:13:00,
2013-02-25 01:14:00,25.9,20.6,30.17,NNW,329,1.0,2.0,80,0.00,,---,0.00,VWS V14.01,2013-02-25 06:14:00,
2013-02-25 01:15:00,25.9,20.6,30.17,NNW,329,2.0,2.0,80,0.00,,---,0.00,VWS V14.01,2013-02-25 06:15:00,
2013-02-25 01:16:00,25.9,20.6,30.17,NNW,329,0.0,2.0,80,0.00,,---,0.00,VWS V14.01,2013-02-25 06:16:00,
2013-02-25 01:17:00,25.8,20.5,30.17,NNW,329,0.0,2.0,80,0.00,,---,0.00,VWS V14.01,2013-02-25 06:17:00,
2013-02-25 01:18:00,25.9,20.6,30.17,NNW,329,0.0,1.0,80,0.00,,---,0.00,VWS V14.01,2013-02-25 06:18:00,
2013-02-25 01:20:00,25.8,20.5,30.17,NNW,329,0.0,1.0,80,0.00,,---,0.00,VWS V14.01,2013-02-25 06:20:00,
2013-02-25 01:21:00,25.8,20.5,30.17,NNW,329,0.0,0.0,80,0.00,,---,0.00,VWS V14.01,2013-02-25 06:21:00,
2013-02-25 01:22:00,25.8,20.8,30.17,NNW,329,1.0,1.0,81,0.00,,---,0.00,VWS V14.01,2013-02-25 06:22:00,
2013-02-25 01:23:00,25.8,20.8,30.17,NNW,329,0.0,2.0,81,0.00,,---,0.00,VWS V14.01,2013-02-25 06:23:00,
2013-02-25 01:24:00,25.8,20.8,30.17,NNW,329,1.0,1.0,81,0.00,,---,0.00,VWS V14.01,2013-02-25 06:24:00,
2013-02-25 01:25:00,25.8,20.8,30.17,NNW,329,0.0,2.0,81,0.00,,---,0.00,VWS V14.01,2013-02-25 06:25:00,
2013-02-25 01:26:00,25.8,20.8,30.17,NNW,329,2.0,2.0,81,0.00,,---,0.00,VWS V14.01,2013-02-25 06:26:00,
2013-02-25 01:27:00,25.9,20.9,30.17,NNW,328,2.0,4.0,81,0.00,,---,0.00,VWS V14.01,2013-02-25 06:27:00,
2013-02-25 01:28:00,25.9,20.9,30.17,NNW,328,1.0,3.0,81,0.00,,---,0.00,VWS V14.01,2013-02-25 06:28:00,
2013-02-25 01:29:00,26.0,21.0,30.17,NNW,328,2.0,3.0,81,0.00,,---,0.00,VWS V14.01,2013-02-25 06:29:00,
2013-02-25 01:30:00,26.0,21.3,30.17,NNW,328,1.0,2.0,82,0.00,,---,0.00,VWS V14.01,2013-02-25 06:30:00,
2013-02-25 01:31:00,26.0,21.0,30.17,NNW,328,1.0,1.0,81,0.00,,---,0.00,VWS V14.01,2013-02-25 06:31:00,
2013-02-25 01:32:00,26.1,21.1,30.17,NNW,328,1.0,2.0,81,0.00,,---,0.00,VWS V14.01,2013-02-25 06:32:00,
2013-02-25 01:33:00,26.1,21.1,30.17,NNW,328,2.0,2.0,81,0.00,,---,0.00,VWS V14.01,2013-02-25 06:33:00,
2013-02-25 01:34:00,26.1,21.1,30.17,NNW,328,2.0,2.0,81,0.00,,---,0.00,VWS V14.01,2013-02-25 06:34:00,
2013-02-25 01:35:00,26.1,21.1,30.17,NNW,328,2.0,3.0,81,0.00,,---,0.00,VWS V14.01,2013-02-25 06:35:00,
2013-02-25 01:36:00,26.2,21.2,30.17,NNW,328,1.0,2.0,81,0.00,,---,0.00,VWS V14.01,2013-02-25 06:36:00,
2013-02-25 01:37:00,26.2,21.2,30.17,NNW,328,2.0,3.0,81,0.00,,---,0.00,VWS V14.01,2013-02-25 06:37:00,
2013-02-25 01:38:00,26.2,21.2,30.17,NNW,328,3.0,3.0,81,0.00,,---,0.00,VWS V14.01,2013-02-25 06:38:00,
2013-02-25 01:39:00,26.2,21.2,30.17,NNW,328,2.0,3.0,81,0.00,,---,0.00,VWS V14.01,2013-02-25 06:39:00,
2013-02-25 01:40:00,26.3,21.3,30.17,NNW,328,1.0,2.0,81,0.00,,---,0.00,VWS V14.01,2013-02-25 06:40:00,
2013-02-25 01:41:00,26.3,21.3,30.17,NNW,328,2.0,2.0,81,0.00,,---,0.00,VWS V14.01,2013-02-25 06:41:00,
2013-02-25 01:42:00,26.3,21.3,30.17,NW,310,2.0,4.0,81,0.00,,---,0.00,VWS V14.01,2013-02-25 06:42:00,
2013-02-25 01:43:00,26.3,21.3,30.17,NW,310,2.0,3.0,81,0.00,,---,0.00,VWS V14.01,2013-02-25 06:43:00,
2013-02-25 01:44:00,26.3,21.3,30.17,NW,310,2.0,2.0,81,0.00,,---,0.00,VWS V14.01,2013-02-25 06:44:00,
2013-02-25 01:45:00,26.3,21.3,30.17,NW,310,2.0,3.0,81,0.00,,---,0.00,VWS V14.01,2013-02-25 06:45:00,
2013-02-25 01:46:00,26.3,21.3,30.17,NW,310,2.0,2.0,81,0.00,,---,0.00,VWS V14.01,2013-02-25 06:46:00,
2013-02-25 01:47:00,26.2,21.2,30.17,NW,310,1.0,2.0,81,0.00,,---,0.00,VWS V14.01,2013-02-25 06:47:00,
2013-02-25 01:48:00,26.2,21.2,30.17,NW,310,1.0,2.0,81,0.00,,---,0.00,VWS V14.01,2013-02-25 06:48:00,
2013-02-25 01:49:00,26.2,21.2,30.17,NW,310,1.0,1.0,81,0.00,,---,0.00,VWS V14.01,2013-02-25 06:49:00,
2013-02-25 01:50:00,26.2,21.2,30.17,NW,311,2.0,2.0,81,0.00,,---,0.00,VWS V14.01,2013-02-25 06:50:00,
2013-02-25 01:51:00,26.2,21.2,30.18,NW,311,1.0,2.0,81,0.00,,---,0.00,VWS V14.01,2013-02-25 06:51:00,
2013-02-25 01:52:00,26.1,21.4,30.17,NW,311,2.0,2.0,82,0.00,,---,0.00,VWS V14.01,2013-02-25 06:52:00,
2013-02-25 01:53:00,26.1,21.4,30.17,NW,311,2.0,3.0,82,0.00,,---,0.00,VWS V14.01,2013-02-25 06:53:00,
2013-02-25 01:54:00,26.1,21.4,30.17,NW,311,2.0,2.0,82,0.00,,---,0.00,VWS V14.01,2013-02-25 06:54:00,
2013-02-25 01:55:00,26.1,21.4,30.17,NW,311,2.0,2.0,82,0.00,,---,0.00,VWS V14.01,2013-02-25 06:55:00,
2013-02-25 01:56:00,26.1,21.4,30.17,NW,311,2.0,2.0,82,0.00,,---,0.00,VWS V14.01,2013-02-25 06:56:00,
2013-02-25 01:57:00,26.1,21.4,30.17,NW,311,1.0,2.0,82,0.00,,---,0.00,VWS V14.01,2013-02-25 06:57:00,
2013-02-25 01:58:00,26.1,21.4,30.17,NW,311,0.0,2.0,82,0.00,,---,0.00,VWS V14.01,2013-02-25 06:58:00,
2013-02-25 01:59:00,26.1,21.4,30.17,NW,311,1.0,1.0,82,0.00,,---,0.00,VWS V14.01,2013-02-25 06:59:00,
2013-02-25 02:00:00,26.1,21.4,30.17,NW,311,1.0,2.0,82,0.00,,---,0.00,VWS V14.01,2013-02-25 07:00:00,
2013-02-25 02:01:00,26.1,21.4,30.17,NW,311,2.0,2.0,82,0.00,,---,0.00,VWS V14.01,2013-02-25 07:01:00,
2013-02-25 02:02:00,26.1,21.1,30.17,NW,311,1.0,2.0,81,0.00,,---,0.00,VWS V14.01,2013-02-25 07:02:00,
2013-02-25 02:03:00,26.1,21.1,30.17,NW,311,1.0,2.0,81,0.00,,---,0.00,VWS V14.01,2013-02-25 07:03:00,
2013-02-25 02:04:00,26.1,21.1,30.17,WNW,292,5.0,5.0,81,0.00,,---,0.00,VWS V14.01,2013-02-25 07:04:00,
2013-02-25 02:05:00,26.1,21.1,30.17,NW,320,2.0,5.0,81,0.00,,---,0.00,VWS V14.01,2013-02-25 07:05:00,
2013-02-25 02:06:00,26.1,21.1,30.17,NW,320,1.0,2.0,81,0.00,,---,0.00,VWS V14.01,2013-02-25 07:06:00,
2013-02-25 02:07:00,26.1,21.1,30.17,NW,320,1.0,1.0,81,0.00,,---,0.00,VWS V14.01,2013-02-25 07:07:00,
2013-02-25 02:08:00,26.1,21.1,30.17,NW,320,1.0,2.0,81,0.00,,---,0.00,VWS V14.01,2013-02-25 07:08:00,
2013-02-25 02:09:00,26.1,21.1,30.17,NW,320,0.0,1.0,81,0.00,,---,0.00,VWS V14.01,2013-02-25 07:09:00,
2013-02-25 02:10:00,26.1,21.1,30.17,NW,320,3.0,3.0,81,0.00,,---,0.00,VWS V14.01,2013-02-25 07:10:00,
2013-02-25 02:11:00,26.1,21.1,30.17,NW,320,2.0,3.0,81,0.00,,---,0.00,VWS V14.01,2013-02-25 07:11:00,
2013-02-25 02:12:00,26.0,21.0,30.17,WNW,289,0.0,2.0,81,0.00,,---,0.00,VWS V14.01,2013-02-25 07:12:00,
2013-02-25 02:13:00,26.0,21.0,30.17,WNW,289,0.0,1.0,81,0.00,,---,0.00,VWS V14.01,2013-02-25 07:13:00,
2013-02-25 02:14:00,26.0,21.0,30.17,WNW,289,0.0,0.0,81,0.00,,---,0.00,VWS V14.01,2013-02-25 07:14:00,
2013-02-25 02:15:00,26.0,21.0,30.17,WNW,289,1.0,1.0,81,0.00,,---,0.00,VWS V14.01,2013-02-25 07:15:00,
2013-02-25 02:16:00,26.0,21.0,30.17,WNW,289,1.0,1.0,81,0.00,,---,0.00,VWS V14.01,2013-02-25 07:16:00,
2013-02-25 02:17:00,25.9,20.9,30.17,WNW,289,1.0,2.0,81,0.00,,---,0.00,VWS V14.01,2013-02-25 07:17:00,
2013-02-25 02:18:00,25.9,20.9,30.17,WNW,289,2.0,3.0,81,0.00,,---,0.00,VWS V14.01,2013-02-25 07:18:00,
2013-02-25 02:19:00,25.8,20.8,30.17,WNW,290,2.0,3.0,81,0.00,,---,0.00,VWS V14.01,2013-02-25 07:19:00,
2013-02-25 02:20:00,25.8,20.8,30.17,WNW,290,2.0,3.0,81,0.00,,---,0.00,VWS V14.01,2013-02-25 07:20:00,
2013-02-25 02:21:00,25.9,20.9,30.18,WNW,290,1.0,2.0,81,0.00,,---,0.00,VWS V14.01,2013-02-25 07:21:00,
2013-02-25 02:22:00,25.9,20.9,30.17,WNW,290,0.0,2.0,81,0.00,,---,0.00,VWS V14.01,2013-02-25 07:22:00,
2013-02-25 02:23:00,25.9,20.9,30.17,WNW,290,2.0,2.0,81,0.00,,---,0.00,VWS V14.01,2013-02-25 07:23:00,
2013-02-25 02:24:00,25.8,20.8,30.17,WNW,290,2.0,3.0,81,0.00,,---,0.00,VWS V14.01,2013-02-25 07:24:00,
2013-02-25 02:25:00,25.9,20.9,30.17,WNW,290,1.0,4.0,81,0.00,,---,0.00,VWS V14.01,2013-02-25 07:25:00,
2013-02-25 02:26:00,25.9,20.9,30.17,WNW,290,4.0,4.0,81,0.00,,---,0.00,VWS V14.01,2013-02-25 07:26:00,
2013-02-25 02:27:00,25.9,20.9,30.17,WNW,290,3.0,3.0,81,0.00,,---,0.00,VWS V14.01,2013-02-25 07:27:00,
2013-02-25 02:28:00,25.9,20.9,30.17,WNW,300,2.0,4.0,81,0.00,,---,0.00,VWS V14.01,2013-02-25 07:28:00,
2013-02-25 02:29:00,26.0,21.0,30.17,WNW,300,2.0,3.0,81,0.00,,---,0.00,VWS V14.01,2013-02-25 07:29:00,
2013-02-25 02:30:00,26.0,21.0,30.17,WNW,300,2.0,3.0,81,0.00,,---,0.00,VWS V14.01,2013-02-25 07:30:00,
2013-02-25 02:31:00,26.0,21.3,30.17,WNW,300,0.0,2.0,82,0.00,,---,0.00,VWS V14.01,2013-02-25 07:31:00,
2013-02-25 02:32:00,26.0,21.0,30.17,WNW,300,3.0,3.0,81,0.00,,---,0.00,VWS V14.01,2013-02-25 07:32:00,
2013-02-25 02:33:00,26.0,21.0,30.17,WNW,300,2.0,3.0,81,0.00,,---,0.00,VWS V14.01,2013-02-25 07:33:00,
2013-02-25 02:34:00,26.0,21.0,30.17,WNW,300,1.0,2.0,81,0.00,,---,0.00,VWS V14.01,2013-02-25 07:34:00,
2013-02-25 02:35:00,26.0,21.0,30.17,WNW,300,2.0,3.0,81,0.00,,---,0.00,VWS V14.01,2013-02-25 07:35:00,
2013-02-25 02:36:00,26.0,21.0,30.17,WNW,300,1.0,3.0,81,0.00,,---,0.00,VWS V14.01,2013-02-25 07:36:00,
2013-02-25 02:37:00,26.0,21.0,30.17,WNW,300,2.0,3.0,81,0.00,,---,0.00,VWS V14.01,2013-02-25 07:37:00,
2013-02-25 02:38:00,25.9,20.9,30.17,WNW,300,2.0,2.0,81,0.00,,---,0.00,VWS V14.01,2013-02-25 07:38:00,
2013-02-25 02:39:00,25.9,20.9,30.17,WNW,300,2.0,3.0,81,0.00,,---,0.00,VWS V14.01,2013-02-25 07:39:00,
2013-02-25 02:40:00,25.9,20.9,30.17,WNW,300,2.0,2.0,81,0.00,,---,0.00,VWS V14.01,2013-02-25 07:40:00,
2013-02-25 02:41:00,25.9,20.9,30.17,WNW,300,2.0,3.0,81,0.00,,---,0.00,VWS V14.01,2013-02-25 07:41:00,
2013-02-25 02:42:00,25.8,20.8,30.17,WNW,300,3.0,3.0,81,0.00,,---,0.00,VWS V14.01,2013-02-25 07:42:00,
2013-02-25 02:43:00,25.8,21.1,30.17,WNW,300,0.0,3.0,82,0.00,,---,0.00,VWS V14.01,2013-02-25 07:43:00,
2013-02-25 02:44:00,25.8,21.1,30.17,WNW,300,1.0,2.0,82,0.00,,---,0.00,VWS V14.01,2013-02-25 07:44:00,
2013-02-25 02:45:00,25.8,21.1,30.17,NW,304,1.0,3.0,82,0.00,,---,0.00,VWS V14.01,2013-02-25 07:45:00,
2013-02-25 02:46:00,25.8,21.1,30.17,NW,316,4.0,4.0,82,0.00,,---,0.00,VWS V14.01,2013-02-25 07:46:00,
2013-02-25 02:47:00,25.8,21.1,30.17,NW,304,1.0,2.0,82,0.00,,---,0.00,VWS V14.01,2013-02-25 07:47:00,
2013-02-25 02:48:00,25.8,21.1,30.17,WNW,286,1.0,3.0,82,0.00,,---,0.00,VWS V14.01,2013-02-25 07:48:00,
2013-02-25 02:49:00,25.7,21.0,30.17,WNW,287,2.0,3.0,82,0.00,,---,0.00,VWS V14.01,2013-02-25 07:49:00,
2013-02-25 02:50:00,25.8,21.1,30.17,WNW,287,1.0,3.0,82,0.00,,---,0.00,VWS V14.01,2013-02-25 07:50:00,
2013-02-25 02:51:00,25.8,21.1,30.17,WNW,287,1.0,1.0,82,0.00,,---,0.00,VWS V14.01,2013-02-25 07:51:00,
2013-02-25 02:52:00,25.8,21.4,30.17,WNW,287,0.0,2.0,83,0.00,,---,0.00,VWS V14.01,2013-02-25 07:52:00,
2013-02-25 02:53:00,25.8,21.4,30.17,WNW,287,1.0,2.0,83,0.00,,---,0.00,VWS V14.01,2013-02-25 07:53:00,
2013-02-25 02:54:00,25.8,21.4,30.17,WNW,287,0.0,1.0,83,0.00,,---,0.00,VWS V14.01,2013-02-25 07:54:00,
2013-02-25 02:55:00,25.8,21.4,30.17,WNW,287,0.0,0.0,83,0.00,,---,0.00,VWS V14.01,2013-02-25 07:55:00,
2013-02-25 02:56:00,25.8,21.4,30.17,WNW,287,0.0,0.0,83,0.00,,---,0.00,VWS V14.01,2013-02-25 07:56:00,
2013-02-25 02:57:00,25.8,21.4,30.17,WNW,288,2.0,3.0,83,0.00,,---,0.00,VWS V14.01,2013-02-25 07:57:00,
2013-02-25 02:58:00,25.8,21.4,30.17,WNW,288,2.0,3.0,83,0.00,,---,0.00,VWS V14.01,2013-02-25 07:58:00,
2013-02-25 02:59:00,25.8,21.4,30.17,WNW,288,1.0,2.0,83,0.00,,---,0.00,VWS V14.01,2013-02-25 07:59:00,
2013-02-25 03:00:00,25.8,21.4,30.17,WNW,294,2.0,3.0,83,0.00,,---,0.00,VWS V14.01,2013-02-25 08:00:00,
2013-02-25 03:01:00,25.8,21.4,30.17,NW,318,4.0,4.0,83,0.00,,---,0.00,VWS V14.01,2013-02-25 08:01:00,
2013-02-25 03:02:00,25.9,21.5,30.17,NW,321,1.0,3.0,83,0.00,,---,0.00,VWS V14.01,2013-02-25 08:02:00,
2013-02-25 03:03:00,25.9,21.5,30.17,NW,321,2.0,2.0,83,0.00,,---,0.00,VWS V14.01,2013-02-25 08:03:00,
2013-02-25 03:04:00,26.0,21.6,30.17,NW,321,1.0,2.0,83,0.00,,---,0.00,VWS V14.01,2013-02-25 08:04:00,
2013-02-25 03:05:00,26.0,21.6,30.17,NW,321,1.0,2.0,83,0.00,,---,0.00,VWS V14.01,2013-02-25 08:05:00,
2013-02-25 03:06:00,26.0,21.6,30.17,NW,321,1.0,1.0,83,0.00,,---,0.00,VWS V14.01,2013-02-25 08:06:00,
2013-02-25 03:07:00,26.0,21.6,30.17,NW,321,0.0,2.0,83,0.00,,---,0.00,VWS V14.01,2013-02-25 08:07:00,
2013-02-25 03:08:00,26.0,21.6,30.17,NW,321,1.0,1.0,83,0.00,,---,0.00,VWS V14.01,2013-02-25 08:08:00,
2013-02-25 03:09:00,26.1,21.6,30.17,NW,321,1.0,1.0,83,0.00,,---,0.00,VWS V14.01,2013-02-25 08:09:00,
2013-02-25 03:10:00,26.1,21.6,30.17,NW,321,3.0,3.0,83,0.00,,---,0.00,VWS V14.01,2013-02-25 08:10:00,
2013-02-25 03:11:00,26.1,21.6,30.17,NW,321,1.0,3.0,83,0.00,,---,0.00,VWS V14.01,2013-02-25 08:11:00,
2013-02-25 03:12:00,26.1,21.6,30.17,NW,321,0.0,3.0,83,0.00,,---,0.00,VWS V14.01,2013-02-25 08:12:00,
2013-02-25 03:13:00,26.1,21.6,30.17,NW,321,0.0,1.0,83,0.00,,---,0.00,VWS V14.01,2013-02-25 08:13:00,
2013-02-25 03:14:00,26.1,21.6,30.17,NW,321,0.0,1.0,83,0.00,,---,0.00,VWS V14.01,2013-02-25 08:14:00,
2013-02-25 03:15:00,26.2,21.8,30.17,NW,321,0.0,0.0,83,0.00,,---,0.00,VWS V14.01,2013-02-25 08:15:00,
2013-02-25 03:16:00,26.2,21.8,30.17,NW,321,0.0,0.0,83,0.00,,---,0.00,VWS V14.01,2013-02-25 08:16:00,
2013-02-25 03:17:00,26.2,21.8,30.17,NW,321,3.0,3.0,83,0.00,,---,0.00,VWS V14.01,2013-02-25 08:17:00,
2013-02-25 03:18:00,26.3,21.9,30.17,NW,321,3.0,3.0,83,0.00,,---,0.00,VWS V14.01,2013-02-25 08:18:00,
2013-02-25 03:19:00,26.3,21.9,30.17,NW,321,0.0,3.0,83,0.00,,---,0.00,VWS V14.01,2013-02-25 08:19:00,
2013-02-25 03:20:00,26.3,21.9,30.17,NW,321,1.0,1.0,83,0.00,,---,0.00,VWS V14.01,2013-02-25 08:20:00,
2013-02-25 03:21:00,26.3,21.9,30.17,NW,321,1.0,1.0,83,0.00,,---,0.00,VWS V14.01,2013-02-25 08:21:00,
2013-02-25 03:22:00,26.4,22.0,30.17,NW,321,0.0,1.0,83,0.00,,---,0.00,VWS V14.01,2013-02-25 08:22:00,
2013-02-25 03:23:00,26.4,22.0,30.17,NW,321,0.0,1.0,83,0.00,,---,0.00,VWS V14.01,2013-02-25 08:23:00,
2013-02-25 03:24:00,26.4,22.0,30.17,NW,321,0.0,0.0,83,0.00,,---,0.00,VWS V14.01,2013-02-25 08:24:00,
2013-02-25 03:25:00,26.4,22.0,30.17,NW,321,2.0,2.0,83,0.00,,---,0.00,VWS V14.01,2013-02-25 08:25:00,
2013-02-25 03:26:00,26.4,22.0,30.17,NW,321,1.0,2.0,83,0.00,,---,0.00,VWS V14.01,2013-02-25 08:26:00,
2013-02-25 03:27:00,26.5,22.0,30.17,NW,321,1.0,2.0,83,0.00,,---,0.00,VWS V14.01,2013-02-25 08:27:00,
2013-02-25 03:28:00,26.5,22.0,30.17,NW,321,1.0,2.0,83,0.00,,---,0.00,VWS V14.01,2013-02-25 08:28:00,
2013-02-25 03:29:00,26.5,22.0,30.17,NW,321,0.0,2.0,83,0.00,,---,0.00,VWS V14.01,2013-02-25 08:29:00,
2013-02-25 03:30:00,26.5,22.0,30.17,NW,321,1.0,2.0,83,0.00,,---,0.00,VWS V14.01,2013-02-25 08:30:00,
2013-02-25 03:31:00,26.5,22.0,30.17,NW,321,0.0,1.0,83,0.00,,---,0.00,VWS V14.01,2013-02-25 08:31:00,
2013-02-25 03:32:00,26.6,22.1,30.17,NW,321,0.0,1.0,83,0.00,,---,0.00,VWS V14.01,2013-02-25 08:32:00,
2013-02-25 03:33:00,26.6,21.9,30.17,NW,321,0.0,0.0,82,0.00,,---,0.00,VWS V14.01,2013-02-25 08:33:00,
2013-02-25 03:34:00,26.6,21.9,30.17,NW,321,0.0,1.0,82,0.00,,---,0.00,VWS V14.01,2013-02-25 08:34:00,
2013-02-25 03:35:00,26.6,21.9,30.17,NW,321,0.0,0.0,82,0.00,,---,0.00,VWS V14.01,2013-02-25 08:35:00,
2013-02-25 03:36:00,26.6,21.9,30.17,NW,321,0.0,0.0,82,0.00,,---,0.00,VWS V14.01,2013-02-25 08:36:00,
2013-02-25 03:37:00,26.6,21.9,30.17,NW,321,1.0,1.0,82,0.00,,---,0.00,VWS V14.01,2013-02-25 08:37:00,
2013-02-25 03:38:00,26.7,22.2,30.17,NW,321,0.0,1.0,83,0.00,,---,0.00,VWS V14.01,2013-02-25 08:38:00,
2013-02-25 03:39:00,26.7,22.2,30.17,NW,321,0.0,1.0,83,0.00,,---,0.00,VWS V14.01,2013-02-25 08:39:00,
2013-02-25 03:40:00,26.7,22.0,30.17,NW,321,0.0,1.0,82,0.00,,---,0.00,VWS V14.01,2013-02-25 08:40:00,
2013-02-25 03:41:00,26.7,22.2,30.17,NW,321,1.0,1.0,83,0.00,,---,0.00,VWS V14.01,2013-02-25 08:41:00,
2013-02-25 03:42:00,26.7,22.0,30.17,NW,321,0.0,0.0,82,0.00,,---,0.00,VWS V14.01,2013-02-25 08:42:00,
2013-02-25 03:43:00,26.7,22.0,30.17,NW,321,0.0,0.0,82,0.00,,---,0.00,VWS V14.01,2013-02-25 08:43:00,
2013-02-25 03:44:00,26.7,22.0,30.17,NW,321,0.0,0.0,82,0.00,,---,0.00,VWS V14.01,2013-02-25 08:44:00,
2013-02-25 03:45:00,26.7,22.0,30.17,NW,321,0.0,0.0,82,0.00,,---,0.00,VWS V14.01,2013-02-25 08:45:00,
2013-02-25 03:46:00,26.7,22.0,30.17,NW,321,0.0,0.0,82,0.00,,---,0.00,VWS V14.01,2013-02-25 08:46:00,
2013-02-25 03:47:00,26.7,22.0,30.17,NW,321,0.0,0.0,82,0.00,,---,0.00,VWS V14.01,2013-02-25 08:47:00,
2013-02-25 03:48:00,26.7,22.2,30.17,NW,321,1.0,1.0,83,0.00,,---,0.00,VWS V14.01,2013-02-25 08:48:00,
2013-02-25 03:49:00,26.7,22.2,30.17,NW,321,0.0,1.0,83,0.00,,---,0.00,VWS V14.01,2013-02-25 08:49:00,
2013-02-25 03:50:00,26.7,22.0,30.17,NW,321,0.0,0.0,82,0.00,,---,0.00,VWS V14.01,2013-02-25 08:50:00,
2013-02-25 03:51:00,26.7,22.0,30.17,NW,321,0.0,0.0,82,0.00,,---,0.00,VWS V14.01,2013-02-25 08:51:00,
2013-02-25 03:52:00,26.6,21.9,30.17,NW,321,0.0,0.0,82,0.00,,---,0.00,VWS V14.01,2013-02-25 08:52:00,
2013-02-25 03:53:00,26.6,21.9,30.17,NW,321,0.0,0.0,82,0.00,,---,0.00,VWS V14.01,2013-02-25 08:53:00,
2013-02-25 03:54:00,26.6,21.9,30.17,NW,321,0.0,0.0,82,0.00,,---,0.00,VWS V14.01,2013-02-25 08:54:00,
2013-02-25 03:55:00,26.6,21.9,30.17,NW,321,0.0,0.0,82,0.00,,---,0.00,VWS V14.01,2013-02-25 08:55:00,
2013-02-25 03:56:00,26.6,21.9,30.17,NW,321,0.0,0.0,82,0.00,,---,0.00,VWS V14.01,2013-02-25 08:56:00,
2013-02-25 03:57:00,26.6,21.9,30.17,NW,321,0.0,0.0,82,0.00,,---,0.00,VWS V14.01,2013-02-25 08:57:00,
2013-02-25 03:58:00,26.6,21.9,30.17,NW,321,1.0,2.0,82,0.00,,---,0.00,VWS V14.01,2013-02-25 08:58:00,
2013-02-25 03:59:00,26.6,21.9,30.17,NW,321,0.0,2.0,82,0.00,,---,0.00,VWS V14.01,2013-02-25 08:59:00,
2013-02-25 04:00:00,26.5,21.8,30.17,NW,321,0.0,1.0,82,0.00,,---,0.00,VWS V14.01,2013-02-25 09:00:00,
2013-02-25 04:01:00,26.5,21.8,30.17,NW,321,0.0,0.0,82,0.00,,---,0.00,VWS V14.01,2013-02-25 09:01:00,
2013-02-25 04:02:00,26.5,21.8,30.17,NW,321,0.0,0.0,82,0.00,,---,0.00,VWS V14.01,2013-02-25 09:02:00,
2013-02-25 04:03:00,26.5,21.8,30.17,NW,321,0.0,0.0,82,0.00,,---,0.00,VWS V14.01,2013-02-25 09:03:00,
2013-02-25 04:04:00,26.4,21.7,30.17,NW,321,1.0,2.0,82,0.00,,---,0.00,VWS V14.01,2013-02-25 09:04:00,
2013-02-25 04:05:00,26.4,21.7,30.17,NW,321,0.0,1.0,82,0.00,,---,0.00,VWS V14.01,2013-02-25 09:05:00,
2013-02-25 04:06:00,26.4,21.7,30.17,NW,321,1.0,1.0,82,0.00,,---,0.00,VWS V14.01,2013-02-25 09:06:00,
2013-02-25 04:07:00,26.3,21.6,30.17,NW,321,0.0,0.0,82,0.00,,---,0.00,VWS V14.01,2013-02-25 09:07:00,
2013-02-25 04:08:00,26.3,21.6,30.17,NW,321,0.0,0.0,82,0.00,,---,0.00,VWS V14.01,2013-02-25 09:08:00,
2013-02-25 04:09:00,26.2,21.5,30.17,NW,321,0.0,0.0,82,0.00,,---,0.00,VWS V14.01,2013-02-25 09:09:00,
2013-02-25 04:10:00,26.2,21.5,30.17,NW,321,0.0,0.0,82,0.00,,---,0.00,VWS V14.01,2013-02-25 09:10:00,
2013-02-25 04:11:00,26.2,21.5,30.17,NW,321,0.0,0.0,82,0.00,,---,0.00,VWS V14.01,2013-02-25 09:11:00,
2013-02-25 04:12:00,26.1,21.4,30.17,NW,321,0.0,0.0,82,0.00,,---,0.00,VWS V14.01,2013-02-25 09:12:00,
2013-02-25 04:13:00,26.1,21.4,30.17,NW,321,0.0,1.0,82,0.00,,---,0.00,VWS V14.01,2013-02-25 09:13:00,
2013-02-25 04:14:00,26.0,21.3,30.17,NW,321,0.0,1.0,82,0.00,,---,0.00,VWS V14.01,2013-02-25 09:14:00,
2013-02-25 04:15:00,26.0,21.3,30.17,NW,321,2.0,2.0,82,0.00,,---,0.00,VWS V14.01,2013-02-25 09:15:00,
2013-02-25 04:16:00,26.0,21.3,30.17,NW,321,1.0,2.0,82,0.00,,---,0.00,VWS V14.01,2013-02-25 09:16:00,
2013-02-25 04:17:00,26.0,21.3,30.17,NW,321,0.0,1.0,82,0.00,,---,0.00,VWS V14.01,2013-02-25 09:17:00,
2013-02-25 04:18:00,25.9,21.2,30.17,NW,321,0.0,0.0,82,0.00,,---,0.00,VWS V14.01,2013-02-25 09:18:00,
2013-02-25 04:19:00,25.9,21.2,30.17,NW,321,0.0,1.0,82,0.00,,---,0.00,VWS V14.01,2013-02-25 09:19:00,
2013-02-25 04:20:00,25.9,21.2,30.17,NW,321,0.0,0.0,82,0.00,,---,0.00,VWS V14.01,2013-02-25 09:20:00,
2013-02-25 04:21:00,25.9,21.2,30.17,NW,321,0.0,0.0,82,0.00,,---,0.00,VWS V14.01,2013-02-25 09:21:00,
2013-02-25 04:22:00,25.8,21.1,30.17,NW,321,0.0,0.0,82,0.00,,---,0.00,VWS V14.01,2013-02-25 09:22:00,
2013-02-25 04:23:00,25.8,21.1,30.17,NW,321,0.0,0.0,82,0.00,,---,0.00,VWS V14.01,2013-02-25 09:23:00,
2013-02-25 04:24:00,25.8,21.1,30.17,NW,321,0.0,0.0,82,0.00,,---,0.00,VWS V14.01,2013-02-25 09:24:00,
2013-02-25 04:25:00,25.8,21.1,30.17,NW,321,0.0,0.0,82,0.00,,---,0.00,VWS V14.01,2013-02-25 09:25:00,
2013-02-25 04:26:00,25.8,21.1,30.17,NW,321,0.0,0.0,82,0.00,,---,0.00,VWS V14.01,2013-02-25 09:26:00,
2013-02-25 04:27:00,25.7,21.3,30.17,NW,321,0.0,0.0,83,0.00,,---,0.00,VWS V14.01,2013-02-25 09:27:00,
2013-02-25 04:28:00,25.7,21.3,30.17,NW,321,0.0,0.0,83,0.00,,---,0.00,VWS V14.01,2013-02-25 09:28:00,
2013-02-25 04:29:00,25.7,21.3,30.17,NW,321,0.0,0.0,83,0.00,,---,0.00,VWS V14.01,2013-02-25 09:29:00,
2013-02-25 04:30:00,25.7,21.3,30.17,NW,321,0.0,0.0,83,0.00,,---,0.00,VWS V14.01,2013-02-25 09:30:00,
2013-02-25 04:31:00,25.7,21.3,30.17,NW,321,0.0,1.0,83,0.00,,---,0.00,VWS V14.01,2013-02-25 09:31:00,
2013-02-25 04:32:00,25.6,21.2,30.17,NW,321,1.0,1.0,83,0.00,,---,0.00,VWS V14.01,2013-02-25 09:32:00,
2013-02-25 04:33:00,25.7,21.3,30.17,NW,321,1.0,1.0,83,0.00,,---,0.00,VWS V14.01,2013-02-25 09:33:00,
2013-02-25 04:34:00,25.7,21.5,30.17,NW,321,1.0,2.0,84,0.00,,---,0.00,VWS V14.01,2013-02-25 09:34:00,
2013-02-25 04:35:00,25.7,21.5,30.17,NW,321,1.0,1.0,84,0.00,,---,0.00,VWS V14.01,2013-02-25 09:35:00,
2013-02-25 04:36:00,25.7,21.5,30.17,NW,321,1.0,2.0,84,0.00,,---,0.00,VWS V14.01,2013-02-25 09:36:00,
2013-02-25 04:37:00,25.7,21.5,30.17,NW,321,1.0,1.0,84,0.00,,---,0.00,VWS V14.01,2013-02-25 09:37:00,
2013-02-25 04:38:00,25.7,21.5,30.17,NW,321,1.0,1.0,84,0.00,,---,0.00,VWS V14.01,2013-02-25 09:38:00,
2013-02-25 04:39:00,25.7,21.5,30.18,NW,321,0.0,1.0,84,0.00,,---,0.00,VWS V14.01,2013-02-25 09:39:00,
2013-02-25 04:40:00,25.8,21.6,30.18,NW,321,0.0,1.0,84,0.00,,---,0.00,VWS V14.01,2013-02-25 09:40:00,
2013-02-25 04:41:00,25.8,21.6,30.18,NW,321,0.0,0.0,84,0.00,,---,0.00,VWS V14.01,2013-02-25 09:41:00,
2013-02-25 04:42:00,25.8,21.6,30.18,NW,321,0.0,2.0,84,0.00,,---,0.00,VWS V14.01,2013-02-25 09:42:00,
2013-02-25 04:43:00,25.8,21.6,30.18,NW,321,0.0,1.0,84,0.00,,---,0.00,VWS V14.01,2013-02-25 09:43:00,
2013-02-25 04:44:00,25.9,21.7,30.18,NW,321,1.0,1.0,84,0.00,,---,0.00,VWS V14.01,2013-02-25 09:44:00,
2013-02-25 04:45:00,25.9,21.7,30.18,NW,321,0.0,1.0,84,0.00,,---,0.00,VWS V14.01,2013-02-25 09:45:00,
2013-02-25 04:46:00,25.9,21.7,30.18,NW,321,0.0,0.0,84,0.00,,---,0.00,VWS V14.01,2013-02-25 09:46:00,
2013-02-25 04:47:00,26.0,21.8,30.18,NW,321,0.0,0.0,84,0.00,,---,0.00,VWS V14.01,2013-02-25 09:47:00,
2013-02-25 04:48:00,26.0,21.8,30.18,NW,321,0.0,0.0,84,0.00,,---,0.00,VWS V14.01,2013-02-25 09:48:00,
2013-02-25 04:49:00,26.0,21.8,30.18,NW,321,0.0,0.0,84,0.00,,---,0.00,VWS V14.01,2013-02-25 09:49:00,
2013-02-25 04:50:00,26.1,21.9,30.18,NW,321,0.0,0.0,84,0.00,,---,0.00,VWS V14.01,2013-02-25 09:50:00,
2013-02-25 04:51:00,26.1,21.9,30.18,NW,321,0.0,0.0,84,0.00,,---,0.00,VWS V14.01,2013-02-25 09:51:00,
2013-02-25 04:52:00,26.1,21.9,30.18,NW,321,0.0,0.0,84,0.00,,---,0.00,VWS V14.01,2013-02-25 09:52:00,
2013-02-25 04:53:00,26.1,21.6,30.18,NW,321,0.0,0.0,83,0.00,,---,0.00,VWS V14.01,2013-02-25 09:53:00,
2013-02-25 04:54:00,26.2,21.8,30.18,NW,321,0.0,0.0,83,0.00,,---,0.00,VWS V14.01,2013-02-25 09:54:00,
2013-02-25 04:55:00,26.2,21.8,30.18,NW,321,0.0,0.0,83,0.00,,---,0.00,VWS V14.01,2013-02-25 09:55:00,
2013-02-25 04:56:00,26.2,21.8,30.18,NW,321,0.0,0.0,83,0.00,,---,0.00,VWS V14.01,2013-02-25 09:56:00,
2013-02-25 04:57:00,26.2,21.8,30.18,NW,321,0.0,0.0,83,0.00,,---,0.00,VWS V14.01,2013-02-25 09:57:00,
2013-02-25 04:58:00,26.2,21.8,30.18,NW,321,0.0,0.0,83,0.00,,---,0.00,VWS V14.01,2013-02-25 09:58:00,
2013-02-25 04:59:00,26.2,21.8,30.18,NW,321,0.0,0.0,83,0.00,,---,0.00,VWS V14.01,2013-02-25 09:59:00,
2013-02-25 05:00:00,26.3,21.9,30.18,NW,321,0.0,0.0,83,0.00,,---,0.00,VWS V14.01,2013-02-25 10:00:00,
2013-02-25 05:01:00,26.3,21.9,30.18,NW,321,0.0,0.0,83,0.00,,---,0.00,VWS V14.01,2013-02-25 10:01:00,
2013-02-25 05:02:00,26.3,21.9,30.19,NW,321,0.0,0.0,83,0.00,,---,0.00,VWS V14.01,2013-02-25 10:02:00,
2013-02-25 05:03:00,26.4,22.0,30.18,NW,321,0.0,0.0,83,0.00,,---,0.00,VWS V14.01,2013-02-25 10:03:00,
2013-02-25 05:04:00,26.4,22.0,30.18,NW,321,0.0,0.0,83,0.00,,---,0.00,VWS V14.01,2013-02-25 10:04:00,
2013-02-25 05:05:00,26.4,22.0,30.18,NW,321,0.0,0.0,83,0.00,,---,0.00,VWS V14.01,2013-02-25 10:05:00,
2013-02-25 05:06:00,26.4,22.0,30.19,NW,321,0.0,0.0,83,0.00,,---,0.00,VWS V14.01,2013-02-25 10:06:00,
2013-02-25 05:07:00,26.5,21.8,30.19,NW,321,0.0,0.0,82,0.00,,---,0.00,VWS V14.01,2013-02-25 10:07:00,
2013-02-25 05:08:00,26.5,21.8,30.19,NW,321,0.0,0.0,82,0.00,,---,0.00,VWS V14.01,2013-02-25 10:08:00,
2013-02-25 05:09:00,26.5,21.8,30.19,NW,321,0.0,0.0,82,0.00,,---,0.00,VWS V14.01,2013-02-25 10:09:00,
2013-02-25 05:10:00,26.5,21.8,30.19,NW,321,0.0,0.0,82,0.00,,---,0.00,VWS V14.01,2013-02-25 10:10:00,
2013-02-25 05:11:00,26.5,21.8,30.19,NW,321,0.0,0.0,82,0.00,,---,0.00,VWS V14.01,2013-02-25 10:11:00,
2013-02-25 05:12:00,26.5,21.8,30.19,NW,321,0.0,0.0,82,0.00,,---,0.00,VWS V14.01,2013-02-25 10:12:00,
2013-02-25 05:13:00,26.5,22.0,30.19,NW,321,0.0,0.0,83,0.00,,---,0.00,VWS V14.01,2013-02-25 10:13:00,
2013-02-25 05:14:00,26.5,22.0,30.19,NW,321,0.0,0.0,83,0.00,,---,0.00,VWS V14.01,2013-02-25 10:14:00,
2013-02-25 05:15:00,26.5,22.0,30.19,NW,321,0.0,0.0,83,0.00,,---,0.00,VWS V14.01,2013-02-25 10:15:00,
2013-02-25 05:16:00,26.5,22.0,30.19,NW,321,0.0,0.0,83,0.00,,---,0.00,VWS V14.01,2013-02-25 10:16:00,
2013-02-25 05:17:00,26.5,22.0,30.20,NW,321,0.0,1.0,83,0.00,,---,0.00,VWS V14.01,2013-02-25 10:17:00,
2013-02-25 05:18:00,26.5,22.0,30.19,NW,321,0.0,0.0,83,0.00,,---,0.00,VWS V14.01,2013-02-25 10:18:00,
2013-02-25 05:19:00,26.5,22.0,30.19,NW,321,0.0,1.0,83,0.00,,---,0.00,VWS V14.01,2013-02-25 10:19:00,
2013-02-25 05:20:00,26.6,22.1,30.20,NW,321,0.0,1.0,83,0.00,,---,0.00,VWS V14.01,2013-02-25 10:20:00,
2013-02-25 05:21:00,26.6,22.1,30.20,NW,321,0.0,0.0,83,0.00,,---,0.00,VWS V14.01,2013-02-25 10:21:00,
2013-02-25 05:22:00,26.6,22.1,30.20,NW,321,0.0,0.0,83,0.00,,---,0.00,VWS V14.01,2013-02-25 10:22:00,
2013-02-25 05:23:00,26.6,22.1,30.20,NW,321,0.0,0.0,83,0.00,,---,0.00,VWS V14.01,2013-02-25 10:23:00,
2013-02-25 05:24:00,26.6,22.1,30.20,NW,321,0.0,0.0,83,0.00,,---,0.00,VWS V14.01,2013-02-25 10:24:00,
2013-02-25 05:25:00,26.6,22.1,30.20,NW,321,0.0,0.0,83,0.00,,---,0.00,VWS V14.01,2013-02-25 10:25:00,
2013-02-25 05:26:00,26.6,22.1,30.20,NW,321,0.0,0.0,83,0.00,,---,0.00,VWS V14.01,2013-02-25 10:26:00,
2013-02-25 05:27:00,26.6,22.1,30.20,NW,321,1.0,2.0,83,0.00,,---,0.00,VWS V14.01,2013-02-25 10:27:00,
2013-02-25 05:28:00,26.6,22.1,30.20,NW,321,0.0,1.0,83,0.00,,---,0.00,VWS V14.01,2013-02-25 10:28:00,
2013-02-25 05:29:00,26.6,22.1,30.20,NW,321,0.0,1.0,83,0.00,,---,0.00,VWS V14.01,2013-02-25 10:29:00,
2013-02-25 05:30:00,26.6,22.1,30.20,NW,321,1.0,1.0,83,0.00,,---,0.00,VWS V14.01,2013-02-25 10:30:00,
2013-02-25 05:31:00,26.6,22.1,30.20,NW,321,0.0,1.0,83,0.00,,---,0.00,VWS V14.01,2013-02-25 10:31:00,
2013-02-25 05:32:00,26.6,22.1,30.20,NW,321,0.0,0.0,83,0.00,,---,0.00,VWS V14.01,2013-02-25 10:32:00,
2013-02-25 05:33:00,26.6,22.1,30.20,NW,321,0.0,0.0,83,0.00,,---,0.00,VWS V14.01,2013-02-25 10:33:00,
2013-02-25 05:34:00,26.6,22.1,30.20,NW,321,0.0,0.0,83,0.00,,---,0.00,VWS V14.01,2013-02-25 10:34:00,
2013-02-25 05:35:00,26.6,22.1,30.20,NW,321,0.0,0.0,83,0.00,,---,0.00,VWS V14.01,2013-02-25 10:35:00,
2013-02-25 05:36:00,26.6,22.1,30.20,NW,321,0.0,0.0,83,0.00,,---,0.00,VWS V14.01,2013-02-25 10:36:00,
2013-02-25 05:37:00,26.6,21.9,30.20,NW,321,0.0,0.0,82,0.00,,---,0.00,VWS V14.01,2013-02-25 10:37:00,
2013-02-25 05:38:00,26.6,21.9,30.21,NW,321,0.0,0.0,82,0.00,,---,0.00,VWS V14.01,2013-02-25 10:38:00,
2013-02-25 05:39:00,26.6,21.9,30.21,NW,321,0.0,1.0,82,0.00,,---,0.00,VWS V14.01,2013-02-25 10:39:00,
2013-02-25 05:40:00,26.6,21.9,30.21,NW,321,0.0,0.0,82,0.00,,---,0.00,VWS V14.01,2013-02-25 10:40:00,
2013-02-25 05:41:00,26.6,21.9,30.21,NW,321,0.0,0.0,82,0.00,,---,0.00,VWS V14.01,2013-02-25 10:41:00,
2013-02-25 05:42:00,26.6,21.9,30.21,NW,321,0.0,0.0,82,0.00,,---,0.00,VWS V14.01,2013-02-25 10:42:00,
2013-02-25 05:43:00,26.6,21.9,30.21,NW,321,2.0,2.0,82,0.00,,---,0.00,VWS V14.01,2013-02-25 10:43:00,
2013-02-25 05:44:00,26.6,21.9,30.21,NW,321,0.0,2.0,82,0.00,,---,0.00,VWS V14.01,2013-02-25 10:44:00,
2013-02-25 05:45:00,26.5,21.8,30.21,NW,321,1.0,2.0,82,0.00,,---,0.00,VWS V14.01,2013-02-25 10:45:00,
2013-02-25 05:46:00,26.5,21.8,30.21,NW,321,0.0,2.0,82,0.00,,---,0.00,VWS V14.01,2013-02-25 10:46:00,
2013-02-25 05:47:00,26.5,22.0,30.21,NW,321,2.0,3.0,83,0.00,,---,0.00,VWS V14.01,2013-02-25 10:47:00,
2013-02-25 05:48:00,26.5,22.0,30.21,NW,321,1.0,2.0,83,0.00,,---,0.00,VWS V14.01,2013-02-25 10:48:00,
2013-02-25 05:49:00,26.5,21.8,30.21,NW,321,1.0,1.0,82,0.00,,---,0.00,VWS V14.01,2013-02-25 10:49:00,
2013-02-25 05:50:00,26.4,22.0,30.21,NW,321,0.0,2.0,83,0.00,,---,0.00,VWS V14.01,2013-02-25 10:50:00,
2013-02-25 05:51:00,26.4,22.0,30.21,NW,321,0.0,1.0,83,0.00,,---,0.00,VWS V14.01,2013-02-25 10:51:00,
2013-02-25 05:52:00,26.4,22.0,30.21,NW,321,0.0,1.0,83,0.00,,---,0.00,VWS V14.01,2013-02-25 10:52:00,
2013-02-25 05:53:00,26.3,21.9,30.21,NW,321,0.0,0.0,83,0.00,,---,0.00,VWS V14.01,2013-02-25 10:53:00,
2013-02-25 05:54:00,26.3,21.9,30.21,NW,321,1.0,2.0,83,0.00,,---,0.00,VWS V14.01,2013-02-25 10:54:00,
2013-02-25 05:55:00,26.3,21.9,30.21,NW,321,0.0,2.0,83,0.00,,---,0.00,VWS V14.01,2013-02-25 10:55:00,
2013-02-25 05:56:00,26.3,21.9,30.21,NW,321,0.0,0.0,83,0.00,,---,0.00,VWS V14.01,2013-02-25 10:56:00,
2013-02-25 05:57:00,26.2,21.8,30.21,NW,321,0.0,0.0,83,0.00,,---,0.00,VWS V14.01,2013-02-25 10:57:00,
2013-02-25 05:58:00,26.2,21.8,30.21,NW,321,0.0,0.0,83,0.00,,---,0.00,VWS V14.01,2013-02-25 10:58:00,
2013-02-25 05:59:00,26.2,21.8,30.21,NW,321,0.0,0.0,83,0.00,,---,0.00,VWS V14.01,2013-02-25 10:59:00,
2013-02-25 06:01:00,26.2,21.8,30.21,NW,321,0.0,0.0,83,0.00,,---,0.00,VWS V14.01,2013-02-25 11:01:00,
2013-02-25 06:02:00,26.1,21.6,30.21,NNW,338,0.0,3.0,83,0.00,,---,0.00,VWS V14.01,2013-02-25 11:02:00,
2013-02-25 06:03:00,26.1,21.6,30.21,NNW,338,0.0,1.0,83,0.00,,---,0.00,VWS V14.01,2013-02-25 11:03:00,
2013-02-25 06:04:00,26.0,21.6,30.21,NNW,338,0.0,0.0,83,0.00,,---,0.00,VWS V14.01,2013-02-25 11:04:00,
2013-02-25 06:05:00,26.0,21.6,30.21,NNW,338,0.0,0.0,83,0.00,,---,0.00,VWS V14.01,2013-02-25 11:05:00,
2013-02-25 06:06:00,26.0,21.6,30.21,NNW,338,0.0,0.0,83,0.00,,---,0.00,VWS V14.01,2013-02-25 11:06:00,
2013-02-25 06:07:00,25.9,21.5,30.21,NNW,338,0.0,0.0,83,0.00,,---,0.00,VWS V14.01,2013-02-25 11:07:00,
2013-02-25 06:08:00,25.9,21.5,30.21,NNW,338,0.0,0.0,83,0.00,,---,0.00,VWS V14.01,2013-02-25 11:08:00,
2013-02-25 06:09:00,25.8,21.4,30.21,NNW,338,0.0,2.0,83,0.00,,---,0.00,VWS V14.01,2013-02-25 11:09:00,
2013-02-25 06:10:00,25.8,21.4,30.21,NNW,338,0.0,0.0,83,0.00,,---,0.00,VWS V14.01,2013-02-25 11:10:00,
2013-02-25 06:11:00,25.8,21.4,30.21,NNW,338,0.0,0.0,83,0.00,,---,0.00,VWS V14.01,2013-02-25 11:11:00,
2013-02-25 06:12:00,25.7,21.3,30.21,NNW,338,0.0,1.0,83,0.00,,---,0.00,VWS V14.01,2013-02-25 11:12:00,
2013-02-25 06:13:00,25.6,21.2,30.21,NNW,338,0.0,0.0,83,0.00,,---,0.00,VWS V14.01,2013-02-25 11:13:00,
2013-02-25 06:14:00,25.6,21.2,30.21,NNW,338,0.0,1.0,83,0.00,,---,0.00,VWS V14.01,2013-02-25 11:14:00,
2013-02-25 06:15:00,25.5,21.1,30.20,NNW,338,0.0,2.0,83,0.00,,---,0.00,VWS V14.01,2013-02-25 11:15:00,
2013-02-25 06:16:00,25.5,21.1,30.20,NNW,338,0.0,0.0,83,0.00,,---,0.00,VWS V14.01,2013-02-25 11:16:00,
2013-02-25 06:17:00,25.4,21.2,30.20,NNW,338,0.0,0.0,84,0.00,,---,0.00,VWS V14.01,2013-02-25 11:17:00,
2013-02-25 06:18:00,25.4,21.2,30.20,NNW,338,0.0,0.0,84,0.00,,---,0.00,VWS V14.01,2013-02-25 11:18:00,
2013-02-25 06:19:00,25.3,21.1,30.20,NNW,338,0.0,0.0,84,0.00,,---,0.00,VWS V14.01,2013-02-25 11:19:00,
2013-02-25 06:20:00,25.3,21.1,30.20,NNW,338,0.0,0.0,84,0.00,,---,0.00,VWS V14.01,2013-02-25 11:20:00,
2013-02-25 06:21:00,25.3,21.1,30.20,NNW,338,0.0,0.0,84,0.00,,---,0.00,VWS V14.01,2013-02-25 11:21:00,
2013-02-25 06:22:00,25.2,21.0,30.20,NNW,338,0.0,0.0,84,0.00,,---,0.00,VWS V14.01,2013-02-25 11:22:00,
2013-02-25 06:23:00,25.2,21.0,30.20,NNW,338,0.0,0.0,84,0.00,,---,0.00,VWS V14.01,2013-02-25 11:23:00,
2013-02-25 06:24:00,25.1,21.0,30.20,NNW,338,1.0,1.0,84,0.00,,---,0.00,VWS V14.01,2013-02-25 11:24:00,
2013-02-25 06:25:00,25.0,20.9,30.20,NNW,338,2.0,2.0,84,0.00,,---,0.00,VWS V14.01,2013-02-25 11:25:00,
2013-02-25 06:26:00,25.0,20.9,30.21,NNW,338,1.0,2.0,84,0.00,,---,0.00,VWS V14.01,2013-02-25 11:26:00,
2013-02-25 06:27:00,24.9,20.8,30.21,NNW,338,1.0,2.0,84,0.00,,---,0.00,VWS V14.01,2013-02-25 11:27:00,
2013-02-25 06:28:00,24.9,20.8,30.21,NNW,338,2.0,2.0,84,0.00,,---,0.00,VWS V14.01,2013-02-25 11:28:00,
2013-02-25 06:29:00,24.8,20.7,30.21,North,360,2.0,2.0,84,0.00,,---,0.00,VWS V14.01,2013-02-25 11:29:00,
2013-02-25 06:30:00,24.7,20.8,30.21,NNE,19,2.0,3.0,85,0.00,,---,0.00,VWS V14.01,2013-02-25 11:30:00,
2013-02-25 06:31:00,24.7,20.8,30.21,NNE,19,1.0,2.0,85,0.00,,---,0.00,VWS V14.01,2013-02-25 11:31:00,
2013-02-25 06:32:00,24.6,20.7,30.21,NNE,19,1.0,1.0,85,0.00,,---,0.00,VWS V14.01,2013-02-25 11:32:00,
2013-02-25 06:33:00,24.6,20.7,30.21,NNE,19,1.0,2.0,85,0.00,,---,0.00,VWS V14.01,2013-02-25 11:33:00,
2013-02-25 06:34:00,24.5,20.6,30.21,NNE,19,2.0,2.0,85,0.00,,---,0.00,VWS V14.01,2013-02-25 11:34:00,
2013-02-25 06:35:00,24.5,20.6,30.21,NNE,19,0.0,2.0,85,0.00,,---,0.00,VWS V14.01,2013-02-25 11:35:00,
2013-02-25 06:36:00,24.5,20.6,30.21,NNE,19,1.0,1.0,85,0.00,,---,0.00,VWS V14.01,2013-02-25 11:36:00,
2013-02-25 06:37:00,24.4,20.5,30.21,NNE,20,0.0,1.0,85,0.00,,---,0.00,VWS V14.01,2013-02-25 11:37:00,
2013-02-25 06:38:00,24.4,20.5,30.21,NNE,20,1.0,1.0,85,0.00,,---,0.00,VWS V14.01,2013-02-25 11:38:00,
2013-02-25 06:39:00,24.4,20.5,30.21,NNE,20,0.0,2.0,85,0.00,,---,0.00,VWS V14.01,2013-02-25 11:39:00,
2013-02-25 06:40:00,24.4,20.5,30.21,NNE,20,1.0,1.0,85,0.00,,---,0.00,VWS V14.01,2013-02-25 11:40:00,
2013-02-25 06:41:00,24.4,20.5,30.21,NNE,20,1.0,1.0,85,0.00,,---,0.00,VWS V14.01,2013-02-25 11:41:00,
2013-02-25 06:42:00,24.4,20.8,30.21,NNE,20,0.0,0.0,86,0.00,,---,0.00,VWS V14.01,2013-02-25 11:42:00,
2013-02-25 06:43:00,24.3,20.7,30.21,NNE,20,1.0,1.0,86,0.00,,---,0.00,VWS V14.01,2013-02-25 11:43:00,
2013-02-25 06:44:00,24.3,20.7,30.21,NNE,20,1.0,2.0,86,0.00,,---,0.00,VWS V14.01,2013-02-25 11:44:00,
2013-02-25 06:45:00,24.3,20.7,30.21,NNE,20,2.0,2.0,86,0.00,,---,0.00,VWS V14.01,2013-02-25 11:45:00,
2013-02-25 06:46:00,24.3,20.7,30.21,NNE,20,2.0,2.0,86,0.00,,---,0.00,VWS V14.01,2013-02-25 11:46:00,
2013-02-25 06:47:00,24.2,20.6,30.21,NNE,20,2.0,2.0,86,0.00,,---,0.00,VWS V14.01,2013-02-25 11:47:00,
2013-02-25 06:48:00,24.2,20.4,30.22,NNE,20,1.0,2.0,85,0.00,,---,0.00,VWS V14.01,2013-02-25 11:48:00,
2013-02-25 06:49:00,24.1,20.5,30.22,NNE,20,2.0,2.0,86,0.00,,---,0.00,VWS V14.01,2013-02-25 11:49:00,
2013-02-25 06:50:00,24.1,20.5,30.22,NNE,20,1.0,2.0,86,0.00,,---,0.00,VWS V14.01,2013-02-25 11:50:00,
2013-02-25 06:51:00,24.1,20.5,30.22,NNE,20,0.0,1.0,86,0.00,,---,0.00,VWS V14.01,2013-02-25 11:51:00,
2013-02-25 06:52:00,24.0,20.4,30.22,NNE,20,0.0,0.0,86,0.00,,---,0.00,VWS V14.01,2013-02-25 11:52:00,
2013-02-25 06:53:00,24.0,20.4,30.21,NNE,20,0.0,0.0,86,0.00,,---,0.00,VWS V14.01,2013-02-25 11:53:00,
2013-02-25 06:54:00,24.1,20.5,30.22,NNE,20,0.0,0.0,86,0.00,,---,0.00,VWS V14.01,2013-02-25 11:54:00,
2013-02-25 06:55:00,24.1,20.5,30.21,NNE,20,0.0,0.0,86,0.00,,---,0.00,VWS V14.01,2013-02-25 11:55:00,
2013-02-25 06:56:00,24.1,20.5,30.21,NNE,20,0.0,0.0,86,0.00,,---,0.00,VWS V14.01,2013-02-25 11:56:00,
2013-02-25 06:57:00,24.0,20.4,30.21,NNE,20,0.0,0.0,86,0.00,,---,0.00,VWS V14.01,2013-02-25 11:57:00,
2013-02-25 06:58:00,24.0,20.4,30.22,NNE,20,0.0,0.0,86,0.00,,---,0.00,VWS V14.01,2013-02-25 11:58:00,
2013-02-25 06:59:00,24.0,20.4,30.21,NNE,20,0.0,0.0,86,0.00,,---,0.00,VWS V14.01,2013-02-25 11:59:00,
2013-02-25 07:00:00,24.0,20.4,30.21,NNE,20,0.0,0.0,86,0.00,,---,0.00,VWS V14.01,2013-02-25 12:00:00,
2013-02-25 07:01:00,24.0,20.4,30.22,NNE,20,0.0,0.0,86,0.00,,---,0.00,VWS V14.01,2013-02-25 12:01:00,
2013-02-25 07:02:00,24.0,20.4,30.22,NNE,20,0.0,0.0,86,0.00,,---,0.00,VWS V14.01,2013-02-25 12:02:00,
2013-02-25 07:03:00,23.9,20.3,30.22,NNE,20,0.0,0.0,86,0.00,,---,0.00,VWS V14.01,2013-02-25 12:03:00,
2013-02-25 07:04:00,23.9,20.3,30.22,NNE,20,0.0,1.0,86,0.00,,---,0.00,VWS V14.01,2013-02-25 12:04:00,
2013-02-25 07:05:00,23.9,20.3,30.22,East,82,1.0,2.0,86,0.00,,---,0.00,VWS V14.01,2013-02-25 12:05:00,
2013-02-25 07:06:00,23.9,20.3,30.22,ESE,118,3.0,3.0,86,0.00,,---,0.00,VWS V14.01,2013-02-25 12:06:00,
2013-02-25 07:07:00,23.9,20.6,30.22,ESE,121,2.0,3.0,87,0.00,,---,0.00,VWS V14.01,2013-02-25 12:07:00,
2013-02-25 07:08:00,23.8,20.5,30.22,ESE,121,2.0,3.0,87,0.00,,---,0.00,VWS V14.01,2013-02-25 12:08:00,
2013-02-25 07:09:00,23.8,20.5,30.22,ESE,121,2.0,2.0,87,0.00,,---,0.00,VWS V14.01,2013-02-25 12:09:00,
2013-02-25 07:10:00,23.8,20.5,30.22,ESE,121,1.0,2.0,87,0.00,,---,0.00,VWS V14.01,2013-02-25 12:10:00,
2013-02-25 07:11:00,23.8,20.5,30.22,ESE,121,1.0,1.0,87,0.00,,---,0.00,VWS V14.01,2013-02-25 12:11:00,
2013-02-25 07:12:00,23.8,20.5,30.22,ESE,121,1.0,2.0,87,0.00,,---,0.00,VWS V14.01,2013-02-25 12:12:00,
2013-02-25 07:13:00,23.8,20.5,30.22,ESE,121,3.0,3.0,87,0.00,,---,0.00,VWS V14.01,2013-02-25 12:13:00,
2013-02-25 07:14:00,23.8,20.5,30.22,ESE,121,2.0,3.0,87,0.00,,---,0.00,VWS V14.01,2013-02-25 12:14:00,
2013-02-25 07:15:00,23.8,20.5,30.22,ESE,121,1.0,2.0,87,0.00,,---,0.00,VWS V14.01,2013-02-25 12:15:00,
2013-02-25 07:16:00,23.8,20.5,30.22,ESE,121,1.0,2.0,87,0.00,,---,0.00,VWS V14.01,2013-02-25 12:16:00,
2013-02-25 07:17:00,23.8,20.8,30.22,ESE,121,1.0,2.0,88,0.00,,---,0.00,VWS V14.01,2013-02-25 12:17:00,
2013-02-25 07:18:00,23.8,20.5,30.22,ESE,121,1.0,2.0,87,0.00,,---,0.00,VWS V14.01,2013-02-25 12:18:00,
2013-02-25 07:19:00,23.8,20.5,30.22,ESE,121,2.0,2.0,87,0.00,,---,0.00,VWS V14.01,2013-02-25 12:19:00,
2013-02-25 07:20:00,23.8,20.8,30.22,ESE,121,1.0,2.0,88,0.00,,---,0.00,VWS V14.01,2013-02-25 12:20:00,
2013-02-25 07:21:00,23.9,20.9,30.22,ESE,121,1.0,2.0,88,0.00,,---,0.00,VWS V14.01,2013-02-25 12:21:00,
2013-02-25 07:22:00,23.9,20.9,30.22,ESE,121,0.0,2.0,88,0.00,,---,0.00,VWS V14.01,2013-02-25 12:22:00,
2013-02-25 07:23:00,23.9,20.9,30.23,ESE,121,0.0,1.0,88,0.00,,---,0.00,VWS V14.01,2013-02-25 12:23:00,
2013-02-25 07:24:00,24.0,21.0,30.23,ESE,121,0.0,1.0,88,0.00,,---,0.00,VWS V14.01,2013-02-25 12:24:00,
2013-02-25 07:25:00,24.0,21.0,30.23,ESE,121,0.0,0.0,88,0.00,,---,0.00,VWS V14.01,2013-02-25 12:25:00,
2013-02-25 07:26:00,24.0,21.0,30.23,ESE,121,0.0,0.0,88,0.00,,---,0.00,VWS V14.01,2013-02-25 12:26:00,
2013-02-25 07:27:00,24.1,21.1,30.23,ESE,121,0.0,0.0,88,0.00,,---,0.00,VWS V14.01,2013-02-25 12:27:00,
2013-02-25 07:28:00,24.1,21.1,30.23,ESE,121,0.0,1.0,88,0.00,,---,0.00,VWS V14.01,2013-02-25 12:28:00,
2013-02-25 07:29:00,24.2,21.2,30.23,ESE,121,0.0,0.0,88,0.00,,---,0.00,VWS V14.01,2013-02-25 12:29:00,
2013-02-25 07:30:00,24.3,21.3,30.23,ESE,121,0.0,0.0,88,0.00,,---,0.00,VWS V14.01,2013-02-25 12:30:00,
2013-02-25 07:31:00,24.4,21.4,30.23,ESE,121,0.0,0.0,88,0.00,,---,0.00,VWS V14.01,2013-02-25 12:31:00,
2013-02-25 07:32:00,24.4,21.4,30.23,ESE,121,0.0,0.0,88,0.00,,---,0.00,VWS V14.01,2013-02-25 12:32:00,
2013-02-25 07:33:00,24.5,21.5,30.23,ESE,121,0.0,1.0,88,0.00,,---,0.00,VWS V14.01,2013-02-25 12:33:00,
2013-02-25 07:34:00,24.5,21.5,30.23,ESE,121,0.0,0.0,88,0.00,,---,0.00,VWS V14.01,2013-02-25 12:34:00,
2013-02-25 07:35:00,24.6,21.6,30.23,ESE,121,0.0,0.0,88,0.00,,---,0.00,VWS V14.01,2013-02-25 12:35:00,
2013-02-25 07:36:00,24.6,21.6,30.23,ESE,121,0.0,0.0,88,0.00,,---,0.00,VWS V14.01,2013-02-25 12:36:00,
2013-02-25 07:37:00,24.6,21.6,30.23,ESE,121,0.0,0.0,88,0.00,,---,0.00,VWS V14.01,2013-02-25 12:37:00,
2013-02-25 07:38:00,24.7,21.7,30.23,ESE,121,0.0,0.0,88,0.00,,---,0.00,VWS V14.01,2013-02-25 12:38:00,
2013-02-25 07:39:00,24.7,21.7,30.24,ESE,121,0.0,0.0,88,0.00,,---,0.00,VWS V14.01,2013-02-25 12:39:00,
2013-02-25 07:40:00,24.7,21.7,30.24,ESE,121,0.0,0.0,88,0.00,,---,0.00,VWS V14.01,2013-02-25 12:40:00,
2013-02-25 07:41:00,24.7,21.7,30.24,ESE,121,0.0,0.0,88,0.00,,---,0.00,VWS V14.01,2013-02-25 12:41:00,
2013-02-25 07:42:00,24.7,21.7,30.24,ESE,121,0.0,0.0,88,0.00,,---,0.00,VWS V14.01,2013-02-25 12:42:00,
2013-02-25 07:43:00,24.7,21.7,30.24,ESE,121,0.0,0.0,88,0.00,,---,0.00,VWS V14.01,2013-02-25 12:43:00,
2013-02-25 07:44:00,24.7,21.7,30.24,ESE,121,0.0,0.0,88,0.00,,---,0.00,VWS V14.01,2013-02-25 12:44:00,
2013-02-25 07:45:00,24.8,21.8,30.24,ESE,121,0.0,0.0,88,0.00,,---,0.00,VWS V14.01,2013-02-25 12:45:00,
2013-02-25 07:46:00,24.8,21.8,30.24,ESE,121,0.0,0.0,88,0.00,,---,0.00,VWS V14.01,2013-02-25 12:46:00,
2013-02-25 07:47:00,24.8,21.8,30.24,ESE,121,0.0,0.0,88,0.00,,---,0.00,VWS V14.01,2013-02-25 12:47:00,
2013-02-25 07:48:00,24.8,21.8,30.24,ESE,121,0.0,0.0,88,0.00,,---,0.00,VWS V14.01,2013-02-25 12:48:00,
2013-02-25 07:49:00,24.8,21.8,30.24,ESE,121,0.0,0.0,88,0.00,,---,0.00,VWS V14.01,2013-02-25 12:49:00,
2013-02-25 07:50:00,24.9,21.9,30.24,ESE,121,0.0,0.0,88,0.00,,---,0.00,VWS V14.01,2013-02-25 12:50:00,
2013-02-25 07:51:00,24.9,21.9,30.24,ESE,121,0.0,0.0,88,0.00,,---,0.00,VWS V14.01,2013-02-25 12:51:00,
2013-02-25 07:52:00,24.9,21.9,30.24,ESE,121,0.0,0.0,88,0.00,,---,0.00,VWS V14.01,2013-02-25 12:52:00,
2013-02-25 07:53:00,24.9,21.9,30.24,ESE,121,0.0,0.0,88,0.00,,---,0.00,VWS V14.01,2013-02-25 12:53:00,
2013-02-25 07:54:00,25.0,22.0,30.24,ESE,121,0.0,0.0,88,0.00,,---,0.00,VWS V14.01,2013-02-25 12:54:00,
2013-02-25 07:55:00,25.0,22.0,30.24,ESE,121,0.0,0.0,88,0.00,,---,0.00,VWS V14.01,2013-02-25 12:55:00,
2013-02-25 07:56:00,25.0,22.0,30.24,ESE,121,0.0,0.0,88,0.00,,---,0.00,VWS V14.01,2013-02-25 12:56:00,
2013-02-25 07:57:00,25.1,22.0,30.24,ESE,121,0.0,0.0,88,0.00,,---,0.00,VWS V14.01,2013-02-25 12:57:00,
2013-02-25 07:58:00,25.1,22.0,30.24,ESE,121,0.0,0.0,88,0.00,,---,0.00,VWS V14.01,2013-02-25 12:58:00,
2013-02-25 07:59:00,25.2,22.1,30.24,ESE,121,0.0,0.0,88,0.00,,---,0.00,VWS V14.01,2013-02-25 12:59:00,
2013-02-25 08:00:00,25.2,22.1,30.25,ESE,121,0.0,0.0,88,0.00,,---,0.00,VWS V14.01,2013-02-25 13:00:00,
2013-02-25 08:01:00,25.2,22.1,30.25,ESE,121,0.0,0.0,88,0.00,,---,0.00,VWS V14.01,2013-02-25 13:01:00,
2013-02-25 08:02:00,25.3,22.2,30.25,ESE,121,0.0,2.0,88,0.00,,---,0.00,VWS V14.01,2013-02-25 13:02:00,
2013-02-25 08:03:00,25.3,22.2,30.25,ESE,121,0.0,0.0,88,0.00,,---,0.00,VWS V14.01,2013-02-25 13:03:00,
2013-02-25 08:04:00,25.4,22.6,30.25,ESE,121,0.0,0.0,89,0.00,,---,0.00,VWS V14.01,2013-02-25 13:04:00,
2013-02-25 08:05:00,25.5,22.7,30.25,ESE,121,0.0,1.0,89,0.00,,---,0.00,VWS V14.01,2013-02-25 13:05:00,
2013-02-25 08:06:00,25.5,22.7,30.25,ESE,121,0.0,1.0,89,0.00,,---,0.00,VWS V14.01,2013-02-25 13:06:00,
2013-02-25 08:07:00,25.6,22.8,30.25,SW,234,0.0,3.0,89,0.00,,---,0.00,VWS V14.01,2013-02-25 13:07:00,
2013-02-25 08:08:00,25.7,22.9,30.25,West,267,2.0,2.0,89,0.00,,---,0.00,VWS V14.01,2013-02-25 13:08:00,
2013-02-25 08:09:00,25.7,22.9,30.25,West,268,1.0,3.0,89,0.00,,---,0.00,VWS V14.01,2013-02-25 13:09:00,
2013-02-25 08:10:00,25.8,22.7,30.25,West,269,2.0,3.0,88,0.00,,---,0.00,VWS V14.01,2013-02-25 13:10:00,
2013-02-25 08:11:00,25.8,22.7,30.25,West,269,1.0,2.0,88,0.00,,---,0.00,VWS V14.01,2013-02-25 13:11:00,
2013-02-25 08:12:00,25.9,22.8,30.25,West,269,0.0,1.0,88,0.00,,---,0.00,VWS V14.01,2013-02-25 13:12:00,
2013-02-25 08:13:00,26.0,22.9,30.25,West,269,0.0,1.0,88,0.00,,---,0.00,VWS V14.01,2013-02-25 13:13:00,
2013-02-25 08:14:00,26.0,22.9,30.25,West,269,0.0,1.0,88,0.00,,---,0.00,VWS V14.01,2013-02-25 13:14:00,
2013-02-25 08:15:00,26.1,22.8,30.25,West,269,0.0,1.0,87,0.00,,---,0.00,VWS V14.01,2013-02-25 13:15:00,
2013-02-25 08:16:00,26.1,22.8,30.25,West,269,0.0,1.0,87,0.00,,---,0.00,VWS V14.01,2013-02-25 13:16:00,
2013-02-25 08:17:00,26.1,22.8,30.25,West,269,0.0,0.0,87,0.00,,---,0.00,VWS V14.01,2013-02-25 13:17:00,
2013-02-25 08:18:00,26.1,22.5,30.25,West,269,0.0,0.0,86,0.00,,---,0.00,VWS V14.01,2013-02-25 13:18:00,
2013-02-25 08:19:00,26.1,22.5,30.25,West,269,0.0,0.0,86,0.00,,---,0.00,VWS V14.01,2013-02-25 13:19:00,
2013-02-25 08:20:00,26.2,22.6,30.25,West,269,0.0,0.0,86,0.00,,---,0.00,VWS V14.01,2013-02-25 13:20:00,
2013-02-25 08:21:00,26.2,22.9,30.25,West,269,0.0,0.0,87,0.00,,---,0.00,VWS V14.01,2013-02-25 13:21:00,
2013-02-25 08:22:00,26.3,23.0,30.24,West,269,0.0,0.0,87,0.00,,---,0.00,VWS V14.01,2013-02-25 13:22:00,
2013-02-25 08:23:00,26.4,23.1,30.24,West,269,0.0,0.0,87,0.00,,---,0.00,VWS V14.01,2013-02-25 13:23:00,
2013-02-25 08:24:00,26.6,23.5,30.24,West,269,0.0,0.0,88,0.00,,---,0.00,VWS V14.01,2013-02-25 13:24:00,
2013-02-25 08:25:00,26.7,23.6,30.24,West,269,0.0,0.0,88,0.00,,---,0.00,VWS V14.01,2013-02-25 13:25:00,
2013-02-25 08:26:00,26.9,23.8,30.24,West,269,0.0,0.0,88,0.00,,---,0.00,VWS V14.01,2013-02-25 13:26:00,
2013-02-25 08:27:00,27.2,24.1,30.24,West,269,2.0,2.0,88,0.00,,---,0.00,VWS V14.01,2013-02-25 13:27:00,
2013-02-25 08:28:00,27.3,24.0,30.24,West,269,1.0,2.0,87,0.00,,---,0.00,VWS V14.01,2013-02-25 13:28:00,
2013-02-25 08:29:00,27.4,24.0,30.24,West,269,1.0,2.0,87,0.00,,---,0.00,VWS V14.01,2013-02-25 13:29:00,
2013-02-25 08:30:00,27.6,24.0,30.24,West,269,0.0,1.0,86,0.00,,---,0.00,VWS V14.01,2013-02-25 13:30:00,
2013-02-25 08:31:00,27.6,24.0,30.24,West,269,0.0,0.0,86,0.00,,---,0.00,VWS V14.01,2013-02-25 13:31:00,
2013-02-25 08:32:00,27.8,23.9,30.24,West,269,0.0,0.0,85,0.00,,---,0.00,VWS V14.01,2013-02-25 13:32:00,
2013-02-25 08:33:00,27.9,24.0,30.24,West,269,0.0,0.0,85,0.00,,---,0.00,VWS V14.01,2013-02-25 13:33:00,
2013-02-25 08:34:00,28.0,24.1,30.24,West,269,0.0,0.0,85,0.00,,---,0.00,VWS V14.01,2013-02-25 13:34:00,
2013-02-25 08:35:00,28.1,24.2,30.24,West,269,0.0,0.0,85,0.00,,---,0.00,VWS V14.01,2013-02-25 13:35:00,
2013-02-25 08:36:00,28.1,24.2,30.24,West,269,0.0,0.0,85,0.00,,---,0.00,VWS V14.01,2013-02-25 13:36:00,
2013-02-25 08:37:00,28.3,24.1,30.24,West,269,0.0,0.0,84,0.00,,---,0.00,VWS V14.01,2013-02-25 13:37:00,
2013-02-25 08:38:00,28.3,24.1,30.24,West,269,0.0,0.0,84,0.00,,---,0.00,VWS V14.01,2013-02-25 13:38:00,
2013-02-25 08:39:00,28.3,23.8,30.24,West,269,0.0,0.0,83,0.00,,---,0.00,VWS V14.01,2013-02-25 13:39:00,
2013-02-25 08:40:00,28.3,23.5,30.24,West,269,0.0,0.0,82,0.00,,---,0.00,VWS V14.01,2013-02-25 13:40:00,
2013-02-25 08:41:00,28.3,23.5,30.24,West,269,0.0,0.0,82,0.00,,---,0.00,VWS V14.01,2013-02-25 13:41:00,
2013-02-25 08:42:00,28.3,23.5,30.24,West,269,0.0,0.0,82,0.00,,---,0.00,VWS V14.01,2013-02-25 13:42:00,
2013-02-25 08:43:00,28.3,23.5,30.24,SW,234,1.0,3.0,82,0.00,,---,0.00,VWS V14.01,2013-02-25 13:43:00,
2013-02-25 08:44:00,28.3,23.5,30.25,SW,235,2.0,2.0,82,0.00,,---,0.00,VWS V14.01,2013-02-25 13:44:00,
2013-02-25 08:45:00,28.3,23.5,30.25,SW,235,0.0,2.0,82,0.00,,---,0.00,VWS V14.01,2013-02-25 13:45:00,
2013-02-25 08:46:00,28.3,23.8,30.25,SW,234,1.0,3.0,83,0.00,,---,0.00,VWS V14.01,2013-02-25 13:46:00,
2013-02-25 08:47:00,28.4,23.9,30.25,SW,235,1.0,2.0,83,0.00,,---,0.00,VWS V14.01,2013-02-25 13:47:00,
2013-02-25 08:48:00,28.5,24.0,30.25,SW,235,0.0,1.0,83,0.00,,---,0.00,VWS V14.01,2013-02-25 13:48:00,
2013-02-25 08:49:00,28.5,24.0,30.25,SW,235,0.0,0.0,83,0.00,,---,0.00,VWS V14.01,2013-02-25 13:49:00,
2013-02-25 08:50:00,28.6,24.1,30.24,SW,235,0.0,0.0,83,0.00,,---,0.00,VWS V14.01,2013-02-25 13:50:00,
2013-02-25 08:51:00,28.7,24.2,30.24,SW,235,0.0,1.0,83,0.00,,---,0.00,VWS V14.01,2013-02-25 13:51:00,
2013-02-25 08:52:00,28.7,23.9,30.24,SW,235,2.0,2.0,82,0.00,,---,0.00,VWS V14.01,2013-02-25 13:52:00,
2013-02-25 08:53:00,28.7,23.9,30.24,SW,235,0.0,2.0,82,0.00,,---,0.00,VWS V14.01,2013-02-25 13:53:00,
2013-02-25 08:54:00,28.8,24.0,30.24,SW,235,0.0,1.0,82,0.00,,---,0.00,VWS V14.01,2013-02-25 13:54:00,
2013-02-25 08:55:00,28.8,23.7,30.24,SW,235,0.0,1.0,81,0.00,,---,0.00,VWS V14.01,2013-02-25 13:55:00,
2013-02-25 08:56:00,28.8,23.7,30.24,SW,234,0.0,0.0,81,0.00,,---,0.00,VWS V14.01,2013-02-25 13:56:00,
2013-02-25 08:57:00,28.9,23.8,30.24,SW,235,1.0,1.0,81,0.00,,---,0.00,VWS V14.01,2013-02-25 13:57:00,
2013-02-25 08:58:00,29.0,23.9,30.25,SW,234,2.0,3.0,81,0.00,,---,0.00,VWS V14.01,2013-02-25 13:58:00,
2013-02-25 08:59:00,29.2,24.4,30.24,WNW,288,1.0,3.0,82,0.00,,---,0.00,VWS V14.01,2013-02-25 13:59:00,
2013-02-25 09:00:00,29.3,24.5,30.24,WNW,288,3.0,4.0,82,0.00,,---,0.00,VWS V14.01,2013-02-25 14:00:00,
2013-02-25 09:01:00,29.4,24.3,30.25,WNW,288,2.0,3.0,81,0.00,,---,0.00,VWS V14.01,2013-02-25 14:01:00,
2013-02-25 09:02:00,29.5,24.4,30.25,WNW,288,0.0,2.0,81,0.00,,---,0.00,VWS V14.01,2013-02-25 14:02:00,
2013-02-25 09:03:00,29.6,24.2,30.25,WNW,288,1.0,2.0,80,0.00,,---,0.00,VWS V14.01,2013-02-25 14:03:00,
2013-02-25 09:04:00,29.7,24.3,30.25,WNW,288,0.0,1.0,80,0.00,,---,0.00,VWS V14.01,2013-02-25 14:04:00,
2013-02-25 09:05:00,29.8,24.1,30.25,WNW,288,0.0,1.0,79,0.00,,---,0.00,VWS V14.01,2013-02-25 14:05:00,
2013-02-25 09:06:00,29.8,24.1,30.25,WNW,288,0.0,0.0,79,0.00,,---,0.00,VWS V14.01,2013-02-25 14:06:00,
2013-02-25 09:07:00,30.0,24.0,30.24,WNW,288,0.0,0.0,78,0.00,,---,0.00,VWS V14.01,2013-02-25 14:07:00,
2013-02-25 09:08:00,30.1,24.1,30.24,WNW,288,0.0,0.0,78,0.00,,---,0.00,VWS V14.01,2013-02-25 14:08:00,
2013-02-25 09:09:00,30.2,23.9,30.24,WNW,288,0.0,0.0,77,0.00,,---,0.00,VWS V14.01,2013-02-25 14:09:00,
2013-02-25 09:10:00,30.3,24.0,30.24,WNW,288,0.0,0.0,77,0.00,,---,0.00,VWS V14.01,2013-02-25 14:10:00,
2013-02-25 09:11:00,30.3,23.7,30.24,WNW,288,0.0,0.0,76,0.00,,---,0.00,VWS V14.01,2013-02-25 14:11:00,
2013-02-25 09:12:00,30.5,23.9,30.24,WNW,288,0.0,0.0,76,0.00,,---,0.00,VWS V14.01,2013-02-25 14:12:00,
2013-02-25 09:13:00,30.6,24.3,30.24,WNW,288,0.0,1.0,77,0.00,,---,0.00,VWS V14.01,2013-02-25 14:13:00,
2013-02-25 09:14:00,30.8,24.5,30.24,WNW,288,0.0,1.0,77,0.00,,---,0.00,VWS V14.01,2013-02-25 14:14:00,
2013-02-25 09:15:00,31.0,24.6,30.24,WNW,288,1.0,2.0,77,0.00,,---,0.00,VWS V14.01,2013-02-25 14:15:00,
2013-02-25 09:16:00,31.2,24.8,30.24,WNW,288,0.0,2.0,77,0.00,,---,0.00,VWS V14.01,2013-02-25 14:16:00,
2013-02-25 09:17:00,31.5,24.5,30.25,WNW,288,1.0,1.0,75,0.00,,---,0.00,VWS V14.01,2013-02-25 14:17:00,
2013-02-25 09:18:00,31.7,24.7,30.25,WNW,288,2.0,2.0,75,0.00,,---,0.00,VWS V14.01,2013-02-25 14:18:00,
2013-02-25 09:19:00,32.0,25.0,30.25,WNW,288,1.0,3.0,75,0.00,,---,0.00,VWS V14.01,2013-02-25 14:19:00,
2013-02-25 09:20:00,32.3,25.3,30.25,WNW,288,0.0,2.0,75,0.00,,---,0.00,VWS V14.01,2013-02-25 14:20:00,
2013-02-25 09:21:00,32.4,25.4,30.25,WNW,288,0.0,1.0,75,0.00,,---,0.00,VWS V14.01,2013-02-25 14:21:00,
2013-02-25 09:22:00,32.7,25.3,30.25,WNW,288,1.0,2.0,74,0.00,,---,0.00,VWS V14.01,2013-02-25 14:22:00,
2013-02-25 09:23:00,32.8,25.1,30.25,WNW,288,0.0,1.0,73,0.00,,---,0.00,VWS V14.01,2013-02-25 14:23:00,
2013-02-25 09:24:00,33.0,25.3,30.25,WNW,288,1.0,2.0,73,0.00,,---,0.00,VWS V14.01,2013-02-25 14:24:00,
2013-02-25 09:25:00,33.1,25.4,30.25,WNW,288,2.0,3.0,73,0.00,,---,0.00,VWS V14.01,2013-02-25 14:25:00,
2013-02-25 09:26:00,33.2,25.5,30.25,WNW,288,1.0,2.0,73,0.00,,---,0.00,VWS V14.01,2013-02-25 14:26:00,
2013-02-25 09:27:00,33.4,25.0,30.25,WNW,288,2.0,2.0,71,0.00,,---,0.00,VWS V14.01,2013-02-25 14:27:00,
2013-02-25 09:28:00,33.4,24.7,30.25,WNW,288,0.0,2.0,70,0.00,,---,0.00,VWS V14.01,2013-02-25 14:28:00,
2013-02-25 09:29:00,33.3,24.2,30.25,WNW,288,0.0,0.0,69,0.00,,---,0.00,VWS V14.01,2013-02-25 14:29:00,
2013-02-25 09:30:00,33.2,24.1,30.25,WNW,288,1.0,1.0,69,0.00,,---,0.00,VWS V14.01,2013-02-25 14:30:00,
2013-02-25 09:31:00,33.2,24.1,30.25,NW,321,1.0,4.0,69,0.00,,---,0.00,VWS V14.01,2013-02-25 14:31:00,
2013-02-25 09:32:00,33.1,24.4,30.25,NW,321,0.0,3.0,70,0.00,,---,0.00,VWS V14.01,2013-02-25 14:32:00,
2013-02-25 09:33:00,33.2,24.5,30.25,NW,321,0.0,0.0,70,0.00,,---,0.00,VWS V14.01,2013-02-25 14:33:00,
2013-02-25 09:34:00,33.2,23.8,30.25,NW,321,1.0,1.0,68,0.00,,---,0.00,VWS V14.01,2013-02-25 14:34:00,
2013-02-25 09:35:00,33.1,23.7,30.25,NW,321,3.0,3.0,68,0.00,,---,0.00,VWS V14.01,2013-02-25 14:35:00,
2013-02-25 09:36:00,33.1,23.7,30.25,NW,321,3.0,3.0,68,0.00,,---,0.00,VWS V14.01,2013-02-25 14:36:00,
2013-02-25 09:37:00,33.2,24.5,30.25,NW,321,2.0,3.0,70,0.00,,---,0.00,VWS V14.01,2013-02-25 14:37:00,
2013-02-25 09:38:00,33.4,24.7,30.25,NW,321,2.0,3.0,70,0.00,,---,0.00,VWS V14.01,2013-02-25 14:38:00,
2013-02-25 09:39:00,33.5,24.8,30.25,NW,321,3.0,3.0,70,0.00,,---,0.00,VWS V14.01,2013-02-25 14:39:00,
2013-02-25 09:40:00,33.7,25.0,30.25,NW,320,3.0,4.0,70,0.00,,---,0.00,VWS V14.01,2013-02-25 14:40:00,
2013-02-25 09:41:00,33.8,25.1,30.25,NW,320,1.0,3.0,70,0.00,,---,0.00,VWS V14.01,2013-02-25 14:41:00,
2013-02-25 09:42:00,34.0,25.3,30.25,NW,320,1.0,2.0,70,0.00,,---,0.00,VWS V14.01,2013-02-25 14:42:00,
2013-02-25 09:43:00,34.1,24.7,30.24,NW,320,1.0,2.0,68,0.00,,---,0.00,VWS V14.01,2013-02-25 14:43:00,
2013-02-25 09:44:00,34.2,25.5,30.24,NW,320,0.0,1.0,70,0.00,,---,0.00,VWS V14.01,2013-02-25 14:44:00,
2013-02-25 09:45:00,34.3,25.2,30.24,NW,320,1.0,1.0,69,0.00,,---,0.00,VWS V14.01,2013-02-25 14:45:00,
2013-02-25 09:46:00,34.3,25.2,30.24,NW,320,1.0,3.0,69,0.00,,---,0.00,VWS V14.01,2013-02-25 14:46:00,
2013-02-25 09:47:00,34.4,25.0,30.24,NW,311,3.0,4.0,68,0.00,,---,0.00,VWS V14.01,2013-02-25 14:47:00,
2013-02-25 09:48:00,34.5,25.0,30.24,West,279,2.0,4.0,68,0.00,,---,0.00,VWS V14.01,2013-02-25 14:48:00,
2013-02-25 09:49:00,34.6,25.1,30.24,West,279,1.0,3.0,68,0.00,,---,0.00,VWS V14.01,2013-02-25 14:49:00,
2013-02-25 09:50:00,34.6,25.1,30.24,West,279,0.0,2.0,68,0.00,,---,0.00,VWS V14.01,2013-02-25 14:50:00,
2013-02-25 09:51:00,34.7,25.2,30.24,West,279,0.0,1.0,68,0.00,,---,0.00,VWS V14.01,2013-02-25 14:51:00,
2013-02-25 09:52:00,34.8,25.3,30.24,West,279,0.0,0.0,68,0.00,,---,0.00,VWS V14.01,2013-02-25 14:52:00,
2013-02-25 09:53:00,34.8,25.0,30.24,West,279,1.0,2.0,67,0.00,,---,0.00,VWS V14.01,2013-02-25 14:53:00,
2013-02-25 09:54:00,34.9,25.1,30.24,West,279,0.0,1.0,67,0.00,,---,0.00,VWS V14.01,2013-02-25 14:54:00,
2013-02-25 09:55:00,34.8,24.2,30.24,West,279,0.0,0.0,65,0.00,,---,0.00,VWS V14.01,2013-02-25 14:55:00,
2013-02-25 09:56:00,34.8,24.2,30.24,West,279,0.0,1.0,65,0.00,,---,0.00,VWS V14.01,2013-02-25 14:56:00,
2013-02-25 09:57:00,34.8,23.9,30.24,West,279,3.0,3.0,64,0.00,,---,0.00,VWS V14.01,2013-02-25 14:57:00,
2013-02-25 09:58:00,34.8,24.6,30.24,West,279,1.0,4.0,66,0.00,,---,0.00,VWS V14.01,2013-02-25 14:58:00,
2013-02-25 09:59:00,34.8,25.0,30.24,West,279,3.0,3.0,67,0.00,,---,0.00,VWS V14.01,2013-02-25 14:59:00,
2013-02-25 10:00:00,34.8,25.3,30.25,WNW,303,3.0,3.0,68,0.00,,---,0.00,VWS V14.01,2013-02-25 15:00:00,
2013-02-25 10:01:00,34.8,25.3,30.25,WNW,294,4.0,4.0,68,0.00,,---,0.00,VWS V14.01,2013-02-25 15:01:00,
2013-02-25 10:02:00,34.8,24.6,30.25,West,269,3.0,5.0,66,0.00,,---,0.00,VWS V14.01,2013-02-25 15:02:00,
2013-02-25 10:03:00,34.7,24.5,30.25,West,269,3.0,4.0,66,0.00,,---,0.00,VWS V14.01,2013-02-25 15:03:00,
2013-02-25 10:04:00,34.7,24.9,30.24,West,269,1.0,3.0,67,0.00,,---,0.00,VWS V14.01,2013-02-25 15:04:00,
2013-02-25 10:05:00,34.6,25.1,30.24,WNW,299,3.0,4.0,68,0.00,,---,0.00,VWS V14.01,2013-02-25 15:05:00,
2013-02-25 10:06:00,34.7,24.9,30.25,WNW,299,2.0,3.0,67,0.00,,---,0.00,VWS V14.01,2013-02-25 15:06:00,
2013-02-25 10:07:00,34.7,24.9,30.25,WNW,299,2.0,2.0,67,0.00,,---,0.00,VWS V14.01,2013-02-25 15:07:00,
2013-02-25 10:08:00,34.8,25.3,30.25,WNW,283,4.0,5.0,68,0.00,,---,0.00,VWS V14.01,2013-02-25 15:08:00,
2013-02-25 10:09:00,34.9,25.4,30.25,WNW,283,3.0,5.0,68,0.00,,---,0.00,VWS V14.01,2013-02-25 15:09:00,
2013-02-25 10:10:00,35.1,25.3,30.25,WNW,283,2.0,3.0,67,0.00,,---,0.00,VWS V14.01,2013-02-25 15:10:00,
2013-02-25 10:11:00,35.2,25.4,30.25,WNW,283,1.0,3.0,67,0.00,,---,0.00,VWS V14.01,2013-02-25 15:11:00,
2013-02-25 10:12:00,35.3,25.5,30.25,WNW,283,0.0,0.0,67,0.00,,---,0.00,VWS V14.01,2013-02-25 15:12:00,
2013-02-25 10:13:00,35.3,24.7,30.25,West,275,3.0,3.0,65,0.00,,---,0.00,VWS V14.01,2013-02-25 15:13:00,
2013-02-25 10:14:00,35.3,25.1,30.25,West,275,1.0,3.0,66,0.00,,---,0.00,VWS V14.01,2013-02-25 15:14:00,
2013-02-25 10:15:00,35.3,25.5,30.25,West,275,1.0,4.0,67,0.00,,---,0.00,VWS V14.01,2013-02-25 15:15:00,
2013-02-25 10:16:00,35.3,25.8,30.25,West,275,1.0,2.0,68,0.00,,---,0.00,VWS V14.01,2013-02-25 15:16:00,
2013-02-25 10:17:00,35.3,25.5,30.25,West,275,2.0,2.0,67,0.00,,---,0.00,VWS V14.01,2013-02-25 15:17:00,
2013-02-25 10:18:00,35.3,25.1,30.25,West,275,2.0,2.0,66,0.00,,---,0.00,VWS V14.01,2013-02-25 15:18:00,
2013-02-25 10:19:00,35.4,25.5,30.25,West,275,2.0,2.0,67,0.00,,---,0.00,VWS V14.01,2013-02-25 15:19:00,
2013-02-25 10:20:00,35.4,25.5,30.25,West,275,0.0,2.0,67,0.00,,---,0.00,VWS V14.01,2013-02-25 15:20:00,
2013-02-25 10:21:00,35.4,25.5,30.25,West,275,0.0,1.0,67,0.00,,---,0.00,VWS V14.01,2013-02-25 15:21:00,
2013-02-25 10:22:00,35.5,25.6,30.25,WSW,245,4.0,4.0,67,0.00,,---,0.00,VWS V14.01,2013-02-25 15:22:00,
2013-02-25 10:23:00,35.5,26.0,30.25,WSW,240,2.0,4.0,68,0.00,,---,0.00,VWS V14.01,2013-02-25 15:23:00,
2013-02-25 10:24:00,35.5,26.0,30.25,WSW,240,2.0,3.0,68,0.00,,---,0.00,VWS V14.01,2013-02-25 15:24:00,
2013-02-25 10:25:00,35.5,25.6,30.25,WSW,240,1.0,2.0,67,0.00,,---,0.00,VWS V14.01,2013-02-25 15:25:00,
2013-02-25 10:26:00,35.5,25.6,30.25,WSW,240,1.0,1.0,67,0.00,,---,0.00,VWS V14.01,2013-02-25 15:26:00,
2013-02-25 10:27:00,35.6,25.4,30.25,WSW,240,1.0,2.0,66,0.00,,---,0.00,VWS V14.01,2013-02-25 15:27:00,
2013-02-25 10:28:00,35.6,25.0,30.25,NNW,346,2.0,3.0,65,0.00,,---,0.00,VWS V14.01,2013-02-25 15:28:00,
2013-02-25 10:29:00,35.6,24.6,30.25,NNW,346,2.0,3.0,64,0.00,,---,0.00,VWS V14.01,2013-02-25 15:29:00,
2013-02-25 10:30:00,35.5,24.2,30.25,NNW,340,0.0,3.0,63,0.00,,---,0.00,VWS V14.01,2013-02-25 15:30:00,
2013-02-25 10:31:00,35.5,24.5,30.25,NNW,340,0.0,0.0,64,0.00,,---,0.00,VWS V14.01,2013-02-25 15:31:00,
2013-02-25 10:32:00,35.5,24.5,30.25,NNW,340,0.0,0.0,64,0.00,,---,0.00,VWS V14.01,2013-02-25 15:32:00,
2013-02-25 10:33:00,35.5,24.9,30.25,NNW,340,0.0,1.0,65,0.00,,---,0.00,VWS V14.01,2013-02-25 15:33:00,
2013-02-25 10:34:00,35.5,24.9,30.25,NNW,340,0.0,2.0,65,0.00,,---,0.00,VWS V14.01,2013-02-25 15:34:00,
2013-02-25 10:35:00,35.6,24.6,30.25,NNW,340,1.0,1.0,64,0.00,,---,0.00,VWS V14.01,2013-02-25 15:35:00,
2013-02-25 10:36:00,35.6,24.6,30.25,SSW,196,3.0,3.0,64,0.00,,---,0.00,VWS V14.01,2013-02-25 15:36:00,
2013-02-25 10:37:00,35.7,24.4,30.25,WNW,284,2.0,3.0,63,0.00,,---,0.00,VWS V14.01,2013-02-25 15:37:00,
2013-02-25 10:38:00,35.9,24.9,30.24,NW,324,3.0,4.0,64,0.00,,---,0.00,VWS V14.01,2013-02-25 15:38:00,
2013-02-25 10:39:00,36.0,25.4,30.24,NW,324,1.0,3.0,65,0.00,,---,0.00,VWS V14.01,2013-02-25 15:39:00,
2013-02-25 10:40:00,36.1,25.1,30.24,NW,324,1.0,3.0,64,0.00,,---,0.00,VWS V14.01,2013-02-25 15:40:00,
2013-02-25 10:41:00,36.1,24.7,30.24,NW,324,0.0,1.0,63,0.00,,---,0.00,VWS V14.01,2013-02-25 15:41:00,
2013-02-25 10:42:00,36.1,24.7,30.24,NW,323,2.0,2.0,63,0.00,,---,0.00,VWS V14.01,2013-02-25 15:42:00,
2013-02-25 10:43:00,36.1,25.1,30.24,NW,323,1.0,3.0,64,0.00,,---,0.00,VWS V14.01,2013-02-25 15:43:00,
2013-02-25 10:44:00,36.2,25.2,30.25,NNW,327,3.0,3.0,64,0.00,,---,0.00,VWS V14.01,2013-02-25 15:44:00,
2013-02-25 10:45:00,36.1,24.7,30.24,ENE,57,1.0,4.0,63,0.00,,---,0.00,VWS V14.01,2013-02-25 15:45:00,
2013-02-25 10:46:00,36.0,23.9,30.25,ESE,117,4.0,5.0,61,0.00,,---,0.00,VWS V14.01,2013-02-25 15:46:00,
2013-02-25 10:47:00,35.9,23.8,30.24,ESE,104,4.0,7.0,61,0.00,,---,0.00,VWS V14.01,2013-02-25 15:47:00,
2013-02-25 10:48:00,35.9,24.2,30.25,ENE,61,3.0,6.0,62,0.00,,---,0.00,VWS V14.01,2013-02-25 15:48:00,
2013-02-25 10:49:00,35.8,23.7,30.25,ESE,103,3.0,3.0,61,0.00,,---,0.00,VWS V14.01,2013-02-25 15:49:00,
2013-02-25 10:50:00,35.8,23.7,30.24,East,90,2.0,3.0,61,0.00,,---,0.00,VWS V14.01,2013-02-25 15:50:00,
2013-02-25 10:51:00,35.8,23.7,30.24,East,85,1.0,2.0,61,0.00,,---,0.00,VWS V14.01,2013-02-25 15:51:00,
2013-02-25 10:52:00,35.9,24.2,30.24,NNE,12,2.0,3.0,62,0.00,,---,0.00,VWS V14.01,2013-02-25 15:52:00,
2013-02-25 10:53:00,36.0,24.3,30.24,North,10,0.0,2.0,62,0.00,,---,0.00,VWS V14.01,2013-02-25 15:53:00,
2013-02-25 10:54:00,36.0,25.0,30.24,North,10,0.0,0.0,64,0.00,,---,0.00,VWS V14.01,2013-02-25 15:54:00,
2013-02-25 10:55:00,36.1,24.4,30.24,NNE,30,3.0,4.0,62,0.00,,---,0.00,VWS V14.01,2013-02-25 15:55:00,
2013-02-25 10:56:00,36.1,24.4,30.24,NNE,30,2.0,3.0,62,0.00,,---,0.00,VWS V14.01,2013-02-25 15:56:00,
2013-02-25 10:57:00,36.1,24.0,30.24,North,350,2.0,2.0,61,0.00,,---,0.00,VWS V14.01,2013-02-25 15:57:00,
2013-02-25 10:58:00,36.1,24.4,30.24,NNW,347,4.0,5.0,62,0.00,,---,0.00,VWS V14.01,2013-02-25 15:58:00,
2013-02-25 10:59:00,36.1,24.7,30.24,NNW,333,4.0,4.0,63,0.00,,---,0.00,VWS V14.01,2013-02-25 15:59:00,
2013-02-25 11:00:00,36.1,24.4,30.24,NNW,333,1.0,4.0,62,0.00,,---,0.00,VWS V14.01,2013-02-25 16:00:00,
2013-02-25 11:01:00,36.1,24.4,30.24,NNW,347,3.0,5.0,62,0.00,,---,0.00,VWS V14.01,2013-02-25 16:01:00,
2013-02-25 11:02:00,36.1,24.0,30.24,NNW,347,2.0,2.0,61,0.00,,---,0.00,VWS V14.01,2013-02-25 16:02:00,
2013-02-25 11:03:00,36.0,23.9,30.24,NNW,347,0.0,2.0,61,0.00,,---,0.00,VWS V14.01,2013-02-25 16:03:00,
2013-02-25 11:04:00,35.9,23.8,30.24,NNW,346,2.0,2.0,61,0.00,,---,0.00,VWS V14.01,2013-02-25 16:04:00,
2013-02-25 11:05:00,35.9,24.2,30.24,NNW,346,0.0,2.0,62,0.00,,---,0.00,VWS V14.01,2013-02-25 16:05:00,
2013-02-25 11:06:00,35.9,24.5,30.24,NNW,346,2.0,3.0,63,0.00,,---,0.00,VWS V14.01,2013-02-25 16:06:00,
2013-02-25 11:07:00,35.9,24.5,30.24,NNW,346,2.0,2.0,63,0.00,,---,0.00,VWS V14.01,2013-02-25 16:07:00,
2013-02-25 11:08:00,35.9,24.2,30.24,ENE,75,0.0,4.0,62,0.00,,---,0.00,VWS V14.01,2013-02-25 16:08:00,
2013-02-25 11:09:00,35.9,24.2,30.24,ENE,75,0.0,2.0,62,0.00,,---,0.00,VWS V14.01,2013-02-25 16:09:00,
2013-02-25 11:10:00,36.0,24.3,30.24,WNW,289,2.0,3.0,62,0.00,,---,0.00,VWS V14.01,2013-02-25 16:10:00,
2013-02-25 11:11:00,36.1,25.1,30.24,WNW,288,3.0,3.0,64,0.00,,---,0.00,VWS V14.01,2013-02-25 16:11:00,
2013-02-25 11:12:00,36.2,25.2,30.24,NNW,329,0.0,5.0,64,0.00,,---,0.00,VWS V14.01,2013-02-25 16:12:00,
2013-02-25 11:13:00,36.4,25.0,30.24,NNW,329,1.0,1.0,63,0.00,,---,0.00,VWS V14.01,2013-02-25 16:13:00,
2013-02-25 11:14:00,36.5,25.1,30.24,NNW,346,3.0,4.0,63,0.00,,---,0.00,VWS V14.01,2013-02-25 16:14:00,
2013-02-25 11:15:00,36.6,25.2,30.24,NW,317,3.0,5.0,63,0.00,,---,0.00,VWS V14.01,2013-02-25 16:15:00,
2013-02-25 11:16:00,36.7,25.3,30.24,NW,319,1.0,3.0,63,0.00,,---,0.00,VWS V14.01,2013-02-25 16:16:00,
2013-02-25 11:17:00,36.6,24.4,30.24,NW,319,3.0,3.0,61,0.00,,---,0.00,VWS V14.01,2013-02-25 16:17:00,
2013-02-25 11:18:00,36.6,24.8,30.24,NW,319,0.0,3.0,62,0.00,,---,0.00,VWS V14.01,2013-02-25 16:18:00,
2013-02-25 11:19:00,36.6,24.4,30.24,NW,319,0.0,2.0,61,0.00,,---,0.00,VWS V14.01,2013-02-25 16:19:00,
2013-02-25 11:20:00,36.6,24.8,30.24,NW,319,0.0,1.0,62,0.00,,---,0.00,VWS V14.01,2013-02-25 16:20:00,
2013-02-25 11:21:00,36.6,24.8,30.24,NW,319,0.0,2.0,62,0.00,,---,0.00,VWS V14.01,2013-02-25 16:21:00,
2013-02-25 11:22:00,36.6,25.2,30.24,West,259,3.0,3.0,63,0.00,,---,0.00,VWS V14.01,2013-02-25 16:22:00,
2013-02-25 11:23:00,36.7,25.7,30.24,ESE,112,4.0,5.0,64,0.00,,---,0.00,VWS V14.01,2013-02-25 16:23:00,
2013-02-25 11:24:00,36.8,25.0,30.24,SE,130,3.0,5.0,62,0.00,,---,0.00,VWS V14.01,2013-02-25 16:24:00,
2013-02-25 11:25:00,36.8,24.6,30.24,SE,146,2.0,3.0,61,0.00,,---,0.00,VWS V14.01,2013-02-25 16:25:00,
2013-02-25 11:26:00,36.8,24.2,30.24,South,175,4.0,4.0,60,0.00,,---,0.00,VWS V14.01,2013-02-25 16:26:00,
2013-02-25 11:27:00,36.8,24.6,30.24,South,172,0.0,6.0,61,0.00,,---,0.00,VWS V14.01,2013-02-25 16:27:00,
2013-02-25 11:28:00,36.8,24.6,30.24,South,172,2.0,3.0,61,0.00,,---,0.00,VWS V14.01,2013-02-25 16:28:00,
2013-02-25 11:29:00,36.9,24.7,30.24,South,172,2.0,3.0,61,0.00,,---,0.00,VWS V14.01,2013-02-25 16:29:00,
2013-02-25 11:30:00,37.0,24.8,30.24,South,172,0.0,2.0,61,0.00,,---,0.00,VWS V14.01,2013-02-25 16:30:00,
2013-02-25 11:31:00,37.0,24.8,30.24,South,172,0.0,1.0,61,0.00,,---,0.00,VWS V14.01,2013-02-25 16:31:00,
2013-02-25 11:32:00,37.1,24.5,30.24,South,173,0.0,1.0,60,0.00,,---,0.00,VWS V14.01,2013-02-25 16:32:00,
2013-02-25 11:33:00,37.3,25.1,30.24,West,273,1.0,1.0,61,0.00,,---,0.00,VWS V14.01,2013-02-25 16:33:00,
2013-02-25 11:34:00,37.3,25.5,30.24,NW,315,2.0,3.0,62,0.00,,---,0.00,VWS V14.01,2013-02-25 16:34:00,
2013-02-25 11:35:00,37.4,25.6,30.24,NNW,332,4.0,5.0,62,0.00,,---,0.00,VWS V14.01,2013-02-25 16:35:00,
2013-02-25 11:36:00,37.5,25.3,30.23,NNW,346,4.0,5.0,61,0.00,,---,0.00,VWS V14.01,2013-02-25 16:36:00,
2013-02-25 11:37:00,37.5,25.3,30.23,WNW,299,4.0,6.0,61,0.00,,---,0.00,VWS V14.01,2013-02-25 16:37:00,
2013-02-25 11:38:00,37.5,25.3,30.23,NNW,344,3.0,4.0,61,0.00,,---,0.00,VWS V14.01,2013-02-25 16:38:00,
2013-02-25 11:39:00,37.5,24.9,30.23,NNW,332,3.0,4.0,60,0.00,,---,0.00,VWS V14.01,2013-02-25 16:39:00,
2013-02-25 11:40:00,37.4,24.8,30.23,WNW,290,3.0,4.0,60,0.00,,---,0.00,VWS V14.01,2013-02-25 16:40:00,
2013-02-25 11:41:00,37.4,25.2,30.23,WNW,290,2.0,3.0,61,0.00,,---,0.00,VWS V14.01,2013-02-25 16:41:00,
2013-02-25 11:42:00,37.5,26.1,30.23,WNW,290,1.0,1.0,63,0.00,,---,0.00,VWS V14.01,2013-02-25 16:42:00,
2013-02-25 11:43:00,37.5,25.3,30.23,WNW,290,0.0,2.0,61,0.00,,---,0.00,VWS V14.01,2013-02-25 16:43:00,
2013-02-25 11:44:00,37.6,25.8,30.23,WNW,290,0.0,0.0,62,0.00,,---,0.00,VWS V14.01,2013-02-25 16:44:00,
2013-02-25 11:45:00,37.7,25.1,30.23,WNW,290,0.0,0.0,60,0.00,,---,0.00,VWS V14.01,2013-02-25 16:45:00,
2013-02-25 11:46:00,37.8,25.2,30.23,WNW,288,0.0,2.0,60,0.00,,---,0.00,VWS V14.01,2013-02-25 16:46:00,
2013-02-25 11:47:00,37.9,26.1,30.23,WNW,288,2.0,2.0,62,0.00,,---,0.00,VWS V14.01,2013-02-25 16:47:00,
2013-02-25 11:48:00,38.0,26.9,30.22,WNW,288,2.0,3.0,64,0.00,,---,0.00,VWS V14.01,2013-02-25 16:48:00,
2013-02-25 11:49:00,38.2,26.7,30.22,WNW,288,0.0,2.0,63,0.00,,---,0.00,VWS V14.01,2013-02-25 16:49:00,
2013-02-25 11:50:00,38.3,26.0,30.22,WNW,288,0.0,1.0,61,0.00,,---,0.00,VWS V14.01,2013-02-25 16:50:00,
2013-02-25 11:51:00,38.3,25.6,30.22,WNW,288,2.0,2.0,60,0.00,,---,0.00,VWS V14.01,2013-02-25 16:51:00,
2013-02-25 11:52:00,38.4,26.1,30.22,WNW,288,2.0,2.0,61,0.00,,---,0.00,VWS V14.01,2013-02-25 16:52:00,
2013-02-25 11:53:00,38.5,26.2,30.22,WNW,288,0.0,2.0,61,0.00,,---,0.00,VWS V14.01,2013-02-25 16:53:00,
2013-02-25 11:54:00,38.6,26.3,30.22,SW,218,2.0,3.0,61,0.00,,---,0.00,VWS V14.01,2013-02-25 16:54:00,
2013-02-25 11:55:00,38.7,26.0,30.22,SW,218,2.0,3.0,60,0.00,,---,0.00,VWS V14.01,2013-02-25 16:55:00,
2013-02-25 11:56:00,38.8,26.1,30.22,SSW,207,5.0,6.0,60,0.00,,---,0.00,VWS V14.01,2013-02-25 16:56:00,
2013-02-25 11:57:00,38.9,26.6,30.22,SSW,198,2.0,6.0,61,0.00,,---,0.00,VWS V14.01,2013-02-25 16:57:00,
2013-02-25 11:58:00,39.0,27.1,30.22,South,180,3.0,5.0,62,0.00,,---,0.00,VWS V14.01,2013-02-25 16:58:00,
2013-02-25 11:59:00,39.0,25.9,30.22,SSW,202,3.0,5.0,59,0.00,,---,0.00,VWS V14.01,2013-02-25 16:59:00,
2013-02-25 12:00:00,39.1,26.8,30.22,South,178,4.0,6.0,61,0.00,,---,0.00,VWS V14.01,2013-02-25 17:00:00,
2013-02-25 12:01:00,39.0,26.3,30.22,SW,223,2.0,4.0,60,0.00,,---,0.00,VWS V14.01,2013-02-25 17:01:00,
2013-02-25 12:02:00,39.1,26.8,30.22,SSE,155,5.0,5.0,61,0.00,,---,0.00,VWS V14.01,2013-02-25 17:02:00,
2013-02-25 12:03:00,39.1,26.8,30.22,SE,143,4.0,7.0,61,0.00,,---,0.00,VWS V14.01,2013-02-25 17:03:00,
2013-02-25 12:04:00,39.0,25.9,30.22,SE,141,3.0,4.0,59,0.00,,---,0.00,VWS V14.01,2013-02-25 17:04:00,
2013-02-25 12:05:00,38.9,25.4,30.22,SE,141,0.0,3.0,58,0.00,,---,0.00,VWS V14.01,2013-02-25 17:05:00,
2013-02-25 12:06:00,38.9,25.4,30.22,South,172,2.0,2.0,58,0.00,,---,0.00,VWS V14.01,2013-02-25 17:06:00,
2013-02-25 12:07:00,38.9,27.0,30.22,SW,235,1.0,4.0,62,0.00,,---,0.00,VWS V14.01,2013-02-25 17:07:00,
2013-02-25 12:08:00,38.9,26.6,30.22,SSW,205,4.0,4.0,61,0.00,,---,0.00,VWS V14.01,2013-02-25 17:08:00,
2013-02-25 12:09:00,39.0,26.7,30.22,SSE,156,3.0,7.0,61,0.00,,---,0.00,VWS V14.01,2013-02-25 17:09:00,
2013-02-25 12:10:00,38.9,25.8,30.22,SE,128,5.0,7.0,59,0.00,,---,0.00,VWS V14.01,2013-02-25 17:10:00,
2013-02-25 12:11:00,38.7,25.2,30.22,East,96,1.0,5.0,58,0.00,,---,0.00,VWS V14.01,2013-02-25 17:11:00,
2013-02-25 12:12:00,38.6,24.7,30.22,East,90,1.0,1.0,57,0.00,,---,0.00,VWS V14.01,2013-02-25 17:12:00,
2013-02-25 12:13:00,38.5,24.6,30.22,South,170,4.0,5.0,57,0.00,,---,0.00,VWS V14.01,2013-02-25 17:13:00,
2013-02-25 12:14:00,38.4,24.9,30.22,South,171,3.0,4.0,58,0.00,,---,0.00,VWS V14.01,2013-02-25 17:14:00,
2013-02-25 12:15:00,38.4,25.3,30.22,SE,138,3.0,3.0,59,0.00,,---,0.00,VWS V14.01,2013-02-25 17:15:00,
2013-02-25 12:16:00,38.4,25.3,30.22,SE,144,0.0,3.0,59,0.00,,---,0.00,VWS V14.01,2013-02-25 17:16:00,
2013-02-25 12:17:00,38.4,24.9,30.22,SSE,162,0.0,3.0,58,0.00,,---,0.00,VWS V14.01,2013-02-25 17:17:00,
2013-02-25 12:18:00,38.4,25.3,30.22,SW,215,5.0,5.0,59,0.00,,---,0.00,VWS V14.01,2013-02-25 17:18:00,
2013-02-25 12:19:00,38.5,26.2,30.22,SW,228,2.0,5.0,61,0.00,,---,0.00,VWS V14.01,2013-02-25 17:19:00,
2013-02-25 12:20:00,38.6,26.7,30.22,SW,228,0.0,2.0,62,0.00,,---,0.00,VWS V14.01,2013-02-25 17:20:00,
2013-02-25 12:21:00,38.6,26.7,30.22,SW,228,2.0,2.0,62,0.00,,---,0.00,VWS V14.01,2013-02-25 17:21:00,
2013-02-25 12:22:00,38.7,26.8,30.22,WNW,292,4.0,4.0,62,0.00,,---,0.00,VWS V14.01,2013-02-25 17:22:00,
2013-02-25 12:23:00,38.8,26.9,30.22,WNW,290,2.0,4.0,62,0.00,,---,0.00,VWS V14.01,2013-02-25 17:23:00,
2013-02-25 12:24:00,38.9,26.2,30.23,WNW,290,1.0,2.0,60,0.00,,---,0.00,VWS V14.01,2013-02-25 17:24:00,
2013-02-25 12:25:00,39.0,25.9,30.23,West,269,1.0,4.0,59,0.00,,---,0.00,VWS V14.01,2013-02-25 17:25:00,
2013-02-25 12:26:00,39.0,26.7,30.22,West,269,0.0,1.0,61,0.00,,---,0.00,VWS V14.01,2013-02-25 17:26:00,
2013-02-25 12:27:00,39.1,26.0,30.22,West,269,0.0,1.0,59,0.00,,---,0.00,VWS V14.01,2013-02-25 17:27:00,
2013-02-25 12:28:00,39.0,25.1,30.22,NW,317,2.0,2.0,57,0.00,,---,0.00,VWS V14.01,2013-02-25 17:28:00,
2013-02-25 12:29:00,38.9,24.6,30.22,NW,319,1.0,2.0,56,0.00,,---,0.00,VWS V14.01,2013-02-25 17:29:00,
2013-02-25 12:30:00,38.8,24.9,30.22,NW,319,0.0,1.0,57,0.00,,---,0.00,VWS V14.01,2013-02-25 17:30:00,
2013-02-25 12:31:00,38.7,25.2,30.22,NW,319,1.0,1.0,58,0.00,,---,0.00,VWS V14.01,2013-02-25 17:31:00,
2013-02-25 12:33:00,38.7,26.0,30.22,WSW,244,0.0,2.0,60,0.00,,---,0.00,VWS V14.01,2013-02-25 17:33:00,
2013-02-25 12:34:00,38.7,25.2,30.22,WSW,244,0.0,1.0,58,0.00,,---,0.00,VWS V14.01,2013-02-25 17:34:00,
2013-02-25 12:35:00,38.8,24.9,30.22,WSW,241,2.0,2.0,57,0.00,,---,0.00,VWS V14.01,2013-02-25 17:35:00,
2013-02-25 12:36:00,38.8,25.3,30.22,SSW,192,5.0,6.0,58,0.00,,---,0.00,VWS V14.01,2013-02-25 17:36:00,
2013-02-25 12:37:00,38.8,25.3,30.21,SSW,198,5.0,6.0,58,0.00,,---,0.00,VWS V14.01,2013-02-25 17:37:00,
2013-02-25 12:38:00,39.0,26.3,30.21,SSW,207,0.0,5.0,60,0.00,,---,0.00,VWS V14.01,2013-02-25 17:38:00,
2013-02-25 12:39:00,39.1,26.8,30.21,SSW,207,1.0,1.0,61,0.00,,---,0.00,VWS V14.01,2013-02-25 17:39:00,
2013-02-25 12:40:00,39.3,27.0,30.21,WSW,250,3.0,3.0,61,0.00,,---,0.00,VWS V14.01,2013-02-25 17:40:00,
2013-02-25 12:41:00,39.3,27.0,30.21,WSW,249,1.0,4.0,61,0.00,,---,0.00,VWS V14.01,2013-02-25 17:41:00,
2013-02-25 12:42:00,39.5,27.6,30.21,SW,219,3.0,4.0,62,0.00,,---,0.00,VWS V14.01,2013-02-25 17:42:00,
2013-02-25 12:43:00,39.7,27.4,30.21,SE,144,1.0,3.0,61,0.00,,---,0.00,VWS V14.01,2013-02-25 17:43:00,
2013-02-25 12:44:00,39.8,26.7,30.21,SE,144,1.0,2.0,59,0.00,,---,0.00,VWS V14.01,2013-02-25 17:44:00,
2013-02-25 12:45:00,40.0,26.4,30.21,ESE,113,0.0,3.0,58,0.00,,---,0.00,VWS V14.01,2013-02-25 17:45:00,
2013-02-25 12:46:00,40.1,26.9,30.21,East,95,1.0,2.0,59,0.00,,---,0.00,VWS V14.01,2013-02-25 17:46:00,
2013-02-25 12:47:00,40.2,25.8,30.21,SE,128,4.0,7.0,56,0.00,,---,0.00,VWS V14.01,2013-02-25 17:47:00,
2013-02-25 12:48:00,40.2,25.8,30.21,SE,144,5.0,6.0,56,0.00,,---,0.00,VWS V14.01,2013-02-25 17:48:00,
2013-02-25 12:49:00,40.2,25.8,30.21,SSE,157,2.0,6.0,56,0.00,,---,0.00,VWS V14.01,2013-02-25 17:49:00,
2013-02-25 12:50:00,40.1,25.2,30.21,SE,137,5.0,7.0,55,0.00,,---,0.00,VWS V14.01,2013-02-25 17:50:00,
2013-02-25 12:51:00,40.0,25.6,30.21,NNE,32,4.0,5.0,56,0.00,,---,0.00,VWS V14.01,2013-02-25 17:51:00,
2013-02-25 12:52:00,39.7,24.4,30.20,NNE,31,3.0,3.0,54,0.00,,---,0.00,VWS V14.01,2013-02-25 17:52:00,
2013-02-25 12:53:00,39.5,24.2,30.20,North,355,2.0,4.0,54,0.00,,---,0.00,VWS V14.01,2013-02-25 17:53:00,
2013-02-25 12:54:00,39.2,24.0,30.20,North,355,2.0,3.0,54,0.00,,---,0.00,VWS V14.01,2013-02-25 17:54:00,
2013-02-25 12:55:00,39.0,24.2,30.20,West,273,0.0,4.0,55,0.00,,---,0.00,VWS V14.01,2013-02-25 17:55:00,
2013-02-25 12:56:00,38.9,25.0,30.20,North,355,1.0,2.0,57,0.00,,---,0.00,VWS V14.01,2013-02-25 17:56:00,
2013-02-25 12:57:00,38.7,24.4,30.20,North,355,0.0,2.0,56,0.00,,---,0.00,VWS V14.01,2013-02-25 17:57:00,
2013-02-25 12:58:00,38.7,25.6,30.20,West,272,3.0,4.0,59,0.00,,---,0.00,VWS V14.01,2013-02-25 17:58:00,
2013-02-25 12:59:00,38.7,25.2,30.20,West,273,1.0,4.0,58,0.00,,---,0.00,VWS V14.01,2013-02-25 17:59:00,
2013-02-25 13:00:00,38.8,25.7,30.20,West,273,1.0,1.0,59,0.00,,---,0.00,VWS V14.01,2013-02-25 18:00:00,
2013-02-25 13:01:00,38.9,25.8,30.20,South,183,5.0,6.0,59,0.00,,---,0.00,VWS V14.01,2013-02-25 18:01:00,
2013-02-25 13:02:00,39.1,26.0,30.20,SSW,195,3.0,5.0,59,0.00,,---,0.00,VWS V14.01,2013-02-25 18:02:00,
2013-02-25 13:03:00,39.2,25.7,30.20,SSE,155,0.0,4.0,58,0.00,,---,0.00,VWS V14.01,2013-02-25 18:03:00,
2013-02-25 13:04:00,39.3,25.8,30.20,SW,217,1.0,4.0,58,0.00,,---,0.00,VWS V14.01,2013-02-25 18:04:00,
2013-02-25 13:05:00,39.4,26.3,30.20,SSE,152,3.0,6.0,59,0.00,,---,0.00,VWS V14.01,2013-02-25 18:05:00,
2013-02-25 13:06:00,39.5,26.0,30.20,South,181,6.0,6.0,58,0.00,,---,0.00,VWS V14.01,2013-02-25 18:06:00,
2013-02-25 13:07:00,39.6,25.6,30.20,SSW,195,2.0,7.0,57,0.00,,---,0.00,VWS V14.01,2013-02-25 18:07:00,
2013-02-25 13:08:00,39.7,25.7,30.20,South,179,2.0,4.0,57,0.00,,---,0.00,VWS V14.01,2013-02-25 18:08:00,
2013-02-25 13:09:00,39.7,25.7,30.20,SE,126,3.0,7.0,57,0.00,,---,0.00,VWS V14.01,2013-02-25 18:09:00,
2013-02-25 13:10:00,39.8,25.0,30.20,South,187,1.0,3.0,55,0.00,,---,0.00,VWS V14.01,2013-02-25 18:10:00,
2013-02-25 13:11:00,39.7,24.9,30.19,SSE,161,2.0,5.0,55,0.00,,---,0.00,VWS V14.01,2013-02-25 18:11:00,
2013-02-25 13:12:00,39.7,24.9,30.19,SE,132,4.0,4.0,55,0.00,,---,0.00,VWS V14.01,2013-02-25 18:12:00,
2013-02-25 13:13:00,39.7,24.9,30.19,SE,138,3.0,9.0,55,0.00,,---,0.00,VWS V14.01,2013-02-25 18:13:00,
2013-02-25 13:14:00,39.7,24.9,30.19,South,169,4.0,6.0,55,0.00,,---,0.00,VWS V14.01,2013-02-25 18:14:00,
2013-02-25 13:15:00,39.7,24.9,30.19,South,170,3.0,5.0,55,0.00,,---,0.00,VWS V14.01,2013-02-25 18:15:00,
2013-02-25 13:16:00,39.7,25.7,30.19,South,186,6.0,8.0,57,0.00,,---,0.00,VWS V14.01,2013-02-25 18:16:00,
2013-02-25 13:17:00,39.8,25.4,30.19,SW,230,3.0,6.0,56,0.00,,---,0.00,VWS V14.01,2013-02-25 18:17:00,
2013-02-25 13:18:00,39.8,25.4,30.19,WSW,238,4.0,4.0,56,0.00,,---,0.00,VWS V14.01,2013-02-25 18:18:00,
2013-02-25 13:19:00,40.0,26.4,30.19,SSE,148,1.0,10.0,58,0.00,,---,0.00,VWS V14.01,2013-02-25 18:19:00,
2013-02-25 13:20:00,40.0,25.6,30.19,SE,125,4.0,7.0,56,0.00,,---,0.00,VWS V14.01,2013-02-25 18:20:00,
2013-02-25 13:21:00,40.1,25.7,30.19,South,175,4.0,9.0,56,0.00,,---,0.00,VWS V14.01,2013-02-25 18:21:00,
2013-02-25 13:22:00,40.2,26.2,30.19,SSE,164,3.0,8.0,57,0.00,,---,0.00,VWS V14.01,2013-02-25 18:22:00,
2013-02-25 13:23:00,40.2,25.3,30.19,SSW,210,5.0,6.0,55,0.00,,---,0.00,VWS V14.01,2013-02-25 18:23:00,
2013-02-25 13:24:00,40.3,26.3,30.19,South,190,2.0,5.0,57,0.00,,---,0.00,VWS V14.01,2013-02-25 18:24:00,
2013-02-25 13:25:00,40.4,26.8,30.19,SSE,152,6.0,8.0,58,0.00,,---,0.00,VWS V14.01,2013-02-25 18:25:00,
2013-02-25 13:26:00,40.5,26.0,30.19,SSW,202,6.0,7.0,56,0.00,,---,0.00,VWS V14.01,2013-02-25 18:26:00,
2013-02-25 13:27:00,40.5,26.5,30.19,South,179,4.0,9.0,57,0.00,,---,0.00,VWS V14.01,2013-02-25 18:27:00,
2013-02-25 13:28:00,40.6,25.7,30.19,South,178,0.0,4.0,55,0.00,,---,0.00,VWS V14.01,2013-02-25 18:28:00,
2013-02-25 13:29:00,40.6,25.7,30.19,SSW,211,4.0,5.0,55,0.00,,---,0.00,VWS V14.01,2013-02-25 18:29:00,
2013-02-25 13:30:00,40.7,26.7,30.18,SSE,166,12.0,12.0,57,0.00,,---,0.00,VWS V14.01,2013-02-25 18:30:00,
2013-02-25 13:31:00,40.7,26.2,30.18,SW,215,6.0,12.0,56,0.00,,---,0.00,VWS V14.01,2013-02-25 18:31:00,
2013-02-25 13:32:00,40.7,25.4,30.18,SSE,151,9.0,9.0,54,0.00,,---,0.00,VWS V14.01,2013-02-25 18:32:00,
2013-02-25 13:33:00,40.6,25.3,30.18,South,172,1.0,9.0,54,0.00,,---,0.00,VWS V14.01,2013-02-25 18:33:00,
2013-02-25 13:34:00,40.7,25.8,30.18,SE,137,4.0,4.0,55,0.00,,---,0.00,VWS V14.01,2013-02-25 18:34:00,
2013-02-25 13:35:00,40.7,25.4,30.18,SSW,210,3.0,4.0,54,0.00,,---,0.00,VWS V14.01,2013-02-25 18:35:00,
2013-02-25 13:36:00,40.7,25.8,30.18,South,182,3.0,4.0,55,0.00,,---,0.00,VWS V14.01,2013-02-25 18:36:00,
2013-02-25 13:37:00,40.8,26.3,30.18,SSW,206,1.0,5.0,56,0.00,,---,0.00,VWS V14.01,2013-02-25 18:37:00,
2013-02-25 13:38:00,40.9,26.9,30.18,South,176,3.0,3.0,57,0.00,,---,0.00,VWS V14.01,2013-02-25 18:38:00,
2013-02-25 13:39:00,41.0,27.0,30.18,WSW,237,6.0,8.0,57,0.00,,---,0.00,VWS V14.01,2013-02-25 18:39:00,
2013-02-25 13:40:00,41.1,27.5,30.18,SSW,202,5.0,7.0,58,0.00,,---,0.00,VWS V14.01,2013-02-25 18:40:00,
2013-02-25 13:41:00,41.1,26.6,30.18,South,188,2.0,5.0,56,0.00,,---,0.00,VWS V14.01,2013-02-25 18:41:00,
2013-02-25 13:42:00,41.3,26.4,30.18,SSW,198,6.0,10.0,55,0.00,,---,0.00,VWS V14.01,2013-02-25 18:42:00,
2013-02-25 13:43:00,41.2,26.7,30.18,SW,223,7.0,9.0,56,0.00,,---,0.00,VWS V14.01,2013-02-25 18:43:00,
2013-02-25 13:44:00,41.1,25.3,30.18,SE,138,2.0,8.0,53,0.00,,---,0.00,VWS V14.01,2013-02-25 18:44:00,
2013-02-25 13:45:00,41.0,25.6,30.18,South,184,4.0,7.0,54,0.00,,---,0.00,VWS V14.01,2013-02-25 18:45:00,
2013-02-25 13:46:00,41.0,26.5,30.18,SSW,196,4.0,11.0,56,0.00,,---,0.00,VWS V14.01,2013-02-25 18:46:00,
2013-02-25 13:47:00,40.9,25.1,30.18,SE,131,4.0,5.0,53,0.00,,---,0.00,VWS V14.01,2013-02-25 18:47:00,
2013-02-25 13:48:00,40.9,25.1,30.18,South,176,3.0,9.0,53,0.00,,---,0.00,VWS V14.01,2013-02-25 18:48:00,
2013-02-25 13:49:00,40.8,24.5,30.18,SE,139,10.0,11.0,52,0.00,,---,0.00,VWS V14.01,2013-02-25 18:49:00,
2013-02-25 13:50:00,40.7,24.9,30.18,SW,214,4.0,10.0,53,0.00,,---,0.00,VWS V14.01,2013-02-25 18:50:00,
2013-02-25 13:51:00,40.6,24.8,30.18,South,171,5.0,7.0,53,0.00,,---,0.00,VWS V14.01,2013-02-25 18:51:00,
2013-02-25 13:52:00,40.6,24.8,30.18,SSW,200,3.0,9.0,53,0.00,,---,0.00,VWS V14.01,2013-02-25 18:52:00,
2013-02-25 13:53:00,40.5,24.7,30.18,South,187,6.0,6.0,53,0.00,,---,0.00,VWS V14.01,2013-02-25 18:53:00,
2013-02-25 13:54:00,40.6,25.7,30.18,South,173,2.0,7.0,55,0.00,,---,0.00,VWS V14.01,2013-02-25 18:54:00,
2013-02-25 13:55:00,40.6,25.3,30.18,SSW,195,4.0,6.0,54,0.00,,---,0.00,VWS V14.01,2013-02-25 18:55:00,
2013-02-25 13:56:00,40.6,25.7,30.17,South,179,5.0,5.0,55,0.00,,---,0.00,VWS V14.01,2013-02-25 18:56:00,
2013-02-25 13:57:00,40.7,25.4,30.17,SE,140,4.0,4.0,54,0.00,,---,0.00,VWS V14.01,2013-02-25 18:57:00,
2013-02-25 13:58:00,40.8,26.3,30.17,SE,130,6.0,8.0,56,0.00,,---,0.00,VWS V14.01,2013-02-25 18:58:00,
2013-02-25 13:59:00,40.9,25.5,30.18,SE,141,5.0,7.0,54,0.00,,---,0.00,VWS V14.01,2013-02-25 18:59:00,
2013-02-25 14:00:00,40.8,25.0,30.18,SE,132,7.0,9.0,53,0.00,,---,0.00,VWS V14.01,2013-02-25 19:00:00,
2013-02-25 14:01:00,40.7,24.5,30.18,South,175,2.0,8.0,52,0.00,,---,0.00,VWS V14.01,2013-02-25 19:01:00,
2013-02-25 14:02:00,40.6,25.3,30.18,SE,128,6.0,7.0,54,0.00,,---,0.00,VWS V14.01,2013-02-25 19:02:00,
2013-02-25 14:03:00,40.5,24.3,30.18,SSE,163,3.0,6.0,52,0.00,,---,0.00,VWS V14.01,2013-02-25 19:03:00,
2013-02-25 14:04:00,40.4,24.2,30.18,SE,124,2.0,5.0,52,0.00,,---,0.00,VWS V14.01,2013-02-25 19:04:00,
2013-02-25 14:05:00,40.3,24.5,30.18,South,180,4.0,8.0,53,0.00,,---,0.00,VWS V14.01,2013-02-25 19:05:00,
2013-02-25 14:06:00,40.3,25.0,30.18,South,174,4.0,8.0,54,0.00,,---,0.00,VWS V14.01,2013-02-25 19:06:00,
2013-02-25 14:07:00,40.3,25.0,30.17,South,171,5.0,7.0,54,0.00,,---,0.00,VWS V14.01,2013-02-25 19:07:00,
2013-02-25 14:08:00,40.3,24.5,30.17,South,171,3.0,5.0,53,0.00,,---,0.00,VWS V14.01,2013-02-25 19:08:00,
2013-02-25 14:09:00,40.4,25.1,30.17,SSW,210,7.0,7.0,54,0.00,,---,0.00,VWS V14.01,2013-02-25 19:09:00,
2013-02-25 14:10:00,40.4,26.0,30.17,SSE,165,2.0,7.0,56,0.00,,---,0.00,VWS V14.01,2013-02-25 19:10:00,
2013-02-25 14:11:00,40.5,26.0,30.17,SE,142,2.0,4.0,56,0.00,,---,0.00,VWS V14.01,2013-02-25 19:11:00,
2013-02-25 14:12:00,40.6,25.3,30.17,SSW,199,4.0,6.0,54,0.00,,---,0.00,VWS V14.01,2013-02-25 19:12:00,
2013-02-25 14:13:00,40.7,25.8,30.17,SSW,200,4.0,7.0,55,0.00,,---,0.00,VWS V14.01,2013-02-25 19:13:00,
2013-02-25 14:14:00,40.8,25.9,30.17,South,169,4.0,6.0,55,0.00,,---,0.00,VWS V14.01,2013-02-25 19:14:00,
2013-02-25 14:15:00,41.0,26.1,30.17,South,188,4.0,5.0,55,0.00,,---,0.00,VWS V14.01,2013-02-25 19:15:00,
2013-02-25 14:16:00,41.0,26.1,30.17,SSE,148,6.0,6.0,55,0.00,,---,0.00,VWS V14.01,2013-02-25 19:16:00,
2013-02-25 14:17:00,41.1,25.7,30.17,SSE,155,5.0,9.0,54,0.00,,---,0.00,VWS V14.01,2013-02-25 19:17:00,
2013-02-25 14:18:00,41.1,24.8,30.17,SSE,151,7.0,10.0,52,0.00,,---,0.00,VWS V14.01,2013-02-25 19:18:00,
2013-02-25 14:19:00,41.1,24.8,30.17,ESE,108,7.0,9.0,52,0.00,,---,0.00,VWS V14.01,2013-02-25 19:19:00,
2013-02-25 14:20:00,41.0,24.7,30.17,SW,225,3.0,8.0,52,0.00,,---,0.00,VWS V14.01,2013-02-25 19:20:00,
2013-02-25 14:21:00,41.0,25.6,30.17,SW,223,3.0,5.0,54,0.00,,---,0.00,VWS V14.01,2013-02-25 19:21:00,
2013-02-25 14:22:00,41.0,26.5,30.17,WSW,238,3.0,7.0,56,0.00,,---,0.00,VWS V14.01,2013-02-25 19:22:00,
2013-02-25 14:23:00,41.1,27.0,30.17,SSW,199,6.0,8.0,57,0.00,,---,0.00,VWS V14.01,2013-02-25 19:23:00,
2013-02-25 14:24:00,41.1,26.2,30.17,SW,234,2.0,6.0,55,0.00,,---,0.00,VWS V14.01,2013-02-25 19:24:00,
2013-02-25 14:25:00,41.2,26.3,30.17,SSW,200,5.0,6.0,55,0.00,,---,0.00,VWS V14.01,2013-02-25 19:25:00,
2013-02-25 14:26:00,41.2,26.3,30.17,SSE,148,2.0,5.0,55,0.00,,---,0.00,VWS V14.01,2013-02-25 19:26:00,
2013-02-25 14:27:00,41.3,25.5,30.17,SSW,196,2.0,6.0,53,0.00,,---,0.00,VWS V14.01,2013-02-25 19:27:00,
2013-02-25 14:28:00,41.3,25.5,30.17,SSW,195,2.0,5.0,53,0.00,,---,0.00,VWS V14.01,2013-02-25 19:28:00,
2013-02-25 14:29:00,41.3,26.4,30.17,SSW,204,5.0,6.0,55,0.00,,---,0.00,VWS V14.01,2013-02-25 19:29:00,
2013-02-25 14:30:00,41.3,26.4,30.17,WSW,238,5.0,6.0,55,0.00,,---,0.00,VWS V14.01,2013-02-25 19:30:00,
2013-02-25 14:31:00,41.4,26.9,30.17,SW,227,5.0,7.0,56,0.00,,---,0.00,VWS V14.01,2013-02-25 19:31:00,
2013-02-25 14:32:00,41.4,26.5,30.17,SW,217,5.0,6.0,55,0.00,,---,0.00,VWS V14.01,2013-02-25 19:32:00,
2013-02-25 14:33:00,41.4,26.0,30.17,WSW,248,2.0,5.0,54,0.00,,---,0.00,VWS V14.01,2013-02-25 19:33:00,
2013-02-25 14:34:00,41.4,26.0,30.17,SSW,197,2.0,3.0,54,0.00,,---,0.00,VWS V14.01,2013-02-25 19:34:00,
2013-02-25 14:35:00,41.5,25.7,30.17,SSE,147,1.0,3.0,53,0.00,,---,0.00,VWS V14.01,2013-02-25 19:35:00,
2013-02-25 14:36:00,41.5,25.2,30.17,SSW,194,1.0,4.0,52,0.00,,---,0.00,VWS V14.01,2013-02-25 19:36:00,
2013-02-25 14:37:00,41.5,26.1,30.17,South,180,4.0,8.0,54,0.00,,---,0.00,VWS V14.01,2013-02-25 19:37:00,
2013-02-25 14:38:00,41.6,25.3,30.17,SSE,162,2.0,6.0,52,0.00,,---,0.00,VWS V14.01,2013-02-25 19:38:00,
2013-02-25 14:39:00,41.6,25.3,30.17,SW,214,1.0,8.0,52,0.00,,---,0.00,VWS V14.01,2013-02-25 19:39:00,
2013-02-25 14:40:00,41.6,25.3,30.17,SE,146,3.0,4.0,52,0.00,,---,0.00,VWS V14.01,2013-02-25 19:40:00,
2013-02-25 14:41:00,41.5,24.7,30.17,SSE,155,7.0,10.0,51,0.00,,---,0.00,VWS V14.01,2013-02-25 19:41:00,
2013-02-25 14:42:00,41.3,24.1,30.17,SSE,149,4.0,6.0,50,0.00,,---,0.00,VWS V14.01,2013-02-25 19:42:00,
2013-02-25 14:43:00,41.2,24.5,30.17,SE,128,5.0,8.0,51,0.00,,---,0.00,VWS V14.01,2013-02-25 19:43:00,
2013-02-25 14:44:00,41.1,23.9,30.17,ESE,105,1.0,7.0,50,0.00,,---,0.00,VWS V14.01,2013-02-25 19:44:00,
2013-02-25 14:45:00,41.1,24.8,30.17,South,184,6.0,9.0,52,0.00,,---,0.00,VWS V14.01,2013-02-25 19:45:00,
2013-02-25 14:46:00,41.0,25.2,30.17,South,178,3.0,7.0,53,0.00,,---,0.00,VWS V14.01,2013-02-25 19:46:00,
2013-02-25 14:47:00,41.1,25.3,30.17,SSW,193,5.0,5.0,53,0.00,,---,0.00,VWS V14.01,2013-02-25 19:47:00,
2013-02-25 14:48:00,41.1,24.8,30.17,SSE,164,5.0,5.0,52,0.00,,---,0.00,VWS V14.01,2013-02-25 19:48:00,
2013-02-25 14:49:00,41.2,24.9,30.17,SW,220,6.0,8.0,52,0.00,,---,0.00,VWS V14.01,2013-02-25 19:49:00,
2013-02-25 14:50:00,41.2,25.4,30.17,SSE,152,4.0,9.0,53,0.00,,---,0.00,VWS V14.01,2013-02-25 19:50:00,
2013-02-25 14:51:00,41.3,24.5,30.17,WSW,248,3.0,5.0,51,0.00,,---,0.00,VWS V14.01,2013-02-25 19:51:00,
2013-02-25 14:52:00,41.3,25.0,30.17,South,186,4.0,9.0,52,0.00,,---,0.00,VWS V14.01,2013-02-25 19:52:00,
2013-02-25 14:53:00,41.4,24.6,30.17,SSE,148,7.0,8.0,51,0.00,,---,0.00,VWS V14.01,2013-02-25 19:53:00,
2013-02-25 14:54:00,41.4,24.2,30.17,ESE,122,3.0,8.0,50,0.00,,---,0.00,VWS V14.01,2013-02-25 19:54:00,
2013-02-25 14:55:00,41.4,24.2,30.17,SE,124,9.0,9.0,50,0.00,,---,0.00,VWS V14.01,2013-02-25 19:55:00,
2013-02-25 14:56:00,41.3,24.1,30.18,SSE,148,3.0,9.0,50,0.00,,---,0.00,VWS V14.01,2013-02-25 19:56:00,
2013-02-25 14:57:00,41.3,24.1,30.18,SE,134,2.0,5.0,50,0.00,,---,0.00,VWS V14.01,2013-02-25 19:57:00,
2013-02-25 14:58:00,41.3,24.5,30.18,ESE,121,1.0,5.0,51,0.00,,---,0.00,VWS V14.01,2013-02-25 19:58:00,
2013-02-25 14:59:00,41.3,24.1,30.18,SSW,202,4.0,5.0,50,0.00,,---,0.00,VWS V14.01,2013-02-25 19:59:00,
2013-02-25 15:00:00,41.3,25.0,30.18,SW,227,3.0,6.0,52,0.00,,---,0.00,VWS V14.01,2013-02-25 20:00:00,
2013-02-25 15:01:00,41.4,25.1,30.18,SE,143,3.0,5.0,52,0.00,,---,0.00,VWS V14.01,2013-02-25 20:01:00,
2013-02-25 15:02:00,41.4,24.6,30.18,SE,126,4.0,8.0,51,0.00,,---,0.00,VWS V14.01,2013-02-25 20:02:00,
2013-02-25 15:03:00,41.5,24.3,30.18,South,180,3.0,7.0,50,0.00,,---,0.00,VWS V14.01,2013-02-25 20:03:00,
2013-02-25 15:04:00,41.5,24.7,30.18,SSW,196,3.0,4.0,51,0.00,,---,0.00,VWS V14.01,2013-02-25 20:04:00,
2013-02-25 15:05:00,41.5,24.7,30.18,SW,223,4.0,6.0,51,0.00,,---,0.00,VWS V14.01,2013-02-25 20:05:00,
2013-02-25 15:06:00,41.6,25.3,30.18,SSW,202,0.0,5.0,52,0.00,,---,0.00,VWS V14.01,2013-02-25 20:06:00,
2013-02-25 15:07:00,41.7,25.4,30.18,SSW,202,0.0,1.0,52,0.00,,---,0.00,VWS V14.01,2013-02-25 20:07:00,
2013-02-25 15:08:00,41.8,25.0,30.18,SSW,200,2.0,2.0,51,0.00,,---,0.00,VWS V14.01,2013-02-25 20:08:00,
2013-02-25 15:09:00,41.8,24.5,30.18,SSW,200,0.0,4.0,50,0.00,,---,0.00,VWS V14.01,2013-02-25 20:09:00,
2013-02-25 15:10:00,41.9,24.6,30.17,ESE,122,7.0,7.0,50,0.00,,---,0.00,VWS V14.01,2013-02-25 20:10:00,
2013-02-25 15:11:00,41.9,24.1,30.17,ESE,123,3.0,9.0,49,0.00,,---,0.00,VWS V14.01,2013-02-25 20:11:00,
2013-02-25 15:12:00,41.8,24.1,30.17,SSW,204,5.0,6.0,49,0.00,,---,0.00,VWS V14.01,2013-02-25 20:12:00,
2013-02-25 15:13:00,41.8,25.5,30.17,SSW,205,1.0,7.0,52,0.00,,---,0.00,VWS V14.01,2013-02-25 20:13:00,
2013-02-25 15:14:00,41.8,25.0,30.17,SSW,204,5.0,5.0,51,0.00,,---,0.00,VWS V14.01,2013-02-25 20:14:00,
2013-02-25 15:15:00,41.8,25.0,30.17,ESE,121,1.0,5.0,51,0.00,,---,0.00,VWS V14.01,2013-02-25 20:15:00,
2013-02-25 15:16:00,41.8,24.5,30.17,ESE,117,2.0,2.0,50,0.00,,---,0.00,VWS V14.01,2013-02-25 20:16:00,
2013-02-25 15:17:00,41.9,24.6,30.17,SE,140,4.0,6.0,50,0.00,,---,0.00,VWS V14.01,2013-02-25 20:17:00,
2013-02-25 15:18:00,41.9,24.1,30.17,SW,225,2.0,5.0,49,0.00,,---,0.00,VWS V14.01,2013-02-25 20:18:00,
2013-02-25 15:19:00,42.0,24.7,30.17,SSW,202,2.0,3.0,50,0.00,,---,0.00,VWS V14.01,2013-02-25 20:19:00,
2013-02-25 15:20:00,42.0,25.2,30.17,SSW,210,5.0,5.0,51,0.00,,---,0.00,VWS V14.01,2013-02-25 20:20:00,
2013-02-25 15:21:00,42.0,25.2,30.17,South,190,3.0,6.0,51,0.00,,---,0.00,VWS V14.01,2013-02-25 20:21:00,
2013-02-25 15:22:00,42.1,24.8,30.17,SE,126,3.0,4.0,50,0.00,,---,0.00,VWS V14.01,2013-02-25 20:22:00,
2013-02-25 15:23:00,42.1,24.8,30.17,SSE,162,1.0,3.0,50,0.00,,---,0.00,VWS V14.01,2013-02-25 20:23:00,
2013-02-25 15:24:00,42.1,23.8,30.17,SE,131,2.0,3.0,48,0.00,,---,0.00,VWS V14.01,2013-02-25 20:24:00,
2013-02-25 15:25:00,42.1,23.8,30.17,South,180,3.0,3.0,48,0.00,,---,0.00,VWS V14.01,2013-02-25 20:25:00,
2013-02-25 15:26:00,42.1,24.8,30.17,South,189,0.0,4.0,50,0.00,,---,0.00,VWS V14.01,2013-02-25 20:26:00,
2013-02-25 15:27:00,42.1,24.3,30.17,SE,138,3.0,8.0,49,0.00,,---,0.00,VWS V14.01,2013-02-25 20:27:00,
2013-02-25 15:28:00,42.0,23.2,30.17,SSE,164,1.0,3.0,47,0.00,,---,0.00,VWS V14.01,2013-02-25 20:28:00,
2013-02-25 15:29:00,41.9,23.2,30.17,SSW,200,4.0,5.0,47,0.00,,---,0.00,VWS V14.01,2013-02-25 20:29:00,
2013-02-25 15:30:00,42.0,24.2,30.17,SSW,203,0.0,4.0,49,0.00,,---,0.00,VWS V14.01,2013-02-25 20:30:00,
2013-02-25 15:31:00,42.0,24.7,30.17,SSW,211,3.0,5.0,50,0.00,,---,0.00,VWS V14.01,2013-02-25 20:31:00,
2013-02-25 15:32:00,42.0,24.2,30.17,South,183,1.0,5.0,49,0.00,,---,0.00,VWS V14.01,2013-02-25 20:32:00,
2013-02-25 15:33:00,42.1,24.3,30.17,SE,130,4.0,4.0,49,0.00,,---,0.00,VWS V14.01,2013-02-25 20:33:00,
2013-02-25 15:34:00,42.1,24.3,30.17,SSW,208,4.0,9.0,49,0.00,,---,0.00,VWS V14.01,2013-02-25 20:34:00,
2013-02-25 15:35:00,42.1,23.8,30.17,SSW,200,4.0,6.0,48,0.00,,---,0.00,VWS V14.01,2013-02-25 20:35:00,
2013-02-25 15:36:00,42.1,24.3,30.17,SSE,159,4.0,5.0,49,0.00,,---,0.00,VWS V14.01,2013-02-25 20:36:00,
2013-02-25 15:37:00,42.1,23.8,30.17,SSW,202,4.0,7.0,48,0.00,,---,0.00,VWS V14.01,2013-02-25 20:37:00,
2013-02-25 15:38:00,42.1,23.8,30.16,SSE,153,3.0,7.0,48,0.00,,---,0.00,VWS V14.01,2013-02-25 20:38:00,
2013-02-25 15:39:00,42.1,23.8,30.16,SSE,167,6.0,6.0,48,0.00,,---,0.00,VWS V14.01,2013-02-25 20:39:00,
2013-02-25 15:40:00,42.1,23.8,30.16,SSE,153,6.0,7.0,48,0.00,,---,0.00,VWS V14.01,2013-02-25 20:40:00,
2013-02-25 15:41:00,42.0,23.2,30.16,SSW,198,4.0,6.0,47,0.00,,---,0.00,VWS V14.01,2013-02-25 20:41:00,
2013-02-25 15:42:00,42.0,23.2,30.16,SSE,167,7.0,9.0,47,0.00,,---,0.00,VWS V14.01,2013-02-25 20:42:00,
2013-02-25 15:43:00,42.0,23.2,30.16,SSW,205,3.0,7.0,47,0.00,,---,0.00,VWS V14.01,2013-02-25 20:43:00,
2013-02-25 15:44:00,42.0,23.8,30.16,SSW,201,2.0,4.0,48,0.00,,---,0.00,VWS V14.01,2013-02-25 20:44:00,
2013-02-25 15:45:00,42.0,24.2,30.16,SSE,165,4.0,4.0,49,0.00,,---,0.00,VWS V14.01,2013-02-25 20:45:00,
2013-02-25 15:46:00,42.0,23.2,30.16,SSW,197,2.0,4.0,47,0.00,,---,0.00,VWS V14.01,2013-02-25 20:46:00,
2013-02-25 15:47:00,42.1,24.3,30.16,SSW,194,3.0,4.0,49,0.00,,---,0.00,VWS V14.01,2013-02-25 20:47:00,
2013-02-25 15:48:00,42.1,24.8,30.16,SSW,210,4.0,5.0,50,0.00,,---,0.00,VWS V14.01,2013-02-25 20:48:00,
2013-02-25 15:49:00,42.2,24.9,30.16,SSW,210,1.0,4.0,50,0.00,,---,0.00,VWS V14.01,2013-02-25 20:49:00,
2013-02-25 15:50:00,42.3,25.0,30.16,SSE,160,3.0,4.0,50,0.00,,---,0.00,VWS V14.01,2013-02-25 20:50:00,
2013-02-25 15:51:00,42.3,24.0,30.16,SSE,149,4.0,4.0,48,0.00,,---,0.00,VWS V14.01,2013-02-25 20:51:00,
2013-02-25 15:52:00,42.4,24.1,30.16,SSE,168,1.0,4.0,48,0.00,,---,0.00,VWS V14.01,2013-02-25 20:52:00,
2013-02-25 15:53:00,42.5,24.2,30.16,SSW,198,6.0,6.0,48,0.00,,---,0.00,VWS V14.01,2013-02-25 20:53:00,
2013-02-25 15:54:00,42.5,24.2,30.16,SSW,203,7.0,7.0,48,0.00,,---,0.00,VWS V14.01,2013-02-25 20:54:00,
2013-02-25 15:55:00,42.6,24.8,30.16,SSW,196,2.0,7.0,49,0.00,,---,0.00,VWS V14.01,2013-02-25 20:55:00,
2013-02-25 15:56:00,42.6,25.3,30.16,SSE,167,2.0,6.0,50,0.00,,---,0.00,VWS V14.01,2013-02-25 20:56:00,
2013-02-25 15:57:00,42.7,24.4,30.16,SE,145,3.0,5.0,48,0.00,,---,0.00,VWS V14.01,2013-02-25 20:57:00,
2013-02-25 15:58:00,42.7,23.9,30.16,South,189,2.0,6.0,47,0.00,,---,0.00,VWS V14.01,2013-02-25 20:58:00,
2013-02-25 15:59:00,42.6,23.3,30.16,SSE,149,0.0,3.0,46,0.00,,---,0.00,VWS V14.01,2013-02-25 20:59:00,
2013-02-25 16:00:00,42.6,23.8,30.16,SW,221,2.0,2.0,47,0.00,,---,0.00,VWS V14.01,2013-02-25 21:00:00,
2013-02-25 16:01:00,42.6,24.3,30.16,SSE,157,0.0,3.0,48,0.00,,---,0.00,VWS V14.01,2013-02-25 21:01:00,
2013-02-25 16:02:00,42.6,23.3,30.16,SSW,201,4.0,5.0,46,0.00,,---,0.00,VWS V14.01,2013-02-25 21:02:00,
2013-02-25 16:03:00,42.6,24.3,30.16,SSE,155,3.0,5.0,48,0.00,,---,0.00,VWS V14.01,2013-02-25 21:03:00,
2013-02-25 16:04:00,42.5,24.2,30.16,South,188,4.0,5.0,48,0.00,,---,0.00,VWS V14.01,2013-02-25 21:04:00,
2013-02-25 16:05:00,42.5,24.2,30.16,SSW,201,3.0,6.0,48,0.00,,---,0.00,VWS V14.01,2013-02-25 21:05:00,
2013-02-25 16:06:00,42.5,24.2,30.16,SSW,199,0.0,3.0,48,0.00,,---,0.00,VWS V14.01,2013-02-25 21:06:00,
2013-02-25 16:07:00,42.5,23.7,30.16,SE,134,4.0,4.0,47,0.00,,---,0.00,VWS V14.01,2013-02-25 21:07:00,
2013-02-25 16:08:00,42.5,23.7,30.16,SSE,162,1.0,4.0,47,0.00,,---,0.00,VWS V14.01,2013-02-25 21:08:00,
2013-02-25 16:09:00,42.4,23.6,30.16,SSE,162,0.0,2.0,47,0.00,,---,0.00,VWS V14.01,2013-02-25 21:09:00,
2013-02-25 16:10:00,42.5,23.7,30.16,SW,219,4.0,5.0,47,0.00,,---,0.00,VWS V14.01,2013-02-25 21:10:00,
2013-02-25 16:11:00,42.4,24.1,30.16,SE,140,3.0,4.0,48,0.00,,---,0.00,VWS V14.01,2013-02-25 21:11:00,
2013-02-25 16:12:00,42.4,24.1,30.16,SW,214,3.0,7.0,48,0.00,,---,0.00,VWS V14.01,2013-02-25 21:12:00,
2013-02-25 16:13:00,42.4,24.6,30.16,SSW,205,2.0,3.0,49,0.00,,---,0.00,VWS V14.01,2013-02-25 21:13:00,
2013-02-25 16:14:00,42.4,25.1,30.16,ESE,119,3.0,3.0,50,0.00,,---,0.00,VWS V14.01,2013-02-25 21:14:00,
2013-02-25 16:15:00,42.4,25.1,30.16,SE,130,3.0,5.0,50,0.00,,---,0.00,VWS V14.01,2013-02-25 21:15:00,
2013-02-25 16:16:00,42.4,24.1,30.16,SSE,151,5.0,5.0,48,0.00,,---,0.00,VWS V14.01,2013-02-25 21:16:00,
2013-02-25 16:17:00,42.3,23.5,30.16,South,181,4.0,6.0,47,0.00,,---,0.00,VWS V14.01,2013-02-25 21:17:00,
2013-02-25 16:18:00,42.2,23.9,30.16,South,188,5.0,5.0,48,0.00,,---,0.00,VWS V14.01,2013-02-25 21:18:00,
2013-02-25 16:19:00,42.2,24.4,30.16,South,175,3.0,5.0,49,0.00,,---,0.00,VWS V14.01,2013-02-25 21:19:00,
2013-02-25 16:20:00,42.2,23.9,30.16,SSW,206,1.0,4.0,48,0.00,,---,0.00,VWS V14.01,2013-02-25 21:20:00,
2013-02-25 16:21:00,42.2,23.9,30.16,South,188,2.0,2.0,48,0.00,,---,0.00,VWS V14.01,2013-02-25 21:21:00,
2013-02-25 16:22:00,42.2,24.9,30.16,SSE,150,4.0,7.0,50,0.00,,---,0.00,VWS V14.01,2013-02-25 21:22:00,
2013-02-25 16:23:00,42.3,24.5,30.16,SSE,167,3.0,5.0,49,0.00,,---,0.00,VWS V14.01,2013-02-25 21:23:00,
2013-02-25 16:24:00,42.3,24.0,30.16,SSE,166,4.0,5.0,48,0.00,,---,0.00,VWS V14.01,2013-02-25 21:24:00,
2013-02-25 16:25:00,42.3,24.0,30.16,South,171,1.0,4.0,48,0.00,,---,0.00,VWS V14.01,2013-02-25 21:25:00,
2013-02-25 16:26:00,42.2,24.4,30.16,South,180,2.0,2.0,49,0.00,,---,0.00,VWS V14.01,2013-02-25 21:26:00,
2013-02-25 16:27:00,42.3,24.5,30.16,SSW,198,3.0,3.0,49,0.00,,---,0.00,VWS V14.01,2013-02-25 21:27:00,
2013-02-25 16:28:00,42.3,25.0,30.16,SW,216,2.0,5.0,50,0.00,,---,0.00,VWS V14.01,2013-02-25 21:28:00,
2013-02-25 16:29:00,42.3,25.0,30.16,SSW,200,1.0,4.0,50,0.00,,---,0.00,VWS V14.01,2013-02-25 21:29:00,
2013-02-25 16:30:00,42.3,25.0,30.16,SSW,200,3.0,3.0,50,0.00,,---,0.00,VWS V14.01,2013-02-25 21:30:00,
2013-02-25 16:31:00,42.3,25.0,30.16,SW,214,2.0,4.0,50,0.00,,---,0.00,VWS V14.01,2013-02-25 21:31:00,
2013-02-25 16:32:00,42.4,25.1,30.16,SW,214,1.0,3.0,50,0.00,,---,0.00,VWS V14.01,2013-02-25 21:32:00,
2013-02-25 16:33:00,42.3,24.0,30.16,SW,214,1.0,2.0,48,0.00,,---,0.00,VWS V14.01,2013-02-25 21:33:00,
2013-02-25 16:34:00,42.4,24.1,30.16,SW,214,0.0,1.0,48,0.00,,---,0.00,VWS V14.01,2013-02-25 21:34:00,
2013-02-25 16:35:00,42.4,24.1,30.16,SSW,204,1.0,2.0,48,0.00,,---,0.00,VWS V14.01,2013-02-25 21:35:00,
2013-02-25 16:36:00,42.4,24.1,30.16,SSW,203,3.0,6.0,48,0.00,,---,0.00,VWS V14.01,2013-02-25 21:36:00,
2013-02-25 16:37:00,42.4,24.1,30.16,SE,144,1.0,3.0,48,0.00,,---,0.00,VWS V14.01,2013-02-25 21:37:00,
2013-02-25 16:38:00,42.3,23.5,30.16,SE,135,4.0,6.0,47,0.00,,---,0.00,VWS V14.01,2013-02-25 21:38:00,
2013-02-25 16:39:00,42.2,23.4,30.16,SE,132,1.0,4.0,47,0.00,,---,0.00,VWS V14.01,2013-02-25 21:39:00,
2013-02-25 16:40:00,42.2,22.9,30.16,SE,132,0.0,2.0,46,0.00,,---,0.00,VWS V14.01,2013-02-25 21:40:00,
2013-02-25 16:41:00,42.1,22.8,30.16,South,191,4.0,4.0,46,0.00,,---,0.00,VWS V14.01,2013-02-25 21:41:00,
2013-02-25 16:42:00,42.0,23.2,30.16,SE,129,2.0,4.0,47,0.00,,---,0.00,VWS V14.01,2013-02-25 21:42:00,
2013-02-25 16:43:00,42.0,23.2,30.16,SE,129,0.0,2.0,47,0.00,,---,0.00,VWS V14.01,2013-02-25 21:43:00,
2013-02-25 16:44:00,42.0,23.2,30.16,SE,128,1.0,2.0,47,0.00,,---,0.00,VWS V14.01,2013-02-25 21:44:00,
2013-02-25 16:45:00,41.9,23.2,30.16,SSE,150,0.0,2.0,47,0.00,,---,0.00,VWS V14.01,2013-02-25 21:45:00,
2013-02-25 16:46:00,41.9,23.2,30.16,East,99,3.0,4.0,47,0.00,,---,0.00,VWS V14.01,2013-02-25 21:46:00,
2013-02-25 16:47:00,41.9,23.7,30.16,SSE,158,1.0,5.0,48,0.00,,---,0.00,VWS V14.01,2013-02-25 21:47:00,
2013-02-25 16:48:00,41.9,23.7,30.16,ESE,105,2.0,4.0,48,0.00,,---,0.00,VWS V14.01,2013-02-25 21:48:00,
2013-02-25 16:49:00,41.9,23.2,30.16,SE,134,1.0,5.0,47,0.00,,---,0.00,VWS V14.01,2013-02-25 21:49:00,
2013-02-25 16:50:00,41.9,23.2,30.16,NE,44,3.0,3.0,47,0.00,,---,0.00,VWS V14.01,2013-02-25 21:50:00,
2013-02-25 16:51:00,41.9,23.2,30.16,ENE,63,3.0,4.0,47,0.00,,---,0.00,VWS V14.01,2013-02-25 21:51:00,
2013-02-25 16:52:00,41.9,23.2,30.16,ENE,60,0.0,1.0,47,0.00,,---,0.00,VWS V14.01,2013-02-25 21:52:00,
2013-02-25 16:53:00,41.9,23.2,30.16,ENE,60,0.0,0.0,47,0.00,,---,0.00,VWS V14.01,2013-02-25 21:53:00,
2013-02-25 16:54:00,41.9,23.7,30.16,South,173,4.0,4.0,48,0.00,,---,0.00,VWS V14.01,2013-02-25 21:54:00,
2013-02-25 16:55:00,41.9,23.7,30.16,SW,232,4.0,6.0,48,0.00,,---,0.00,VWS V14.01,2013-02-25 21:55:00,
2013-02-25 16:56:00,41.9,23.7,30.16,SSW,210,1.0,5.0,48,0.00,,---,0.00,VWS V14.01,2013-02-25 21:56:00,
2013-02-25 16:57:00,41.9,23.7,30.16,SSW,210,1.0,2.0,48,0.00,,---,0.00,VWS V14.01,2013-02-25 21:57:00,
2013-02-25 16:58:00,41.9,23.2,30.16,SSW,210,1.0,2.0,47,0.00,,---,0.00,VWS V14.01,2013-02-25 21:58:00,
2013-02-25 16:59:00,41.8,23.1,30.16,East,84,3.0,3.0,47,0.00,,---,0.00,VWS V14.01,2013-02-25 21:59:00,
2013-02-25 17:00:00,41.8,23.1,30.16,ENE,66,0.0,3.0,47,0.00,,---,0.00,VWS V14.01,2013-02-25 22:00:00,
2013-02-25 17:01:00,41.8,23.1,30.16,ENE,66,0.0,1.0,47,0.00,,---,0.00,VWS V14.01,2013-02-25 22:01:00,
2013-02-25 17:02:00,41.8,23.1,30.16,ENE,66,0.0,0.0,47,0.00,,---,0.00,VWS V14.01,2013-02-25 22:02:00,
2013-02-25 17:03:00,41.8,23.6,30.16,ENE,67,2.0,2.0,48,0.00,,---,0.00,VWS V14.01,2013-02-25 22:03:00,
2013-02-25 17:04:00,41.8,23.1,30.16,WSW,252,3.0,3.0,47,0.00,,---,0.00,VWS V14.01,2013-02-25 22:04:00,
2013-02-25 17:05:00,41.8,23.1,30.16,WSW,248,1.0,3.0,47,0.00,,---,0.00,VWS V14.01,2013-02-25 22:05:00,
2013-02-25 17:06:00,41.8,23.1,30.16,SW,236,0.0,2.0,47,0.00,,---,0.00,VWS V14.01,2013-02-25 22:06:00,
2013-02-25 17:07:00,41.8,23.1,30.16,ESE,122,0.0,3.0,47,0.00,,---,0.00,VWS V14.01,2013-02-25 22:07:00,
2013-02-25 17:08:00,41.8,22.5,30.16,ESE,122,0.0,1.0,46,0.00,,---,0.00,VWS V14.01,2013-02-25 22:08:00,
2013-02-25 17:09:00,41.8,23.6,30.16,ESE,122,0.0,1.0,48,0.00,,---,0.00,VWS V14.01,2013-02-25 22:09:00,
2013-02-25 17:10:00,41.8,23.6,30.16,ESE,122,0.0,0.0,48,0.00,,---,0.00,VWS V14.01,2013-02-25 22:10:00,
2013-02-25 17:11:00,41.8,23.6,30.16,ESE,122,1.0,2.0,48,0.00,,---,0.00,VWS V14.01,2013-02-25 22:11:00,
2013-02-25 17:12:00,41.8,23.1,30.16,ESE,122,0.0,2.0,47,0.00,,---,0.00,VWS V14.01,2013-02-25 22:12:00,
2013-02-25 17:13:00,41.8,23.1,30.16,ESE,122,0.0,1.0,47,0.00,,---,0.00,VWS V14.01,2013-02-25 22:13:00,
2013-02-25 17:14:00,41.8,23.1,30.16,ESE,122,0.0,2.0,47,0.00,,---,0.00,VWS V14.01,2013-02-25 22:14:00,
2013-02-25 17:15:00,41.7,23.0,30.16,ESE,122,0.0,0.0,47,0.00,,---,0.00,VWS V14.01,2013-02-25 22:15:00,
2013-02-25 17:16:00,41.7,23.0,30.16,ESE,122,0.0,0.0,47,0.00,,---,0.00,VWS V14.01,2013-02-25 22:16:00,
2013-02-25 17:17:00,41.7,23.5,30.16,SSW,195,1.0,2.0,48,0.00,,---,0.00,VWS V14.01,2013-02-25 22:17:00,
2013-02-25 17:18:00,41.7,24.0,30.16,SSW,195,0.0,2.0,49,0.00,,---,0.00,VWS V14.01,2013-02-25 22:18:00,
2013-02-25 17:19:00,41.6,23.4,30.16,SE,124,0.0,1.0,48,0.00,,---,0.00,VWS V14.01,2013-02-25 22:19:00,
2013-02-25 17:20:00,41.6,22.9,30.16,SE,124,0.0,0.0,47,0.00,,---,0.00,VWS V14.01,2013-02-25 22:20:00,
2013-02-25 17:21:00,41.6,22.9,30.16,ESE,116,0.0,1.0,47,0.00,,---,0.00,VWS V14.01,2013-02-25 22:21:00,
2013-02-25 17:22:00,41.6,22.9,30.16,ENE,69,0.0,2.0,47,0.00,,---,0.00,VWS V14.01,2013-02-25 22:22:00,
2013-02-25 17:23:00,41.5,22.3,30.16,ENE,70,0.0,2.0,46,0.00,,---,0.00,VWS V14.01,2013-02-25 22:23:00,
2013-02-25 17:24:00,41.5,22.3,30.16,East,86,0.0,1.0,46,0.00,,---,0.00,VWS V14.01,2013-02-25 22:24:00,
2013-02-25 17:25:00,41.4,22.7,30.16,East,86,1.0,2.0,47,0.00,,---,0.00,VWS V14.01,2013-02-25 22:25:00,
2013-02-25 17:26:00,41.4,22.7,30.16,East,100,1.0,3.0,47,0.00,,---,0.00,VWS V14.01,2013-02-25 22:26:00,
2013-02-25 17:27:00,41.3,22.6,30.16,East,100,2.0,2.0,47,0.00,,---,0.00,VWS V14.01,2013-02-25 22:27:00,
2013-02-25 17:28:00,41.3,22.6,30.16,East,100,0.0,2.0,47,0.00,,---,0.00,VWS V14.01,2013-02-25 22:28:00,
2013-02-25 17:29:00,41.2,22.5,30.16,East,100,0.0,1.0,47,0.00,,---,0.00,VWS V14.01,2013-02-25 22:29:00,
2013-02-25 17:30:00,41.2,22.5,30.16,ESE,105,2.0,4.0,47,0.00,,---,0.00,VWS V14.01,2013-02-25 22:30:00,
2013-02-25 17:31:00,41.2,22.5,30.16,ESE,105,1.0,3.0,47,0.00,,---,0.00,VWS V14.01,2013-02-25 22:31:00,
2013-02-25 17:32:00,41.1,22.9,30.16,ESE,105,0.0,1.0,48,0.00,,---,0.00,VWS V14.01,2013-02-25 22:32:00,
2013-02-25 17:33:00,41.1,22.4,30.16,ESE,105,0.0,2.0,47,0.00,,---,0.00,VWS V14.01,2013-02-25 22:33:00,
2013-02-25 17:34:00,41.1,22.4,30.16,ESE,105,0.0,1.0,47,0.00,,---,0.00,VWS V14.01,2013-02-25 22:34:00,
2013-02-25 17:35:00,41.0,22.8,30.16,ESE,105,1.0,1.0,48,0.00,,---,0.00,VWS V14.01,2013-02-25 22:35:00,
2013-02-25 17:36:00,41.0,22.8,30.16,ESE,105,0.0,1.0,48,0.00,,---,0.00,VWS V14.01,2013-02-25 22:36:00,
2013-02-25 17:37:00,41.0,22.8,30.16,ESE,105,0.0,1.0,48,0.00,,---,0.00,VWS V14.01,2013-02-25 22:37:00,
2013-02-25 17:38:00,40.9,23.2,30.16,ESE,105,0.0,1.0,49,0.00,,---,0.00,VWS V14.01,2013-02-25 22:38:00,
2013-02-25 17:39:00,40.9,22.7,30.16,ESE,105,2.0,2.0,48,0.00,,---,0.00,VWS V14.01,2013-02-25 22:39:00,
2013-02-25 17:40:00,40.8,22.6,30.16,ESE,105,0.0,2.0,48,0.00,,---,0.00,VWS V14.01,2013-02-25 22:40:00,
2013-02-25 17:41:00,40.8,22.6,30.16,ESE,105,2.0,3.0,48,0.00,,---,0.00,VWS V14.01,2013-02-25 22:41:00,
2013-02-25 17:42:00,40.7,22.5,30.16,ESE,105,0.0,1.0,48,0.00,,---,0.00,VWS V14.01,2013-02-25 22:42:00,
2013-02-25 17:43:00,40.7,22.5,30.16,ESE,105,0.0,0.0,48,0.00,,---,0.00,VWS V14.01,2013-02-25 22:43:00,
2013-02-25 17:44:00,40.6,22.5,30.16,ESE,105,0.0,0.0,48,0.00,,---,0.00,VWS V14.01,2013-02-25 22:44:00,
2013-02-25 17:45:00,40.6,23.4,30.16,ESE,105,0.0,0.0,50,0.00,,---,0.00,VWS V14.01,2013-02-25 22:45:00,
2013-02-25 17:46:00,40.6,23.4,30.16,ESE,105,2.0,2.0,50,0.00,,---,0.00,VWS V14.01,2013-02-25 22:46:00,
2013-02-25 17:47:00,40.5,23.8,30.17,ESE,105,2.0,2.0,51,0.00,,---,0.00,VWS V14.01,2013-02-25 22:47:00,
2013-02-25 17:48:00,40.5,23.8,30.17,ESE,105,1.0,2.0,51,0.00,,---,0.00,VWS V14.01,2013-02-25 22:48:00,
2013-02-25 17:49:00,40.4,22.8,30.16,ESE,105,0.0,1.0,49,0.00,,---,0.00,VWS V14.01,2013-02-25 22:49:00,
2013-02-25 17:50:00,40.4,22.8,30.16,ESE,105,0.0,1.0,49,0.00,,---,0.00,VWS V14.01,2013-02-25 22:50:00,
2013-02-25 17:51:00,40.3,22.7,30.16,ESE,105,2.0,2.0,49,0.00,,---,0.00,VWS V14.01,2013-02-25 22:51:00,
2013-02-25 17:52:00,40.2,22.1,30.16,ESE,111,3.0,3.0,48,0.00,,---,0.00,VWS V14.01,2013-02-25 22:52:00,
2013-02-25 17:53:00,40.2,23.1,30.16,ESE,111,1.0,3.0,50,0.00,,---,0.00,VWS V14.01,2013-02-25 22:53:00,
2013-02-25 17:54:00,40.1,23.0,30.16,ESE,111,0.0,2.0,50,0.00,,---,0.00,VWS V14.01,2013-02-25 22:54:00,
2013-02-25 17:55:00,40.0,22.9,30.16,ESE,111,0.0,1.0,50,0.00,,---,0.00,VWS V14.01,2013-02-25 22:55:00,
2013-02-25 17:56:00,40.0,22.9,30.16,ESE,111,1.0,1.0,50,0.00,,---,0.00,VWS V14.01,2013-02-25 22:56:00,
2013-02-25 17:57:00,39.9,22.3,30.16,ENE,76,0.0,2.0,49,0.00,,---,0.00,VWS V14.01,2013-02-25 22:57:00,
2013-02-25 17:58:00,39.8,22.7,30.16,ENE,76,0.0,0.0,50,0.00,,---,0.00,VWS V14.01,2013-02-25 22:58:00,
2013-02-25 17:59:00,39.8,22.7,30.16,ENE,76,1.0,1.0,50,0.00,,---,0.00,VWS V14.01,2013-02-25 22:59:00,
2013-02-25 18:00:00,39.7,23.1,30.16,ENE,76,0.0,1.0,51,0.00,,---,0.00,VWS V14.01,2013-02-25 23:00:00,
2013-02-25 18:01:00,39.7,23.1,30.16,ENE,76,0.0,1.0,51,0.00,,---,0.00,VWS V14.01,2013-02-25 23:01:00,
2013-02-25 18:02:00,39.5,22.9,30.16,ESE,115,2.0,4.0,51,0.00,,---,0.00,VWS V14.01,2013-02-25 23:02:00,
2013-02-25 18:03:00,39.4,22.8,30.16,ESE,118,0.0,3.0,51,0.00,,---,0.00,VWS V14.01,2013-02-25 23:03:00,
2013-02-25 18:04:00,39.3,22.2,30.16,ESE,118,0.0,1.0,50,0.00,,---,0.00,VWS V14.01,2013-02-25 23:04:00,
2013-02-25 18:05:00,39.2,22.1,30.16,ESE,118,2.0,2.0,50,0.00,,---,0.00,VWS V14.01,2013-02-25 23:05:00,
2013-02-25 18:06:00,39.2,22.6,30.16,ESE,118,1.0,3.0,51,0.00,,---,0.00,VWS V14.01,2013-02-25 23:06:00,
2013-02-25 18:07:00,39.1,22.0,30.16,ESE,118,0.0,2.0,50,0.00,,---,0.00,VWS V14.01,2013-02-25 23:07:00,
2013-02-25 18:08:00,39.0,22.9,30.16,ESE,118,0.0,1.0,52,0.00,,---,0.00,VWS V14.01,2013-02-25 23:08:00,
2013-02-25 18:09:00,38.9,22.8,30.16,ESE,118,0.0,0.0,52,0.00,,---,0.00,VWS V14.01,2013-02-25 23:09:00,
2013-02-25 18:10:00,38.8,22.7,30.16,ESE,118,0.0,1.0,52,0.00,,---,0.00,VWS V14.01,2013-02-25 23:10:00,
2013-02-25 18:11:00,38.8,22.7,30.16,ESE,118,0.0,0.0,52,0.00,,---,0.00,VWS V14.01,2013-02-25 23:11:00,
2013-02-25 18:12:00,38.6,22.5,30.16,ESE,118,1.0,1.0,52,0.00,,---,0.00,VWS V14.01,2013-02-25 23:12:00,
2013-02-25 18:13:00,38.5,22.9,30.16,ESE,118,0.0,2.0,53,0.00,,---,0.00,VWS V14.01,2013-02-25 23:13:00,
2013-02-25 18:14:00,38.4,23.2,30.16,ESE,118,1.0,2.0,54,0.00,,---,0.00,VWS V14.01,2013-02-25 23:14:00,
2013-02-25 18:15:00,38.3,23.1,30.16,ESE,118,0.0,1.0,54,0.00,,---,0.00,VWS V14.01,2013-02-25 23:15:00,
2013-02-25 18:16:00,38.2,23.0,30.16,ESE,118,1.0,2.0,54,0.00,,---,0.00,VWS V14.01,2013-02-25 23:16:00,
2013-02-25 18:17:00,38.0,23.3,30.16,ESE,118,2.0,2.0,55,0.00,,---,0.00,VWS V14.01,2013-02-25 23:17:00,
2013-02-25 18:18:00,37.8,23.1,30.16,ESE,118,0.0,2.0,55,0.00,,---,0.00,VWS V14.01,2013-02-25 23:18:00,
2013-02-25 18:19:00,37.7,22.6,30.16,ESE,118,0.0,1.0,54,0.00,,---,0.00,VWS V14.01,2013-02-25 23:19:00,
2013-02-25 18:20:00,37.5,22.8,30.16,ESE,118,1.0,2.0,55,0.00,,---,0.00,VWS V14.01,2013-02-25 23:20:00,
2013-02-25 18:21:00,37.4,22.7,30.16,ESE,118,0.0,1.0,55,0.00,,---,0.00,VWS V14.01,2013-02-25 23:21:00,
2013-02-25 18:22:00,37.2,23.0,30.16,ESE,118,0.0,2.0,56,0.00,,---,0.00,VWS V14.01,2013-02-25 23:22:00,
2013-02-25 18:23:00,37.1,22.9,30.16,ESE,118,1.0,1.0,56,0.00,,---,0.00,VWS V14.01,2013-02-25 23:23:00,
2013-02-25 18:24:00,37.0,22.8,30.16,ESE,118,0.0,1.0,56,0.00,,---,0.00,VWS V14.01,2013-02-25 23:24:00,
2013-02-25 18:25:00,36.9,23.1,30.16,ESE,118,0.0,0.0,57,0.00,,---,0.00,VWS V14.01,2013-02-25 23:25:00,
2013-02-25 18:26:00,36.8,23.0,30.16,ESE,118,0.0,1.0,57,0.00,,---,0.00,VWS V14.01,2013-02-25 23:26:00,
2013-02-25 18:27:00,36.6,23.2,30.16,ESE,118,0.0,2.0,58,0.00,,---,0.00,VWS V14.01,2013-02-25 23:27:00,
2013-02-25 18:28:00,36.5,23.1,30.16,ESE,118,0.0,1.0,58,0.00,,---,0.00,VWS V14.01,2013-02-25 23:28:00,
2013-02-25 18:29:00,36.4,23.0,30.16,ESE,118,1.0,1.0,58,0.00,,---,0.00,VWS V14.01,2013-02-25 23:29:00,
2013-02-25 18:30:00,36.2,22.9,30.16,ESE,118,1.0,2.0,58,0.00,,---,0.00,VWS V14.01,2013-02-25 23:30:00,
2013-02-25 18:31:00,36.2,22.9,30.16,ESE,118,0.0,2.0,58,0.00,,---,0.00,VWS V14.01,2013-02-25 23:31:00,
2013-02-25 18:32:00,36.0,22.7,30.16,ESE,118,2.0,2.0,58,0.00,,---,0.00,VWS V14.01,2013-02-25 23:32:00,
2013-02-25 18:33:00,35.9,23.0,30.16,ESE,118,0.0,2.0,59,0.00,,---,0.00,VWS V14.01,2013-02-25 23:33:00,
2013-02-25 18:34:00,35.8,22.9,30.16,ESE,118,0.0,0.0,59,0.00,,---,0.00,VWS V14.01,2013-02-25 23:34:00,
2013-02-25 18:35:00,35.8,22.9,30.16,ESE,118,0.0,0.0,59,0.00,,---,0.00,VWS V14.01,2013-02-25 23:35:00,
2013-02-25 18:36:00,35.7,22.8,30.16,ESE,118,2.0,2.0,59,0.00,,---,0.00,VWS V14.01,2013-02-25 23:36:00,
2013-02-25 18:37:00,35.6,22.7,30.16,ESE,118,1.0,1.0,59,0.00,,---,0.00,VWS V14.01,2013-02-25 23:37:00,
2013-02-25 18:38:00,35.5,23.0,30.16,ESE,118,0.0,2.0,60,0.00,,---,0.00,VWS V14.01,2013-02-25 23:38:00,
2013-02-25 18:39:00,35.4,22.9,30.16,ESE,118,3.0,3.0,60,0.00,,---,0.00,VWS V14.01,2013-02-25 23:39:00,
2013-02-25 18:40:00,35.3,22.8,30.16,ESE,118,0.0,3.0,60,0.00,,---,0.00,VWS V14.01,2013-02-25 23:40:00,
2013-02-25 18:41:00,35.3,22.8,30.16,ESE,118,1.0,1.0,60,0.00,,---,0.00,VWS V14.01,2013-02-25 23:41:00,
2013-02-25 18:42:00,35.2,22.7,30.16,ESE,123,2.0,3.0,60,0.00,,---,0.00,VWS V14.01,2013-02-25 23:42:00,
2013-02-25 18:43:00,35.1,22.2,30.17,ESE,123,1.0,2.0,59,0.00,,---,0.00,VWS V14.01,2013-02-25 23:43:00,
2013-02-25 18:44:00,35.2,22.7,30.17,ESE,123,1.0,1.0,60,0.00,,---,0.00,VWS V14.01,2013-02-25 23:44:00,
2013-02-25 18:45:00,35.1,22.6,30.17,ESE,123,0.0,1.0,60,0.00,,---,0.00,VWS V14.01,2013-02-25 23:45:00,
2013-02-25 18:46:00,35.1,22.6,30.17,ESE,123,1.0,1.0,60,0.00,,---,0.00,VWS V14.01,2013-02-25 23:46:00,
2013-02-25 18:47:00,35.0,22.5,30.17,ESE,123,0.0,2.0,60,0.00,,---,0.00,VWS V14.01,2013-02-25 23:47:00,
2013-02-25 18:48:00,35.0,22.5,30.17,ESE,123,0.0,1.0,60,0.00,,---,0.00,VWS V14.01,2013-02-25 23:48:00,
2013-02-25 18:49:00,35.0,22.5,30.17,ESE,123,0.0,2.0,60,0.00,,---,0.00,VWS V14.01,2013-02-25 23:49:00,
2013-02-25 18:50:00,35.0,22.5,30.17,ESE,123,0.0,0.0,60,0.00,,---,0.00,VWS V14.01,2013-02-25 23:50:00,
2013-02-25 18:51:00,35.0,22.5,30.17,ESE,123,0.0,1.0,60,0.00,,---,0.00,VWS V14.01,2013-02-25 23:51:00,
2013-02-25 18:52:00,34.9,22.8,30.17,ESE,123,0.0,3.0,61,0.00,,---,0.00,VWS V14.01,2013-02-25 23:52:00,
2013-02-25 18:53:00,34.9,22.4,30.17,ESE,123,1.0,1.0,60,0.00,,---,0.00,VWS V14.01,2013-02-25 23:53:00,
2013-02-25 18:54:00,34.9,22.0,30.17,ESE,123,1.0,3.0,59,0.00,,---,0.00,VWS V14.01,2013-02-25 23:54:00,
2013-02-25 18:55:00,34.9,22.4,30.17,ESE,123,2.0,3.0,60,0.00,,---,0.00,VWS V14.01,2013-02-25 23:55:00,
2013-02-25 18:56:00,34.9,22.4,30.17,ESE,123,0.0,2.0,60,0.00,,---,0.00,VWS V14.01,2013-02-25 23:56:00,
2013-02-25 18:57:00,34.9,22.4,30.17,ESE,123,3.0,3.0,60,0.00,,---,0.00,VWS V14.01,2013-02-25 23:57:00,
2013-02-25 18:58:00,34.8,22.7,30.18,ESE,123,0.0,3.0,61,0.00,,---,0.00,VWS V14.01,2013-02-25 23:58:00,
2013-02-25 18:59:00,34.8,22.7,30.18,ESE,123,0.0,0.0,61,0.00,,---,0.00,VWS V14.01,2013-02-25 23:59:00,
2013-02-25 19:00:00,34.8,22.3,30.18,ESE,123,2.0,2.0,60,0.00,,---,0.00,VWS V14.01,2013-02-26 00:00:00,
2013-02-25 19:01:00,34.8,22.7,30.18,ESE,123,2.0,2.0,61,0.00,,---,0.00,VWS V14.01,2013-02-26 00:01:00,
2013-02-25 19:02:00,34.7,22.2,30.18,ESE,123,0.0,2.0,60,0.00,,---,0.00,VWS V14.01,2013-02-26 00:02:00,
2013-02-25 19:03:00,34.7,22.2,30.18,ESE,123,2.0,2.0,60,0.00,,---,0.00,VWS V14.01,2013-02-26 00:03:00,
2013-02-25 19:04:00,34.7,22.2,30.18,ESE,123,0.0,2.0,60,0.00,,---,0.00,VWS V14.01,2013-02-26 00:04:00,
2013-02-25 19:05:00,34.7,22.2,30.18,ESE,123,0.0,0.0,60,0.00,,---,0.00,VWS V14.01,2013-02-26 00:05:00,
2013-02-25 19:06:00,34.7,22.2,30.18,ESE,123,2.0,2.0,60,0.00,,---,0.00,VWS V14.01,2013-02-26 00:06:00,
2013-02-25 19:07:00,34.7,22.6,30.18,ESE,123,0.0,2.0,61,0.00,,---,0.00,VWS V14.01,2013-02-26 00:07:00,
2013-02-25 19:08:00,34.6,22.2,30.18,ESE,123,1.0,2.0,60,0.00,,---,0.00,VWS V14.01,2013-02-26 00:08:00,
2013-02-25 19:09:00,34.6,22.2,30.18,ESE,123,2.0,2.0,60,0.00,,---,0.00,VWS V14.01,2013-02-26 00:09:00,
2013-02-25 19:10:00,34.6,22.2,30.18,ESE,123,2.0,2.0,60,0.00,,---,0.00,VWS V14.01,2013-02-26 00:10:00,
2013-02-25 19:11:00,34.6,22.2,30.18,ESE,123,2.0,2.0,60,0.00,,---,0.00,VWS V14.01,2013-02-26 00:11:00,
2013-02-25 19:12:00,34.6,22.5,30.18,ESE,123,0.0,2.0,61,0.00,,---,0.00,VWS V14.01,2013-02-26 00:12:00,
2013-02-25 19:13:00,34.6,22.5,30.18,ESE,123,0.0,1.0,61,0.00,,---,0.00,VWS V14.01,2013-02-26 00:13:00,
2013-02-25 19:14:00,34.6,22.5,30.18,ESE,123,0.0,1.0,61,0.00,,---,0.00,VWS V14.01,2013-02-26 00:14:00,
2013-02-25 19:15:00,34.6,22.2,30.17,ESE,123,0.0,1.0,60,0.00,,---,0.00,VWS V14.01,2013-02-26 00:15:00,
2013-02-25 19:16:00,34.6,22.2,30.17,ESE,123,0.0,0.0,60,0.00,,---,0.00,VWS V14.01,2013-02-26 00:16:00,
2013-02-25 19:17:00,34.6,22.2,30.17,ESE,123,0.0,2.0,60,0.00,,---,0.00,VWS V14.01,2013-02-26 00:17:00,
2013-02-25 19:18:00,34.7,22.2,30.17,ESE,123,0.0,1.0,60,0.00,,---,0.00,VWS V14.01,2013-02-26 00:18:00,
2013-02-25 19:19:00,34.6,22.2,30.17,ESE,123,0.0,0.0,60,0.00,,---,0.00,VWS V14.01,2013-02-26 00:19:00,
2013-02-25 19:20:00,34.6,22.2,30.17,ESE,123,0.0,1.0,60,0.00,,---,0.00,VWS V14.01,2013-02-26 00:20:00,
2013-02-25 19:21:00,34.6,22.2,30.17,ESE,123,1.0,2.0,60,0.00,,---,0.00,VWS V14.01,2013-02-26 00:21:00,
2013-02-25 19:22:00,34.6,22.2,30.18,ESE,123,0.0,2.0,60,0.00,,---,0.00,VWS V14.01,2013-02-26 00:22:00,
2013-02-25 19:23:00,34.6,22.5,30.18,ESE,123,0.0,1.0,61,0.00,,---,0.00,VWS V14.01,2013-02-26 00:23:00,
2013-02-25 19:24:00,34.6,22.5,30.18,ESE,123,0.0,2.0,61,0.00,,---,0.00,VWS V14.01,2013-02-26 00:24:00,
2013-02-25 19:25:00,34.6,22.2,30.18,ESE,123,1.0,1.0,60,0.00,,---,0.00,VWS V14.01,2013-02-26 00:25:00,
2013-02-25 19:26:00,34.6,22.2,30.18,SSE,153,1.0,3.0,60,0.00,,---,0.00,VWS V14.01,2013-02-26 00:26:00,
2013-02-25 19:27:00,34.6,22.2,30.18,SSE,153,0.0,2.0,60,0.00,,---,0.00,VWS V14.01,2013-02-26 00:27:00,
2013-02-25 19:28:00,34.7,22.2,30.18,SSE,153,0.0,0.0,60,0.00,,---,0.00,VWS V14.01,2013-02-26 00:28:00,
2013-02-25 19:29:00,34.7,22.2,30.18,SSE,153,0.0,0.0,60,0.00,,---,0.00,VWS V14.01,2013-02-26 00:29:00,
2013-02-25 19:30:00,34.8,22.7,30.18,SSE,153,0.0,0.0,61,0.00,,---,0.00,VWS V14.01,2013-02-26 00:30:00,
2013-02-25 19:31:00,34.8,22.7,30.18,SSE,153,0.0,0.0,61,0.00,,---,0.00,VWS V14.01,2013-02-26 00:31:00,
2013-02-25 19:32:00,34.7,22.2,30.18,SSE,153,0.0,0.0,60,0.00,,---,0.00,VWS V14.01,2013-02-26 00:32:00,
2013-02-25 19:33:00,34.7,22.2,30.18,SSE,153,0.0,0.0,60,0.00,,---,0.00,VWS V14.01,2013-02-26 00:33:00,
2013-02-25 19:34:00,34.7,22.2,30.18,SSE,153,0.0,0.0,60,0.00,,---,0.00,VWS V14.01,2013-02-26 00:34:00,
2013-02-25 19:35:00,34.7,22.6,30.18,SSE,153,0.0,0.0,61,0.00,,---,0.00,VWS V14.01,2013-02-26 00:35:00,
2013-02-25 19:36:00,34.7,22.6,30.18,SSE,153,0.0,0.0,61,0.00,,---,0.00,VWS V14.01,2013-02-26 00:36:00,
2013-02-25 19:37:00,34.6,22.5,30.18,SSE,153,0.0,1.0,61,0.00,,---,0.00,VWS V14.01,2013-02-26 00:37:00,
2013-02-25 19:38:00,34.6,22.5,30.18,SSE,153,2.0,3.0,61,0.00,,---,0.00,VWS V14.01,2013-02-26 00:38:00,
2013-02-25 19:39:00,34.5,22.8,30.18,East,100,1.0,3.0,62,0.00,,---,0.00,VWS V14.01,2013-02-26 00:39:00,
2013-02-25 19:40:00,34.4,22.7,30.18,East,100,0.0,2.0,62,0.00,,---,0.00,VWS V14.01,2013-02-26 00:40:00,
2013-02-25 19:41:00,34.4,22.7,30.18,ESE,115,2.0,2.0,62,0.00,,---,0.00,VWS V14.01,2013-02-26 00:41:00,
2013-02-25 19:42:00,34.3,22.3,30.18,East,98,0.0,1.0,61,0.00,,---,0.00,VWS V14.01,2013-02-26 00:42:00,
2013-02-25 19:43:00,34.3,21.9,30.18,East,98,0.0,0.0,60,0.00,,---,0.00,VWS V14.01,2013-02-26 00:43:00,
2013-02-25 19:44:00,34.3,22.3,30.18,East,98,0.0,0.0,61,0.00,,---,0.00,VWS V14.01,2013-02-26 00:44:00,
2013-02-25 19:45:00,34.3,22.3,30.18,East,98,0.0,0.0,61,0.00,,---,0.00,VWS V14.01,2013-02-26 00:45:00,
2013-02-25 19:46:00,34.3,22.3,30.18,East,98,0.0,0.0,61,0.00,,---,0.00,VWS V14.01,2013-02-26 00:46:00,
2013-02-25 19:47:00,34.3,21.9,30.18,SSE,157,0.0,3.0,60,0.00,,---,0.00,VWS V14.01,2013-02-26 00:47:00,
2013-02-25 19:48:00,34.3,22.3,30.19,SSE,157,0.0,0.0,61,0.00,,---,0.00,VWS V14.01,2013-02-26 00:48:00,
2013-02-25 19:49:00,34.4,22.4,30.18,SSE,157,0.0,1.0,61,0.00,,---,0.00,VWS V14.01,2013-02-26 00:49:00,
2013-02-25 19:50:00,34.3,22.6,30.18,SSE,157,0.0,0.0,62,0.00,,---,0.00,VWS V14.01,2013-02-26 00:50:00,
2013-02-25 19:51:00,34.3,22.3,30.18,SSE,157,0.0,0.0,61,0.00,,---,0.00,VWS V14.01,2013-02-26 00:51:00,
2013-02-25 19:52:00,34.3,22.3,30.18,SSE,157,0.0,0.0,61,0.00,,---,0.00,VWS V14.01,2013-02-26 00:52:00,
2013-02-25 19:53:00,34.3,22.3,30.18,SSE,157,0.0,3.0,61,0.00,,---,0.00,VWS V14.01,2013-02-26 00:53:00,
2013-02-25 19:54:00,34.3,22.3,30.18,SSE,157,1.0,2.0,61,0.00,,---,0.00,VWS V14.01,2013-02-26 00:54:00,
2013-02-25 19:55:00,34.3,22.6,30.18,SSE,157,0.0,2.0,62,0.00,,---,0.00,VWS V14.01,2013-02-26 00:55:00,
2013-02-25 19:56:00,34.3,22.6,30.18,WSW,242,1.0,3.0,62,0.00,,---,0.00,VWS V14.01,2013-02-26 00:56:00,
2013-02-25 19:57:00,34.2,22.6,30.18,WSW,238,0.0,2.0,62,0.00,,---,0.00,VWS V14.01,2013-02-26 00:57:00,
2013-02-25 19:58:00,34.2,22.2,30.18,NNE,28,0.0,1.0,61,0.00,,---,0.00,VWS V14.01,2013-02-26 00:58:00,
2013-02-25 19:59:00,34.2,22.2,30.18,NNE,28,0.0,0.0,61,0.00,,---,0.00,VWS V14.01,2013-02-26 00:59:00,
2013-02-25 20:00:00,34.2,22.2,30.18,NNE,28,0.0,0.0,61,0.00,,---,0.00,VWS V14.01,2013-02-26 01:00:00,
2013-02-25 20:01:00,34.2,22.2,30.18,NNE,28,0.0,0.0,61,0.00,,---,0.00,VWS V14.01,2013-02-26 01:01:00,
2013-02-25 20:02:00,34.2,22.2,30.18,ENE,63,0.0,2.0,61,0.00,,---,0.00,VWS V14.01,2013-02-26 01:02:00,
2013-02-25 20:03:00,34.2,22.6,30.18,ENE,63,0.0,0.0,62,0.00,,---,0.00,VWS V14.01,2013-02-26 01:03:00,
2013-02-25 20:04:00,34.1,22.5,30.18,ENE,63,0.0,0.0,62,0.00,,---,0.00,VWS V14.01,2013-02-26 01:04:00,
2013-02-25 20:05:00,34.1,22.5,30.18,North,350,1.0,2.0,62,0.00,,---,0.00,VWS V14.01,2013-02-26 01:05:00,
2013-02-25 20:06:00,34.1,22.5,30.18,NNW,345,0.0,2.0,62,0.00,,---,0.00,VWS V14.01,2013-02-26 01:06:00,
2013-02-25 20:07:00,34.1,22.5,30.18,NNW,344,1.0,2.0,62,0.00,,---,0.00,VWS V14.01,2013-02-26 01:07:00,
2013-02-25 20:08:00,34.0,22.7,30.18,ESE,108,2.0,2.0,63,0.00,,---,0.00,VWS V14.01,2013-02-26 01:08:00,
2013-02-25 20:09:00,33.9,22.3,30.18,SE,137,2.0,3.0,62,0.00,,---,0.00,VWS V14.01,2013-02-26 01:09:00,
2013-02-25 20:10:00,33.9,22.6,30.18,SE,137,2.0,2.0,63,0.00,,---,0.00,VWS V14.01,2013-02-26 01:10:00,
2013-02-25 20:11:00,33.9,22.3,30.19,SSE,156,2.0,3.0,62,0.00,,---,0.00,VWS V14.01,2013-02-26 01:11:00,
2013-02-25 20:12:00,33.9,22.6,30.19,SSE,156,0.0,2.0,63,0.00,,---,0.00,VWS V14.01,2013-02-26 01:12:00,
2013-02-25 20:13:00,33.9,22.6,30.19,SSE,156,0.0,3.0,63,0.00,,---,0.00,VWS V14.01,2013-02-26 01:13:00,
2013-02-25 20:14:00,33.8,22.9,30.19,SSE,156,0.0,1.0,64,0.00,,---,0.00,VWS V14.01,2013-02-26 01:14:00,
2013-02-25 20:15:00,33.8,22.9,30.19,SSE,156,0.0,1.0,64,0.00,,---,0.00,VWS V14.01,2013-02-26 01:15:00,
2013-02-25 20:16:00,33.8,22.9,30.19,SSE,156,0.0,0.0,64,0.00,,---,0.00,VWS V14.01,2013-02-26 01:16:00,
2013-02-25 20:17:00,33.7,22.8,30.19,SSE,156,0.0,0.0,64,0.00,,---,0.00,VWS V14.01,2013-02-26 01:17:00,
2013-02-25 20:18:00,33.6,22.7,30.19,SSE,156,1.0,1.0,64,0.00,,---,0.00,VWS V14.01,2013-02-26 01:18:00,
2013-02-25 20:19:00,33.6,22.7,30.19,ENE,78,1.0,3.0,64,0.00,,---,0.00,VWS V14.01,2013-02-26 01:19:00,
2013-02-25 20:20:00,33.6,22.4,30.19,ESE,121,0.0,3.0,63,0.00,,---,0.00,VWS V14.01,2013-02-26 01:20:00,
2013-02-25 20:21:00,33.5,22.3,30.19,ESE,119,0.0,0.0,63,0.00,,---,0.00,VWS V14.01,2013-02-26 01:21:00,
2013-02-25 20:22:00,33.6,22.0,30.19,ESE,119,0.0,2.0,62,0.00,,---,0.00,VWS V14.01,2013-02-26 01:22:00,
2013-02-25 20:23:00,33.6,22.4,30.19,ESE,119,0.0,1.0,63,0.00,,---,0.00,VWS V14.01,2013-02-26 01:23:00,
2013-02-25 20:24:00,33.6,22.4,30.19,ESE,119,0.0,1.0,63,0.00,,---,0.00,VWS V14.01,2013-02-26 01:24:00,
2013-02-25 20:25:00,33.5,22.3,30.19,ESE,119,0.0,0.0,63,0.00,,---,0.00,VWS V14.01,2013-02-26 01:25:00,
2013-02-25 20:26:00,33.6,22.7,30.19,ESE,119,0.0,0.0,64,0.00,,---,0.00,VWS V14.01,2013-02-26 01:26:00,
2013-02-25 20:27:00,33.5,22.6,30.18,ESE,119,0.0,0.0,64,0.00,,---,0.00,VWS V14.01,2013-02-26 01:27:00,
2013-02-25 20:28:00,33.4,22.5,30.18,ESE,119,0.0,2.0,64,0.00,,---,0.00,VWS V14.01,2013-02-26 01:28:00,
2013-02-25 20:29:00,33.4,22.5,30.18,ESE,119,0.0,0.0,64,0.00,,---,0.00,VWS V14.01,2013-02-26 01:29:00,
2013-02-25 20:30:00,33.3,22.5,30.18,ESE,119,0.0,0.0,64,0.00,,---,0.00,VWS V14.01,2013-02-26 01:30:00,
2013-02-25 20:31:00,33.3,22.5,30.18,ESE,119,0.0,0.0,64,0.00,,---,0.00,VWS V14.01,2013-02-26 01:31:00,
2013-02-25 20:32:00,33.3,22.5,30.18,ESE,119,0.0,1.0,64,0.00,,---,0.00,VWS V14.01,2013-02-26 01:32:00,
2013-02-25 20:33:00,33.3,22.5,30.18,ESE,119,0.0,0.0,64,0.00,,---,0.00,VWS V14.01,2013-02-26 01:33:00,
2013-02-25 20:34:00,33.2,22.4,30.18,ESE,119,0.0,0.0,64,0.00,,---,0.00,VWS V14.01,2013-02-26 01:34:00,
2013-02-25 20:35:00,33.2,22.4,30.18,ESE,119,0.0,0.0,64,0.00,,---,0.00,VWS V14.01,2013-02-26 01:35:00,
2013-02-25 20:36:00,33.2,22.4,30.19,ESE,119,0.0,0.0,64,0.00,,---,0.00,VWS V14.01,2013-02-26 01:36:00,
2013-02-25 20:37:00,33.2,22.4,30.19,ESE,113,1.0,3.0,64,0.00,,---,0.00,VWS V14.01,2013-02-26 01:37:00,
2013-02-25 20:38:00,33.1,22.3,30.18,ESE,113,0.0,1.0,64,0.00,,---,0.00,VWS V14.01,2013-02-26 01:38:00,
2013-02-25 20:40:00,33.1,22.6,30.19,ESE,113,0.0,3.0,65,0.00,,---,0.00,VWS V14.01,2013-02-26 01:40:00,
2013-02-25 20:41:00,33.1,22.6,30.19,ESE,113,0.0,0.0,65,0.00,,---,0.00,VWS V14.01,2013-02-26 01:41:00,
2013-02-25 20:42:00,33.1,22.6,30.19,ESE,113,0.0,3.0,65,0.00,,---,0.00,VWS V14.01,2013-02-26 01:42:00,
2013-02-25 20:43:00,33.0,22.9,30.19,SE,126,1.0,4.0,66,0.00,,---,0.00,VWS V14.01,2013-02-26 01:43:00,
2013-02-25 20:44:00,33.0,22.5,30.18,SE,126,0.0,1.0,65,0.00,,---,0.00,VWS V14.01,2013-02-26 01:44:00,
2013-02-25 20:45:00,32.9,22.4,30.18,SE,126,1.0,1.0,65,0.00,,---,0.00,VWS V14.01,2013-02-26 01:45:00,
2013-02-25 20:46:00,32.9,22.4,30.18,SE,126,1.0,1.0,65,0.00,,---,0.00,VWS V14.01,2013-02-26 01:46:00,
2013-02-25 20:47:00,32.9,22.8,30.18,SE,126,0.0,2.0,66,0.00,,---,0.00,VWS V14.01,2013-02-26 01:47:00,
2013-02-25 20:48:00,32.8,22.7,30.18,SE,126,0.0,1.0,66,0.00,,---,0.00,VWS V14.01,2013-02-26 01:48:00,
2013-02-25 20:49:00,32.8,22.7,30.18,SE,126,0.0,2.0,66,0.00,,---,0.00,VWS V14.01,2013-02-26 01:49:00,
2013-02-25 20:50:00,32.7,22.6,30.18,SE,126,0.0,2.0,66,0.00,,---,0.00,VWS V14.01,2013-02-26 01:50:00,
2013-02-25 20:51:00,32.7,22.6,30.18,SE,126,1.0,1.0,66,0.00,,---,0.00,VWS V14.01,2013-02-26 01:51:00,
2013-02-25 20:52:00,32.6,22.5,30.18,SE,126,1.0,2.0,66,0.00,,---,0.00,VWS V14.01,2013-02-26 01:52:00,
2013-02-25 20:53:00,32.6,22.5,30.18,SE,126,1.0,1.0,66,0.00,,---,0.00,VWS V14.01,2013-02-26 01:53:00,
2013-02-25 20:54:00,32.5,22.4,30.18,SE,126,2.0,2.0,66,0.00,,---,0.00,VWS V14.01,2013-02-26 01:54:00,
2013-02-25 20:55:00,32.4,22.7,30.18,SE,126,0.0,2.0,67,0.00,,---,0.00,VWS V14.01,2013-02-26 01:55:00,
2013-02-25 20:56:00,32.4,22.7,30.18,SE,126,0.0,0.0,67,0.00,,---,0.00,VWS V14.01,2013-02-26 01:56:00,
2013-02-25 20:57:00,32.3,22.6,30.18,SE,126,0.0,1.0,67,0.00,,---,0.00,VWS V14.01,2013-02-26 01:57:00,
2013-02-25 20:58:00,32.3,22.6,30.18,SE,126,0.0,1.0,67,0.00,,---,0.00,VWS V14.01,2013-02-26 01:58:00,
2013-02-25 20:59:00,32.2,22.5,30.18,SE,126,0.0,0.0,67,0.00,,---,0.00,VWS V14.01,2013-02-26 01:59:00,
2013-02-25 21:00:00,32.1,22.4,30.18,SE,126,0.0,1.0,67,0.00,,---,0.00,VWS V14.01,2013-02-26 02:00:00,
2013-02-25 21:01:00,32.1,22.4,30.18,SE,126,0.0,0.0,67,0.00,,---,0.00,VWS V14.01,2013-02-26 02:01:00,
2013-02-25 21:02:00,32.0,22.3,30.18,SE,126,1.0,2.0,67,0.00,,---,0.00,VWS V14.01,2013-02-26 02:02:00,
2013-02-25 21:03:00,32.0,22.3,30.18,SE,126,0.0,1.0,67,0.00,,---,0.00,VWS V14.01,2013-02-26 02:03:00,
2013-02-25 21:04:00,32.0,22.3,30.18,SE,126,0.0,0.0,67,0.00,,---,0.00,VWS V14.01,2013-02-26 02:04:00,
2013-02-25 21:05:00,31.9,22.2,30.18,SE,126,0.0,1.0,67,0.00,,---,0.00,VWS V14.01,2013-02-26 02:05:00,
2013-02-25 21:06:00,31.9,22.2,30.18,SE,126,0.0,0.0,67,0.00,,---,0.00,VWS V14.01,2013-02-26 02:06:00,
2013-02-25 21:07:00,31.9,22.2,30.19,SE,126,1.0,3.0,67,0.00,,---,0.00,VWS V14.01,2013-02-26 02:07:00,
2013-02-25 21:08:00,31.8,22.1,30.19,SE,126,0.0,2.0,67,0.00,,---,0.00,VWS V14.01,2013-02-26 02:08:00,
2013-02-25 21:09:00,31.8,22.1,30.19,SE,126,0.0,1.0,67,0.00,,---,0.00,VWS V14.01,2013-02-26 02:09:00,
2013-02-25 21:10:00,31.8,22.5,30.19,SE,126,2.0,3.0,68,0.00,,---,0.00,VWS V14.01,2013-02-26 02:10:00,
2013-02-25 21:11:00,31.8,22.5,30.19,SE,126,1.0,2.0,68,0.00,,---,0.00,VWS V14.01,2013-02-26 02:11:00,
2013-02-25 21:12:00,31.8,22.1,30.19,SE,126,0.0,0.0,67,0.00,,---,0.00,VWS V14.01,2013-02-26 02:12:00,
2013-02-25 21:13:00,31.8,22.1,30.19,SE,126,2.0,2.0,67,0.00,,---,0.00,VWS V14.01,2013-02-26 02:13:00,
2013-02-25 21:14:00,31.8,22.1,30.19,SE,126,0.0,2.0,67,0.00,,---,0.00,VWS V14.01,2013-02-26 02:14:00,
2013-02-25 21:15:00,31.8,22.1,30.19,SE,126,0.0,0.0,67,0.00,,---,0.00,VWS V14.01,2013-02-26 02:15:00,
2013-02-25 21:16:00,31.8,22.1,30.19,SE,126,0.0,0.0,67,0.00,,---,0.00,VWS V14.01,2013-02-26 02:16:00,
2013-02-25 21:17:00,31.8,22.5,30.18,SE,135,1.0,3.0,68,0.00,,---,0.00,VWS V14.01,2013-02-26 02:17:00,
2013-02-25 21:18:00,31.8,22.1,30.19,SE,135,0.0,0.0,67,0.00,,---,0.00,VWS V14.01,2013-02-26 02:18:00,
2013-02-25 21:19:00,31.8,22.1,30.19,SE,135,0.0,0.0,67,0.00,,---,0.00,VWS V14.01,2013-02-26 02:19:00,
2013-02-25 21:20:00,31.8,22.1,30.19,SE,135,1.0,2.0,67,0.00,,---,0.00,VWS V14.01,2013-02-26 02:20:00,
2013-02-25 21:21:00,31.8,22.5,30.19,SE,135,1.0,2.0,68,0.00,,---,0.00,VWS V14.01,2013-02-26 02:21:00,
2013-02-25 21:22:00,31.8,22.1,30.19,SE,135,0.0,1.0,67,0.00,,---,0.00,VWS V14.01,2013-02-26 02:22:00,
2013-02-25 21:23:00,31.8,22.5,30.19,SE,135,1.0,2.0,68,0.00,,---,0.00,VWS V14.01,2013-02-26 02:23:00,
2013-02-25 21:24:00,31.7,22.4,30.19,SE,135,1.0,2.0,68,0.00,,---,0.00,VWS V14.01,2013-02-26 02:24:00,
2013-02-25 21:25:00,31.7,22.4,30.18,SE,135,1.0,2.0,68,0.00,,---,0.00,VWS V14.01,2013-02-26 02:25:00,
2013-02-25 21:26:00,31.7,22.4,30.18,SE,135,1.0,3.0,68,0.00,,---,0.00,VWS V14.01,2013-02-26 02:26:00,
2013-02-25 21:27:00,31.7,22.4,30.18,SE,135,0.0,1.0,68,0.00,,---,0.00,VWS V14.01,2013-02-26 02:27:00,
2013-02-25 21:28:00,31.7,22.4,30.18,SE,135,0.0,0.0,68,0.00,,---,0.00,VWS V14.01,2013-02-26 02:28:00,
2013-02-25 21:29:00,31.7,22.4,30.18,SE,135,0.0,0.0,68,0.00,,---,0.00,VWS V14.01,2013-02-26 02:29:00,
2013-02-25 21:30:00,31.6,21.9,30.18,SE,135,0.0,2.0,67,0.00,,---,0.00,VWS V14.01,2013-02-26 02:30:00,
2013-02-25 21:31:00,31.7,22.0,30.18,SE,135,2.0,3.0,67,0.00,,---,0.00,VWS V14.01,2013-02-26 02:31:00,
2013-02-25 21:32:00,31.6,22.3,30.18,SE,135,2.0,3.0,68,0.00,,---,0.00,VWS V14.01,2013-02-26 02:32:00,
2013-02-25 21:33:00,31.6,22.3,30.18,SE,135,0.0,1.0,68,0.00,,---,0.00,VWS V14.01,2013-02-26 02:33:00,
2013-02-25 21:34:00,31.6,22.3,30.18,SE,135,0.0,1.0,68,0.00,,---,0.00,VWS V14.01,2013-02-26 02:34:00,
2013-02-25 21:35:00,31.6,22.3,30.18,SE,135,0.0,0.0,68,0.00,,---,0.00,VWS V14.01,2013-02-26 02:35:00,
2013-02-25 21:36:00,31.6,22.3,30.18,SE,135,0.0,0.0,68,0.00,,---,0.00,VWS V14.01,2013-02-26 02:36:00,
2013-02-25 21:37:00,31.6,22.3,30.18,SE,135,0.0,1.0,68,0.00,,---,0.00,VWS V14.01,2013-02-26 02:37:00,
2013-02-25 21:38:00,31.5,22.2,30.18,SE,135,1.0,2.0,68,0.00,,---,0.00,VWS V14.01,2013-02-26 02:38:00,
2013-02-25 21:39:00,31.5,22.2,30.18,SE,135,1.0,1.0,68,0.00,,---,0.00,VWS V14.01,2013-02-26 02:39:00,
2013-02-25 21:40:00,31.5,22.2,30.18,SE,135,1.0,2.0,68,0.00,,---,0.00,VWS V14.01,2013-02-26 02:40:00,
2013-02-25 21:41:00,31.5,22.5,30.18,SE,135,2.0,3.0,69,0.00,,---,0.00,VWS V14.01,2013-02-26 02:41:00,
2013-02-25 21:42:00,31.4,22.4,30.17,SE,135,1.0,1.0,69,0.00,,---,0.00,VWS V14.01,2013-02-26 02:42:00,
2013-02-25 21:43:00,31.4,22.4,30.17,SE,135,0.0,1.0,69,0.00,,---,0.00,VWS V14.01,2013-02-26 02:43:00,
2013-02-25 21:44:00,31.4,22.1,30.17,SE,135,0.0,1.0,68,0.00,,---,0.00,VWS V14.01,2013-02-26 02:44:00,
2013-02-25 21:45:00,31.4,22.1,30.17,SE,135,0.0,1.0,68,0.00,,---,0.00,VWS V14.01,2013-02-26 02:45:00,
2013-02-25 21:46:00,31.4,22.4,30.17,SE,135,0.0,2.0,69,0.00,,---,0.00,VWS V14.01,2013-02-26 02:46:00,
2013-02-25 21:47:00,31.4,22.4,30.17,SE,135,1.0,3.0,69,0.00,,---,0.00,VWS V14.01,2013-02-26 02:47:00,
2013-02-25 21:48:00,31.3,22.3,30.17,South,180,2.0,4.0,69,0.00,,---,0.00,VWS V14.01,2013-02-26 02:48:00,
2013-02-25 21:49:00,31.3,22.3,30.18,South,180,1.0,2.0,69,0.00,,---,0.00,VWS V14.01,2013-02-26 02:49:00,
2013-02-25 21:50:00,31.3,22.3,30.17,South,180,1.0,3.0,69,0.00,,---,0.00,VWS V14.01,2013-02-26 02:50:00,
2013-02-25 21:51:00,31.2,22.2,30.17,South,180,1.0,3.0,69,0.00,,---,0.00,VWS V14.01,2013-02-26 02:51:00,
2013-02-25 21:52:00,31.2,22.6,30.17,SE,135,1.0,3.0,70,0.00,,---,0.00,VWS V14.01,2013-02-26 02:52:00,
2013-02-25 21:53:00,31.2,22.2,30.17,SE,135,1.0,1.0,69,0.00,,---,0.00,VWS V14.01,2013-02-26 02:53:00,
2013-02-25 21:54:00,31.2,22.2,30.17,SE,135,0.0,0.0,69,0.00,,---,0.00,VWS V14.01,2013-02-26 02:54:00,
2013-02-25 21:55:00,31.3,22.3,30.17,SE,135,0.0,2.0,69,0.00,,---,0.00,VWS V14.01,2013-02-26 02:55:00,
2013-02-25 21:56:00,31.3,22.3,30.16,SE,135,0.0,1.0,69,0.00,,---,0.00,VWS V14.01,2013-02-26 02:56:00,
2013-02-25 21:57:00,31.3,22.3,30.16,SE,135,0.0,2.0,69,0.00,,---,0.00,VWS V14.01,2013-02-26 02:57:00,
2013-02-25 21:58:00,31.3,22.3,30.16,SE,135,0.0,2.0,69,0.00,,---,0.00,VWS V14.01,2013-02-26 02:58:00,
2013-02-25 21:59:00,31.3,22.3,30.17,SE,135,0.0,1.0,69,0.00,,---,0.00,VWS V14.01,2013-02-26 02:59:00,
2013-02-25 22:00:00,31.3,22.3,30.17,SE,135,1.0,2.0,69,0.00,,---,0.00,VWS V14.01,2013-02-26 03:00:00,
2013-02-25 22:09:00,31.2,22.2,30.16,SSE,160,1.0,1.0,69,0.00,,---,0.00,VWS V14.01,2013-02-26 03:09:00,
2013-02-25 22:10:00,31.3,22.3,30.16,SE,135,1.0,2.0,69,0.00,,---,0.00,VWS V14.01,2013-02-26 03:10:00,
2013-02-25 22:11:00,31.2,22.2,30.16,SSE,160,2.0,2.0,69,0.00,,---,0.00,VWS V14.01,2013-02-26 03:11:00,
2013-02-25 22:12:00,31.2,22.2,30.16,SSE,160,0.0,2.0,69,0.00,,---,0.00,VWS V14.01,2013-02-26 03:12:00,
2013-02-25 22:13:00,31.3,22.3,30.16,SSE,160,0.0,0.0,69,0.00,,---,0.00,VWS V14.01,2013-02-26 03:13:00,
2013-02-25 22:14:00,31.3,22.3,30.16,SSE,160,0.0,2.0,69,0.00,,---,0.00,VWS V14.01,2013-02-26 03:14:00,
2013-02-25 22:15:00,31.3,22.0,30.16,SSE,160,0.0,1.0,68,0.00,,---,0.00,VWS V14.01,2013-02-26 03:15:00,
2013-02-25 22:16:00,31.3,22.3,30.15,SE,129,1.0,3.0,69,0.00,,---,0.00,VWS V14.01,2013-02-26 03:16:00,
2013-02-25 22:17:00,31.2,22.2,30.15,SE,129,0.0,1.0,69,0.00,,---,0.00,VWS V14.01,2013-02-26 03:17:00,
2013-02-25 22:18:00,31.2,22.2,30.15,SE,129,0.0,0.0,69,0.00,,---,0.00,VWS V14.01,2013-02-26 03:18:00,
2013-02-25 22:19:00,31.2,22.2,30.15,SE,129,0.0,0.0,69,0.00,,---,0.00,VWS V14.01,2013-02-26 03:19:00,
2013-02-25 22:20:00,31.2,22.2,30.16,SE,129,2.0,2.0,69,0.00,,---,0.00,VWS V14.01,2013-02-26 03:20:00,
2013-02-25 22:21:00,31.2,22.2,30.16,SE,129,1.0,2.0,69,0.00,,---,0.00,VWS V14.01,2013-02-26 03:21:00,
2013-02-25 22:25:00,31.1,22.1,30.16,SE,129,0.0,1.0,69,0.00,,---,0.00,VWS V14.01,2013-02-26 03:25:00,
2013-02-25 22:30:00,31.0,22.0,30.16,SE,129,0.0,2.0,69,0.00,,---,0.00,VWS V14.01,2013-02-26 03:30:00,
2013-02-25 22:35:00,31.0,22.0,30.17,SE,140,2.0,2.0,69,0.00,,---,0.00,VWS V14.01,2013-02-26 03:35:00,
2013-02-25 22:40:00,30.9,22.3,30.17,ESE,115,1.0,2.0,70,0.00,,---,0.00,VWS V14.01,2013-02-26 03:40:00,
2013-02-25 22:45:00,30.9,22.3,30.17,ESE,115,0.0,0.0,70,0.00,,---,0.00,VWS V14.01,2013-02-26 03:45:00,
2013-02-25 22:50:00,30.8,22.2,30.18,SE,142,0.0,1.0,70,0.00,,---,0.00,VWS V14.01,2013-02-26 03:50:00,
2013-02-25 22:55:00,30.8,21.9,30.17,SE,142,0.0,1.0,69,0.00,,---,0.00,VWS V14.01,2013-02-26 03:55:00,
2013-02-25 23:00:00,31.0,22.4,30.18,SSE,149,0.0,0.0,70,0.00,,---,0.00,VWS V14.01,2013-02-26 04:00:00,
2013-02-25 23:05:00,30.9,22.3,30.18,SSE,149,0.0,0.0,70,0.00,,---,0.00,VWS V14.01,2013-02-26 04:05:00,
2013-02-25 23:10:00,30.7,22.1,30.17,SSE,149,0.0,1.0,70,0.00,,---,0.00,VWS V14.01,2013-02-26 04:10:00,
2013-02-25 23:15:00,30.5,22.2,30.17,SSE,149,3.0,3.0,71,0.00,,---,0.00,VWS V14.01,2013-02-26 04:15:00,
2013-02-25 23:20:00,30.3,22.4,30.17,SSE,149,0.0,0.0,72,0.00,,---,0.00,VWS V14.01,2013-02-26 04:20:00,
2013-02-25 23:25:00,30.1,22.2,30.17,SSE,149,0.0,1.0,72,0.00,,---,0.00,VWS V14.01,2013-02-26 04:25:00,
2013-02-25 23:30:00,30.1,22.2,30.17,SSE,149,0.0,0.0,72,0.00,,---,0.00,VWS V14.01,2013-02-26 04:30:00,
2013-02-25 23:35:00,30.1,22.2,30.17,SSE,149,0.0,0.0,72,0.00,,---,0.00,VWS V14.01,2013-02-26 04:35:00,
2013-02-25 23:40:00,30.1,22.2,30.16,SSE,156,2.0,2.0,72,0.00,,---,0.00,VWS V14.01,2013-02-26 04:40:00,
2013-02-25 23:45:00,29.9,22.0,30.17,SSE,156,0.0,3.0,72,0.00,,---,0.00,VWS V14.01,2013-02-26 04:45:00,
2013-02-25 23:50:00,29.9,22.0,30.17,SSE,156,1.0,1.0,72,0.00,,---,0.00,VWS V14.01,2013-02-26 04:50:00,
2013-02-25 23:55:00,29.8,22.2,30.17,SE,140,0.0,3.0,73,0.00,,---,0.00,VWS V14.01,2013-02-26 04:55:00,